[[{"header":{"parameterUnit":"m.s-1","parameterCategory":1,"la1":30.6,"la2":29.2853,"lo1":-89.7004,"lo2":-87.6739,"dy":0.0162,"dx":0.0183,"nx":112,"ny":82,"refTime":"2025-04-07T12:00:00:Z","depth":0,"parameterNumber":2,"parameterNumberName":"U-component_of_WINDS"},"data":[0.0,0.0,0.0,0.0,0.0,0.0,0.0,0.0,0.0,0.0,0.0,0.0,0.0,0.0,0.0,0.0,0.0,0.0,0.0,0.0,0.0,0.0,0.0,0.0,0.0,0.0,0.0,0.0,0.0,0.0,0.0,0.0,0.0,0.0,0.0,0.0,0.0,0.0,0.0,0.0,0.0,0.0,0.0,0.0,0.0,0.0,0.0,0.0,0.0,0.0,0.0,0.0,0.0,0.0,0.0,0.0,0.0,0.0,0.0,0.0,0.0,0.0,0.0,0.0,0.0,0.0,0.0,0.0,0.0,0.0,0.0,0.0,0.0,0.0,0.0,0.0,0.0,0.0,0.0,0.0,0.0,0.0,0.0,0.0,0.0,0.0,0.0,0.0,0.0,0.0,2.7328,3.0696,3.636,3.9633,3.9084,3.8736,3.6193,3.0723,0.0,0.0,0.0,0.0,0.0,0.0,0.0,0.0,0.0,0.0,0.0,0.0,0.0,0.0,0.0,0.0,0.0,0.0,0.0,0.0,0.0,0.0,0.0,0.0,0.0,0.0,0.0,0.0,0.0,0.0,0.0,0.0,0.0,0.0,0.0,0.0,0.0,0.0,0.0,0.0,0.0,0.0,0.0,0.0,0.0,0.0,0.0,0.0,0.0,0.0,0.0,0.0,0.0,0.0,0.0,0.0,0.0,0.0,0.0,0.0,0.0,0.0,0.0,0.0,0.0,0.0,0.0,0.0,0.0,0.0,0.0,0.0,0.0,0.0,0.0,0.0,0.0,0.0,0.0,0.0,0.0,0.0,0.0,0.0,0.0,0.0,0.0,0.0,0.0,0.0,0.0,0.0,0.0,0.0,0.0,0.0,0.0,0.0,0.0,0.0,0.0,0.0,0.0,0.0,2.977,3.5988,3.9529,4.0855,3.9478,3.8319,3.5826,3.1494,0.0,0.0,0.0,0.0,0.0,0.0,0.0,0.0,0.0,0.0,0.0,0.0,0.0,0.0,0.0,0.0,0.0,0.0,0.0,0.0,0.0,0.0,0.0,0.0,0.0,0.0,0.0,0.0,0.0,0.0,0.0,0.0,0.0,0.0,0.0,0.0,0.0,0.0,0.0,0.0,0.0,0.0,0.0,0.0,0.0,0.0,0.0,0.0,0.0,0.0,0.0,0.0,0.0,0.0,0.0,0.0,0.0,0.0,0.0,0.0,0.0,0.0,0.0,0.0,0.0,0.0,0.0,0.0,0.0,0.0,0.0,0.0,0.0,0.0,0.0,0.0,0.0,0.0,0.0,0.0,0.0,0.0,0.0,0.0,0.0,0.0,0.0,0.0,0.0,0.0,0.0,0.0,0.0,0.0,0.0,0.0,0.0,0.0,0.0,0.0,0.0,0.0,0.0,2.7891,3.1736,3.7826,4.0478,4.1131,3.9534,3.861,3.6229,3.1678,2.9149,0.0,0.0,0.0,0.0,0.0,0.0,0.0,0.0,0.0,0.0,0.0,0.0,0.0,0.0,0.0,0.0,0.0,0.0,0.0,0.0,0.0,0.0,0.0,0.0,0.0,0.0,0.0,0.0,0.0,0.0,0.0,0.0,0.0,0.0,0.0,0.0,0.0,0.0,0.0,0.0,0.0,0.0,0.0,0.0,0.0,0.0,0.0,0.0,0.0,0.0,0.0,0.0,0.0,0.0,0.0,0.0,0.0,0.0,0.0,0.0,0.0,0.0,0.0,0.0,0.0,0.0,0.0,0.0,0.0,0.0,0.0,0.0,0.0,0.0,0.0,0.0,0.0,0.0,0.0,0.0,0.0,0.0,0.0,0.0,0.0,0.0,0.0,0.0,0.0,0.0,0.0,0.0,0.0,0.0,0.0,0.0,0.0,0.0,0.0,0.0,0.0,0.0,3.1453,3.3914,3.8753,4.0756,4.1131,3.9534,3.861,3.6193,3.1678,2.817,0.0,0.0,0.0,0.0,0.0,0.0,0.0,0.0,0.0,0.0,0.0,0.0,0.0,0.0,0.0,0.0,0.0,0.0,0.0,0.0,0.0,0.0,0.0,0.0,0.0,0.0,0.0,0.0,0.0,0.0,0.0,0.0,0.0,0.0,0.0,0.0,0.0,0.0,0.0,0.0,0.0,0.0,0.0,0.0,0.0,0.0,0.0,0.0,0.0,0.0,0.0,0.0,0.0,0.0,0.0,0.0,0.0,0.0,0.0,0.0,0.0,0.0,0.0,0.0,0.0,0.0,0.0,0.0,0.0,0.0,0.0,0.0,0.0,0.0,0.0,0.0,0.0,0.0,0.0,0.0,0.0,0.0,0.0,0.0,0.0,0.0,0.0,0.0,0.0,0.0,0.0,0.0,0.0,0.0,0.0,0.0,0.0,0.0,0.0,0.0,0.0,0.0,3.3214,3.6688,3.9699,4.107,4.1131,3.9534,3.7597,3.5018,3.1604,2.7213,0.0,0.0,0.0,0.0,0.0,0.0,0.0,0.0,0.0,0.0,0.0,0.0,0.0,0.0,0.0,0.0,0.0,0.0,0.0,0.0,0.0,0.0,0.0,0.0,0.0,0.0,0.0,0.0,0.0,0.0,0.0,0.0,0.0,0.0,0.0,0.0,0.0,0.0,0.0,0.0,0.0,0.0,0.0,0.0,0.0,0.0,0.0,0.0,0.0,0.0,0.0,0.0,0.0,0.0,0.0,0.0,0.0,0.0,0.0,0.0,0.0,0.0,0.0,0.0,0.0,0.0,0.0,0.0,0.0,0.0,0.0,0.0,0.0,0.0,0.0,0.0,0.0,0.0,0.0,0.0,0.0,0.0,0.0,0.0,0.0,0.0,0.0,0.0,0.0,0.0,0.0,0.0,0.0,0.0,0.0,0.0,0.0,0.0,0.0,0.0,0.0,0.0,3.2681,3.6067,0.0,4.1105,4.1131,3.9534,3.843,3.5973,3.1678,0.0,0.0,0.0,0.0,0.0,0.0,0.0,0.0,0.0,0.0,0.0,0.0,0.0,0.0,0.0,0.0,0.0,0.0,0.0,0.0,0.0,0.0,0.0,0.0,0.0,0.0,0.0,0.0,0.0,0.0,0.0,0.0,0.0,0.0,0.0,0.0,0.0,0.0,0.0,0.0,0.0,0.0,0.0,0.0,0.0,0.0,0.0,0.0,0.0,0.0,0.0,0.0,0.0,0.0,0.0,0.0,0.0,0.0,0.0,0.0,0.0,0.0,0.0,0.0,0.0,0.0,0.0,0.0,0.0,0.0,0.0,0.0,0.0,0.0,0.0,0.0,0.0,0.0,0.0,0.0,0.0,0.0,0.0,0.0,0.0,0.0,0.0,0.0,0.0,0.0,0.0,0.0,0.0,0.0,0.0,0.0,0.0,0.0,0.0,0.0,0.0,0.0,2.9306,3.2994,3.6458,0.0,4.1105,4.1131,3.9534,3.8502,3.6083,3.1678,0.0,0.0,0.0,0.0,0.0,0.0,0.0,0.0,0.0,0.0,0.0,0.0,0.0,0.0,0.0,0.0,0.0,0.0,0.0,0.0,0.0,0.0,0.0,0.0,0.0,0.0,0.0,0.0,0.0,0.0,0.0,0.0,0.0,0.0,0.0,0.0,0.0,0.0,0.0,0.0,0.0,0.0,0.0,0.0,0.0,0.0,0.0,0.0,0.0,0.0,0.0,0.0,0.0,0.0,0.0,0.0,0.0,0.0,0.0,0.0,0.0,0.0,0.0,0.0,0.0,0.0,0.0,0.0,0.0,0.0,0.0,0.0,0.0,0.0,0.0,0.0,0.0,0.0,0.0,0.0,0.0,0.0,0.0,0.0,0.0,0.0,0.0,0.0,0.0,0.0,0.0,0.0,0.0,0.0,0.0,0.0,0.0,0.0,0.0,0.0,0.0,0.0,2.9544,3.4597,3.8464,3.9918,4.1105,4.1131,3.9534,3.7492,3.4908,0.0,0.0,0.0,0.0,0.0,0.0,0.0,0.0,0.0,0.0,0.0,0.0,0.0,0.0,0.0,0.0,0.0,0.0,0.0,0.0,0.0,0.0,0.0,0.0,0.0,0.0,0.0,0.0,0.0,0.0,0.0,0.0,0.0,0.0,0.0,0.0,0.0,0.0,0.0,0.0,0.0,0.0,0.0,0.0,0.0,0.0,0.0,0.0,0.0,0.0,0.0,0.0,0.0,0.0,0.0,0.0,0.0,0.0,0.0,0.0,0.0,0.0,0.0,0.0,0.0,0.0,0.0,0.0,0.0,0.0,0.0,0.0,0.0,0.0,0.0,0.0,0.0,0.0,0.0,0.0,0.0,0.0,0.0,0.0,0.0,0.0,0.0,0.0,0.0,0.0,0.0,0.0,0.0,0.0,0.0,0.0,0.0,0.0,0.0,0.0,0.0,0.0,0.0,2.9544,3.4597,3.8464,3.9918,4.0767,4.0701,3.9494,3.8115,3.5654,3.1653,0.0,0.0,0.0,0.0,0.0,0.0,0.0,0.0,0.0,0.0,0.0,0.0,0.0,0.0,0.0,0.0,0.0,0.0,0.0,0.0,0.0,0.0,0.0,0.0,0.0,0.0,0.0,0.0,0.0,0.0,0.0,0.0,0.0,0.0,0.0,0.0,0.0,0.0,0.0,0.0,0.0,0.0,0.0,0.0,0.0,0.0,0.0,0.0,0.0,0.0,0.0,0.0,0.0,0.0,0.0,0.0,0.0,0.0,0.0,0.0,0.0,0.0,0.0,0.0,0.0,0.0,0.0,0.0,0.0,0.0,0.0,0.0,0.0,0.0,0.0,0.0,0.0,0.0,0.0,0.0,0.0,0.0,0.0,0.0,0.0,0.0,0.0,0.0,0.0,0.0,0.0,0.0,0.0,0.0,0.0,0.0,0.0,0.0,0.0,0.0,0.0,0.0,2.9756,3.4688,3.8464,3.9918,4.0814,4.0894,3.9953,3.9121,3.6698,3.2166,0.0,0.0,0.0,0.0,0.0,0.0,0.0,0.0,0.0,0.0,0.0,0.0,0.0,0.0,0.0,0.0,0.0,0.0,0.0,0.0,0.0,0.0,0.0,0.0,0.0,0.0,0.0,0.0,0.0,0.0,0.0,0.0,0.0,0.0,0.0,0.0,0.0,0.0,0.0,0.0,0.0,0.0,0.0,0.0,0.0,0.0,0.0,0.0,0.0,0.0,0.0,0.0,0.0,0.0,0.0,0.0,0.0,0.0,0.0,0.0,0.0,0.0,0.0,0.0,0.0,0.0,0.0,0.0,0.0,0.0,0.0,0.0,0.0,0.0,0.0,0.0,0.0,0.0,0.0,0.0,0.0,0.0,0.0,0.0,0.0,0.0,0.0,0.0,0.0,0.0,0.0,0.0,0.0,0.0,0.0,0.0,0.0,0.0,0.0,0.0,0.0,0.0,3.0087,3.4858,3.8464,3.9918,4.1059,4.1407,4.063,4.0095,3.7851,3.312,0.0,0.0,0.0,0.0,0.0,0.0,0.0,0.0,0.0,0.0,0.0,0.0,0.0,0.0,0.0,0.0,0.0,0.0,0.0,0.0,0.0,0.0,0.0,0.0,0.0,0.0,0.0,0.0,0.0,0.0,0.0,0.0,0.0,0.0,0.0,0.0,0.0,0.0,0.0,0.0,0.0,0.0,0.0,0.0,0.0,0.0,0.0,0.0,0.0,0.0,0.0,0.0,0.0,0.0,0.0,0.0,0.0,0.0,0.0,0.0,2.3405,2.1915,0.0,0.0,0.0,0.0,0.0,0.0,0.0,0.0,0.0,0.0,0.0,0.0,0.0,0.0,0.0,0.0,0.0,0.0,0.0,0.0,0.0,0.0,0.0,0.0,0.0,0.0,0.0,0.0,0.0,0.0,0.0,0.0,0.0,0.0,0.0,0.0,0.0,0.0,0.0,0.0,3.0153,3.4858,3.8464,3.9918,4.072,4.0971,4.063,3.9729,3.7838,3.4697,3.1191,0.0,0.0,0.0,0.0,0.0,0.0,0.0,0.0,0.0,0.0,0.0,0.0,0.0,0.0,0.0,0.0,0.0,0.0,0.0,0.0,0.0,0.0,0.0,0.0,0.0,0.0,0.0,0.0,0.0,0.0,0.0,0.0,0.0,0.0,0.0,0.0,0.0,0.0,0.0,0.0,0.0,0.0,0.0,0.0,0.0,0.0,0.0,0.0,0.0,0.0,0.0,0.0,0.0,0.0,0.0,0.0,0.0,0.0,0.0,2.6723,2.5169,0.0,0.0,0.0,0.0,0.0,0.0,0.0,0.0,0.0,0.0,0.0,0.0,0.0,0.0,0.0,0.0,0.0,0.0,0.0,0.0,0.0,0.0,0.0,0.0,0.0,0.0,0.0,0.0,0.0,0.0,0.0,0.0,0.0,0.0,0.0,0.0,0.0,0.0,0.0,0.0,3.1005,3.5183,3.8464,3.9918,4.0861,4.1288,4.1202,4.0813,3.9349,3.6384,3.3376,0.0,0.0,0.0,0.0,0.0,0.0,0.0,0.0,0.0,0.0,0.0,0.0,0.0,0.0,0.0,0.0,0.0,0.0,0.0,0.0,0.0,0.0,0.0,0.0,0.0,0.0,0.0,0.0,0.0,0.0,0.0,0.0,0.0,0.0,0.0,0.0,0.0,0.0,0.0,0.0,0.0,0.0,0.0,0.0,0.0,0.0,0.0,0.0,0.0,0.0,0.0,0.0,0.0,3.3354,3.377,3.3681,3.3812,3.3981,3.3945,3.0936,2.9585,2.934,2.7233,0.0,0.0,0.0,0.0,0.0,0.0,0.0,0.0,0.0,0.0,0.0,0.0,0.0,0.0,0.0,0.0,0.0,0.0,0.0,0.0,0.0,0.0,0.0,0.0,3.1427,3.0842,2.6645,0.0,0.0,0.0,0.0,0.0,0.0,0.0,0.0,0.0,0.0,0.0,3.2063,3.5757,3.8599,3.9952,4.1105,4.181,4.181,4.2085,4.1038,3.8102,3.5789,3.2627,0.0,0.0,0.0,0.0,0.0,0.0,0.0,0.0,0.0,0.0,0.0,0.0,0.0,0.0,0.0,0.0,0.0,0.0,0.0,0.0,0.0,0.0,0.0,0.0,0.0,0.0,0.0,0.0,0.0,0.0,0.0,0.0,2.2225,2.2484,0.0,0.0,0.0,0.0,0.0,0.0,0.0,0.0,0.0,0.0,0.0,0.0,0.0,3.2234,3.38,3.5084,3.5685,3.5603,3.7041,3.7395,3.672,3.6754,3.7142,3.7777,3.7314,0.0,3.1425,3.0057,0.0,0.0,0.0,0.0,0.0,0.0,0.0,0.0,0.0,0.0,0.0,0.0,0.0,0.0,0.0,0.0,0.0,0.0,0.0,0.0,0.0,0.0,3.294,3.37,3.4472,3.4665,0.0,3.0239,2.7334,2.6184,2.4529,0.0,0.0,0.0,0.0,0.0,0.0,0.0,3.2975,3.6535,3.9174,3.9986,4.1105,4.181,4.181,4.2085,4.1515,3.968,3.7451,3.507,3.2596,2.9817,0.0,0.0,0.0,0.0,0.0,0.0,0.0,0.0,0.0,0.0,0.0,0.0,0.0,0.0,0.0,0.0,0.0,0.0,0.0,0.0,0.0,0.0,0.0,0.0,0.0,0.0,0.0,0.0,0.0,2.2052,2.3904,2.4277,2.5232,2.5603,0.0,0.0,0.0,0.0,0.0,0.0,0.0,0.0,0.0,3.3567,3.4666,3.5951,3.7521,3.8168,3.8864,3.9649,4.031,4.0673,4.078,4.049,4.0556,4.0841,4.0491,3.9167,3.7038,3.4584,3.3038,3.2044,0.0,0.0,0.0,0.0,2.9431,2.9976,3.1991,3.3028,3.3354,3.2892,0.0,0.0,0.0,0.0,0.0,0.0,0.0,3.0028,0.0,0.0,3.5103,3.6658,3.728,3.7509,3.7466,3.5641,3.2985,0.0,2.9127,2.8213,2.5676,0.0,0.0,0.0,0.0,3.2874,3.5047,3.7449,3.9276,3.9986,4.0814,4.1429,4.1768,4.2255,4.2157,4.1332,3.9442,3.7728,3.6189,3.2996,3.0326,0.0,0.0,0.0,0.0,0.0,0.0,0.0,0.0,0.0,0.0,0.0,0.0,0.0,0.0,0.0,0.0,0.0,0.0,0.0,0.0,0.0,0.0,0.0,0.0,0.0,0.0,0.0,0.0,2.3876,2.5596,2.6056,2.7564,2.8016,0.0,0.0,0.0,0.0,0.0,0.0,3.2025,3.3323,3.4986,3.7098,3.8376,3.9711,4.1135,4.1314,4.2055,4.321,4.3243,4.3534,4.412,4.3688,4.3538,4.35,4.3037,4.2753,4.2266,3.858,3.672,3.5896,3.3493,3.2442,3.2334,3.2505,3.2604,3.3039,3.5814,3.7106,3.7463,3.6827,3.6564,3.5824,3.261,0.0,0.0,0.0,0.0,3.2848,3.5047,3.6062,3.6941,3.8836,3.9389,3.9597,3.9997,3.9772,3.8173,0.0,3.34,3.2815,2.9299,0.0,0.0,0.0,0.0,3.4945,3.684,3.8362,3.9478,4.002,4.0577,4.1115,4.1768,4.2342,4.2595,4.2326,4.0965,3.9756,3.8658,3.5609,3.3182,3.1494,0.0,0.0,0.0,0.0,0.0,0.0,0.0,0.0,0.0,0.0,0.0,0.0,0.0,0.0,0.0,0.0,0.0,0.0,0.0,0.0,0.0,0.0,0.0,0.0,0.0,0.0,0.0,0.0,0.0,2.7798,3.024,0.0,0.0,0.0,0.0,3.2371,3.2517,3.3713,3.6439,3.7377,3.874,4.0785,4.2359,4.3608,4.4453,4.5215,4.5621,4.5736,4.5731,4.5766,4.5808,4.5772,4.5736,4.5737,4.57,4.5663,4.5334,4.1166,3.9258,3.8831,3.7506,3.6703,3.6226,3.622,3.6363,3.6593,3.7327,3.7831,3.8557,4.0524,3.9767,3.792,3.7148,3.5078,0.0,0.0,3.5351,3.5926,3.8193,3.8802,3.9039,3.9817,4.0446,4.0804,4.0851,4.127,4.0793,0.0,3.618,3.5054,3.4262,0.0,3.3423,3.41,3.5588,3.6907,3.7753,3.9106,4.0054,4.0087,4.0577,4.1115,4.1768,4.2342,4.2595,4.2326,4.1515,4.054,3.9486,3.7024,3.5173,3.4122,2.9929,0.0,0.0,0.0,0.0,0.0,0.0,0.0,0.0,0.0,0.0,0.0,0.0,0.0,0.0,0.0,0.0,0.0,0.0,0.0,0.0,0.0,0.0,0.0,0.0,0.0,0.0,0.0,0.0,3.1974,3.4182,0.0,3.3696,3.4149,3.4794,3.5371,3.6076,3.7398,3.9491,4.0525,4.176,4.3353,4.4488,4.515,4.548,4.5736,4.5883,4.5918,4.592,4.5883,4.5882,4.5883,4.592,4.5883,4.5883,4.5883,4.5773,4.4271,4.3287,4.2594,4.1323,4.0374,3.9682,3.9328,3.9252,3.9441,4.0552,4.0971,4.124,4.1832,4.0886,3.9516,3.9301,3.8058,3.6943,3.7998,3.8048,3.8091,3.9343,3.9993,4.0281,4.0556,4.1059,4.1595,4.1979,4.2221,4.2092,4.1074,3.9434,3.7698,3.6077,3.6059,3.6231,3.5994,3.7246,3.8464,3.9208,3.9749,4.0087,4.0087,4.0303,4.0625,4.1161,4.1768,4.2024,4.176,4.1348,4.0782,4.0034,3.7836,3.6349,3.5671,3.266,2.9632,0.0,0.0,0.0,0.0,0.0,0.0,0.0,0.0,0.0,0.0,0.0,0.0,0.0,0.0,0.0,0.0,0.0,0.0,0.0,0.0,0.0,0.0,0.0,0.0,0.0,0.0,3.3375,3.5075,3.7308,3.8192,3.6846,3.7631,3.8486,3.909,3.9805,4.0926,4.2616,4.3397,4.4199,4.5076,4.5883,4.6287,4.6324,4.6581,4.669,4.6722,4.6722,4.6722,4.6722,4.6689,4.6727,4.6728,4.6728,4.6728,4.6728,4.6728,4.625,4.5407,4.4271,4.3393,4.2696,4.2306,4.2062,4.1973,4.2825,4.3206,4.3286,4.2844,4.2081,4.1361,4.1143,4.0574,4.0067,4.0155,3.995,3.9773,4.0307,4.0891,4.1371,4.1648,4.2326,4.3012,4.3448,4.3643,4.3721,4.343,4.1971,4.0157,3.8312,3.8494,3.867,3.8004,3.8734,3.9611,4.0251,4.0368,4.0466,4.0625,4.0672,4.0908,4.1464,4.1569,4.1662,4.1724,4.0836,4.0167,3.9909,3.7539,3.616,3.6017,3.343,3.071,2.795,0.0,0.0,0.0,0.0,0.0,0.0,0.0,0.0,0.0,0.0,0.0,0.0,0.0,0.0,0.0,0.0,0.0,0.0,0.0,0.0,0.0,0.0,0.0,3.0869,3.343,3.5588,3.6826,3.9511,4.0588,3.9039,4.0325,4.1912,4.3439,4.3563,4.4267,4.5844,4.592,4.592,4.592,4.6764,4.7168,4.7169,4.7976,4.8379,4.8379,4.8379,4.8379,4.8379,4.8379,4.8379,4.8379,4.8379,4.8379,4.8343,4.8343,4.7865,4.7095,4.625,4.5623,4.512,4.512,4.4755,4.4227,4.4016,4.4269,4.4635,4.3828,4.3571,4.3501,4.2992,4.2765,4.2534,4.1366,4.1036,4.1069,4.1257,4.1778,4.2484,4.3166,4.4281,4.512,4.512,4.5548,4.5663,4.4892,4.3687,4.2414,4.1196,4.0932,4.0733,4.0254,4.0154,0.0,4.0874,4.0932,4.1115,4.1768,4.181,4.2021,4.2616,4.1897,4.1651,4.2182,4.0047,3.8833,3.909,3.6227,3.487,3.5249,3.2184,2.977,2.8005,0.0,0.0,0.0,0.0,0.0,0.0,0.0,0.0,0.0,0.0,0.0,0.0,0.0,0.0,0.0,0.0,0.0,0.0,0.0,0.0,0.0,3.0903,3.2897,3.4254,3.6577,3.8785,4.0562,4.2521,4.3538,4.3091,4.3976,4.4782,4.5217,4.5257,4.5406,4.5883,4.6471,4.6765,4.6764,4.8159,4.8893,4.8898,4.9711,5.0116,5.0116,5.0116,5.0116,5.0116,5.0147,5.0144,5.011,5.0105,4.9774,4.9224,4.9224,4.8746,4.7902,4.7095,4.6323,4.5662,4.5662,4.5586,4.5435,4.5369,4.5443,4.5516,4.5296,4.5223,4.5187,4.5077,4.474,4.4389,4.4068,4.365,4.3286,4.3349,4.3873,4.4378,4.455,4.516,4.5662,4.5662,4.581,4.5847,4.5626,4.526,4.4414,4.2521,4.1853,4.1508,4.1375,4.1331,0.0,4.1516,4.1516,4.1639,4.1768,4.181,4.1853,4.2021,4.2207,4.1901,4.0818,3.9999,3.9338,3.884,3.728,3.6426,3.644,3.4276,3.2378,0.0,0.0,0.0,0.0,0.0,0.0,0.0,0.0,0.0,0.0,0.0,0.0,0.0,0.0,0.0,0.0,0.0,0.0,0.0,0.0,0.0,0.0,3.4615,3.6683,3.8292,3.9481,4.0957,4.3065,4.4126,4.4821,4.5187,4.5663,4.6066,4.6397,4.6397,4.6544,4.6911,4.7683,4.8162,4.8163,4.9413,5.0076,5.0079,5.056,5.078,5.0805,5.0805,5.0805,5.0805,5.0794,5.079,5.0794,5.0798,5.0545,5.0068,4.9738,4.9297,0.0,0.0,0.0,0.0,0.0,4.6911,4.6874,4.6544,4.6397,4.6361,4.5993,4.5883,4.5883,4.5883,4.5662,4.5394,4.516,4.4839,4.4614,4.4636,4.5129,4.5658,4.5983,4.6494,4.6911,4.6911,4.6911,4.6801,4.6471,4.6397,0.0,4.4307,4.33,4.2495,4.1888,4.181,4.1895,4.2144,4.218,4.2226,4.2465,4.2306,4.2302,4.2465,4.2294,0.0,0.0,0.0,3.881,3.757,3.6925,0.0,0.0,0.0,0.0,0.0,0.0,0.0,0.0,2.9813,2.9476,0.0,0.0,0.0,0.0,0.0,0.0,0.0,0.0,0.0,0.0,0.0,0.0,0.0,0.0,0.0,0.0,3.8092,4.0229,4.2289,4.2184,4.2591,4.4455,4.4894,4.526,4.5951,4.6134,4.6501,4.7309,4.7384,4.7752,4.8563,0.0,0.0,0.0,0.0,5.0929,5.0929,5.104,5.1066,5.1104,5.1104,5.1104,5.1104,5.1104,5.1104,5.1067,5.1051,5.1022,5.0875,5.0141,4.9738,4.9481,4.8636,4.8306,4.8306,4.8306,4.8306,4.8196,4.7498,0.0,0.0,4.6397,4.6177,4.6177,4.6177,4.6177,4.6067,4.5609,4.5454,4.5477,4.5614,4.609,4.668,4.7368,4.7879,4.8306,4.8306,4.8306,4.8086,4.7388,4.7241,4.6985,4.6177,4.4927,4.3592,4.2311,4.2015,4.2185,4.2732,4.277,4.2958,4.3463,0.0,0.0,4.3463,4.2305,4.176,4.2252,4.023,3.821,3.6453,3.6519,3.6863,3.7406,3.7315,3.8007,3.9561,3.9484,3.9469,3.9431,3.3553,3.2596,0.0,0.0,0.0,0.0,0.0,0.0,0.0,0.0,0.0,0.0,0.0,0.0,0.0,0.0,0.0,3.8548,4.0035,4.1572,4.3903,4.416,4.427,4.4636,4.5847,4.6727,4.6836,4.7423,4.8192,4.9035,4.9111,4.9481,5.0288,5.0478,5.0545,5.0561,5.1339,5.1747,5.1747,5.2417,5.2747,5.2736,5.2736,0.0,5.2736,5.2736,5.2736,5.2779,5.2742,5.238,5.1756,5.1573,5.0765,4.9481,4.8636,4.8306,4.8306,4.8306,4.8306,4.8269,4.8122,4.8086,4.8049,4.7902,4.7829,4.7829,4.7829,4.7829,0.0,4.7714,4.7675,4.7712,4.7703,4.7816,4.7931,4.8078,4.8229,4.8306,4.8306,4.8306,4.8269,4.8122,4.8086,4.7829,4.7021,4.559,4.4455,4.42,4.3579,4.3178,4.3321,4.3321,4.3393,4.3497,4.3032,4.292,4.3463,4.285,4.2413,4.2289,4.1258,4.0271,3.9469,4.0378,4.0794,4.0531,4.0739,4.0684,4.0438,4.0315,4.0623,4.1261,3.9067,3.7943,0.0,0.0,0.0,0.0,0.0,0.0,0.0,0.0,0.0,0.0,0.0,3.3373,3.5161,0.0,3.8451,4.073,4.2111,4.3322,4.4526,4.5406,4.592,4.592,4.6617,4.7278,4.7682,4.8453,4.9114,4.9591,4.9958,5.0362,5.0765,5.1173,5.1389,5.1412,5.2187,5.259,5.259,5.2999,5.3225,5.3225,5.3225,5.3225,5.3225,5.3225,5.3225,5.3225,5.3225,5.2968,5.2564,5.216,5.1279,5.0141,4.9738,4.904,4.8306,4.8306,4.8306,4.8306,4.8306,4.8306,4.8306,4.8306,4.8306,4.8306,4.8306,4.8306,4.8306,4.8306,4.8306,4.8306,4.8306,4.8306,4.8306,4.8306,4.8306,4.8306,4.8306,4.8306,4.8306,4.8306,4.8306,4.8196,4.7792,4.6728,4.5773,4.5369,4.4635,4.4085,4.4085,4.3754,4.3497,4.3497,4.3032,4.2808,4.3105,4.2846,4.2595,4.2326,4.1919,4.1456,4.0989,4.168,4.2085,4.2052,4.2299,4.2492,4.259,4.247,4.2854,4.3701,4.3097,4.2103,0.0,0.0,0.0,0.0,0.0,0.0,0.0,0.0,3.2109,3.3796,3.5308,3.6804,3.847,3.989,4.1311,4.2537,4.3831,4.4821,4.5113,4.6287,4.7168,4.7315,4.7352,4.7645,4.8489,4.9187,4.9701,5.0031,5.0655,5.1096,5.1279,5.1867,5.2238,5.2238,5.2858,5.3225,5.3225,5.3225,5.3225,5.3225,5.3225,5.3225,5.3225,5.3225,5.3225,5.3225,5.3225,5.3225,5.3151,5.2491,5.1756,5.1022,5.1022,5.0105,4.8783,4.8783,4.871,4.8563,4.8563,4.8453,4.8306,4.8306,4.8306,4.8306,4.8306,4.8306,4.8306,4.8306,4.8306,4.8306,4.8306,4.8306,4.8306,4.8306,4.8306,4.8306,4.8306,4.8306,4.8306,4.8306,4.8306,4.8306,4.8306,4.7755,4.7058,4.625,4.5443,4.4929,4.4929,4.4378,4.3975,4.3975,4.3393,4.2933,4.2753,4.2832,4.2775,4.2546,4.2543,4.2378,4.1987,4.2366,4.2762,4.3063,4.3419,4.397,4.4722,4.4624,4.4893,4.5586,4.5586,4.488,2.775,2.7698,2.8508,2.9935,3.0806,3.2275,0.0,0.0,3.6677,3.9123,4.013,4.0781,4.1423,4.2081,4.2967,4.4232,4.4565,4.5187,4.6617,4.7021,4.7388,4.8086,4.8196,4.8526,4.937,4.9517,5.0178,5.161,5.1793,5.2197,5.2894,5.3041,5.3078,5.3078,5.3151,5.3225,5.3225,5.3225,5.3225,5.3225,5.3225,5.3225,5.3225,5.3225,5.3225,5.3225,5.3225,5.3225,5.3188,5.3115,5.2601,5.1867,5.1867,5.1316,5.0508,5.0508,5.0068,4.9444,4.9444,4.893,4.8306,4.8306,4.8306,4.8306,4.8306,4.8306,4.8306,4.8306,4.8306,4.8306,4.8306,4.8306,4.8306,4.8306,4.8306,4.8306,4.8306,4.8306,4.8306,4.8306,4.8306,4.8306,4.8306,4.8233,4.7902,4.7095,4.6287,4.5773,4.5773,4.57,4.5626,4.5626,4.4628,4.3669,4.2916,4.3381,4.3609,4.3353,4.3351,4.3348,4.3272,4.3942,4.4348,4.4399,4.5015,4.5355,4.547,4.547,4.5509,4.5586,4.5586,4.5362,3.0907,3.098,3.1692,0.0,3.4279,3.5968,3.8229,3.8845,3.9514,4.1594,4.2563,4.3138,4.3483,4.4065,4.4559,0.0,4.548,4.6322,4.6984,4.7498,4.7755,4.7645,4.8012,4.8636,4.9517,4.9994,5.0765,5.1903,5.2417,5.2858,5.3188,5.3225,5.3225,5.3225,5.3225,5.3225,5.3225,5.3225,5.3225,5.3225,5.3225,5.3225,5.3225,5.3225,5.3225,5.3225,5.3225,5.3225,5.3225,5.3225,5.3004,5.2711,5.2711,5.2491,5.2087,5.1169,5.0582,5.0215,4.9738,4.9334,4.8967,4.8453,4.8306,4.8306,4.8306,4.8306,4.8306,4.8306,4.8306,4.8306,4.8306,4.8306,4.8306,4.8306,4.8306,4.8306,4.8306,4.8306,4.8306,4.8306,4.8306,4.8306,4.8306,4.8306,4.8196,4.7865,4.7131,4.6617,4.6617,4.6177,4.5883,4.5883,4.516,4.4653,4.4654,4.4574,4.4445,4.4196,4.4195,4.3975,4.3497,4.3974,4.4346,4.4599,4.5055,4.54,4.5586,4.5586,4.5586,4.5586,4.6124,4.6262,3.2485,3.3202,0.0,3.5189,3.7219,3.9277,4.0154,4.0962,4.1947,4.3481,4.4234,4.4671,4.4737,4.5122,4.5401,4.5208,4.6067,4.6908,4.7351,4.7939,4.8086,4.7498,4.7976,4.8636,4.9517,5.0325,5.1132,5.194,5.2747,5.3225,5.3225,5.3225,5.3225,5.3225,5.3225,5.3225,5.3225,5.3225,5.3225,5.3225,5.3225,5.3225,5.3225,5.3225,5.3225,5.3225,5.3225,5.3225,5.3225,5.3225,5.3225,5.3225,5.3225,5.3225,5.3078,5.1903,5.1316,5.1059,5.0435,4.9958,4.9481,4.8857,4.8673,4.8673,4.8673,4.882,4.893,4.871,4.8673,4.86,4.8379,4.8306,4.8306,4.8306,4.8306,4.8306,4.8306,4.8306,4.8306,4.8306,4.8306,4.8306,4.8306,4.8306,4.8306,4.8306,4.7792,4.7462,4.7462,4.6911,4.6507,4.632,4.5972,4.582,4.599,4.5642,4.5279,4.504,4.5039,4.4782,4.4195,4.4453,4.4736,4.4938,4.5261,4.5472,4.5586,4.5817,4.597,4.597,4.6817,4.724,3.1641,3.3635,3.6116,3.6927,3.9395,4.1931,4.2777,4.3602,4.4427,4.5334,4.5547,4.547,4.5145,4.4834,4.5028,4.6147,4.6131,4.647,4.8049,4.8269,4.8306,4.8269,4.8306,4.8636,4.9517,5.0325,5.1132,5.194,5.2747,5.3225,5.3225,5.3225,5.3225,5.3225,5.3225,5.3225,5.3225,5.3225,5.3225,5.3225,5.3225,5.3225,5.3225,5.3225,5.3225,5.3225,5.3225,5.3225,5.3225,5.3225,5.3225,5.3225,5.3225,5.3225,5.3188,5.3151,5.2637,5.194,5.194,5.0912,4.9591,4.9554,4.9554,4.9554,4.9554,5.0105,5.0545,4.9774,4.9554,4.937,4.8526,4.8306,4.8306,4.8306,4.8306,4.8306,4.8306,4.8306,4.8306,4.8306,4.8306,4.8306,4.8306,4.8306,4.8306,4.8306,4.8269,4.8269,4.8269,4.8233,4.8002,4.7398,4.7355,4.7024,4.6266,4.6194,4.6074,4.5883,4.5847,4.5847,4.581,4.6157,4.6165,4.5779,4.6074,4.6046,4.5586,4.6432,4.6855,4.6894,4.7702,4.8048,3.4431,3.6522,3.8779,4.0117,4.199,4.3701,4.4547,4.4987,4.5257,4.5547,4.5586,4.5419,4.4859,4.5092,4.5536,4.5978,4.6875,4.7681,4.8233,4.926,4.937,4.7719,4.8489,4.882,4.8012,4.9187,5.0545,5.1903,5.2234,5.2637,5.3188,5.3225,5.3225,5.3225,5.3225,5.3225,5.3225,5.3225,5.3225,5.3225,5.3225,5.3225,5.3225,5.3225,5.3225,5.3225,5.3225,5.3225,5.3225,5.3225,5.3225,5.3225,5.3225,5.3225,5.3225,5.3225,5.3041,5.2711,5.2197,5.1646,5.1096,5.0582,5.0398,5.0398,5.0398,5.0582,5.0729,5.0472,5.0398,5.0215,4.937,4.915,4.9003,4.8453,4.8306,4.8306,4.8306,4.8306,4.8306,4.8306,4.8306,4.8306,4.8306,4.8306,4.8306,4.8306,4.8306,4.8306,4.8306,4.8306,4.8229,4.8035,4.7995,4.7886,4.763,4.7594,4.7344,4.6727,4.6728,4.6471,4.592,4.6027,4.612,4.6202,4.6571,4.682,4.6887,4.7415,4.7702,4.774,4.8586,4.8971,3.634,3.8611,4.0873,4.2195,4.3649,4.4893,4.547,4.5586,4.5509,4.5201,4.5124,4.4996,4.4554,4.4486,4.4862,4.6104,4.6946,4.7755,4.8636,4.9701,4.9884,4.86,4.9114,4.9297,4.8526,4.9407,5.0435,5.1499,5.2087,5.2637,5.3188,5.3225,5.3225,5.3225,5.3225,5.3225,5.3225,5.3225,5.3225,5.3225,5.3225,5.3225,5.3225,5.3225,5.3225,5.3225,5.3225,5.3225,5.3225,5.3225,5.3225,5.3225,5.3225,5.3225,5.3225,5.3225,5.3225,5.3151,5.2601,5.2234,5.1903,5.1389,5.1242,5.1242,5.1242,5.1426,5.161,5.1316,5.1242,5.1022,5.0215,5.0031,4.9811,4.8967,4.8746,4.8673,4.8379,4.8306,4.8306,4.8306,4.8306,4.8306,4.8306,4.8306,4.8306,4.8306,4.8306,4.8306,4.8306,4.8306,4.8306,4.8306,4.8306,4.8306,4.8306,4.8306,4.8086,4.7572,4.7535,4.7315,4.6764,4.6764,4.6799,4.6838,4.7266,4.7439,4.7472,4.822,4.8548,4.8586,4.9471,4.9856,3.7441,3.989,4.2397,4.3152,4.4489,4.5586,4.5586,4.5547,4.5316,4.4474,4.4239,4.4162,0.0,0.0,4.3139,4.6327,4.6364,4.6838,4.926,4.9701,5.0031,0.0,0.0,0.0,0.0,0.0,0.0,5.0875,5.227,5.3188,5.3225,5.3225,5.3225,5.3225,5.3225,5.3225,5.3225,5.3225,5.3225,5.323,5.3225,5.3225,5.3225,5.3225,5.3225,5.3225,5.3225,5.3225,5.3225,5.3225,5.3225,5.3225,5.3225,5.3225,5.3225,5.3225,5.3225,5.3225,5.3225,5.2711,5.205,5.205,5.205,5.205,5.205,5.2601,5.3041,5.227,5.205,5.1867,5.1059,5.0875,5.0655,4.9774,4.9591,4.9334,4.8489,4.8306,4.8306,4.8379,4.8379,4.8343,4.8306,4.8306,4.8306,4.8306,4.8306,4.8306,4.8306,4.8306,4.8306,4.8306,4.8306,4.8306,4.8306,4.8306,4.8306,4.8306,4.8306,4.8306,4.8306,4.8306,4.809,4.7735,4.807,4.8029,4.76,4.8851,4.9452,4.9471,5.0356,5.0741,3.979,4.1816,4.3634,4.4131,4.4729,4.5283,4.555,4.5086,4.4586,4.4359,4.3299,4.2354,0.0,0.0,0.0,4.4386,4.6387,0.0,4.9407,5.1132,0.0,5.0912,0.0,5.1242,5.0839,5.1353,0.0,0.0,5.205,5.2564,5.3188,5.3225,5.3225,5.3225,5.3225,5.3225,5.3225,5.3225,5.3359,5.3606,5.3318,5.3225,5.3225,5.3225,5.3225,5.3225,5.3225,5.3225,5.3225,5.3225,5.3225,5.3225,5.3225,5.3225,5.3225,5.3225,5.3225,5.3225,5.3225,5.3078,5.2894,5.2894,5.2894,5.2894,5.2894,5.3041,5.3188,5.2968,5.2894,5.2711,5.1903,5.1683,5.1316,4.9921,4.9591,4.9334,4.8489,4.8306,4.8489,4.9114,4.926,4.904,4.8416,4.8306,4.8306,4.8306,4.8306,4.8306,4.8306,4.8306,4.8306,4.8306,4.8306,4.8306,4.8306,4.8306,4.8306,4.8306,4.8306,4.8306,4.8306,4.8306,4.8234,4.8126,4.855,4.8783,4.8975,4.9605,5.0074,5.0394,5.1202,5.1587,4.1295,4.2797,4.4087,4.4482,4.4849,4.5086,4.5033,4.4662,4.397,4.2838,4.18,4.0915,4.0485,4.0577,4.1456,0.0,0.0,0.0,4.9848,5.1279,5.2087,0.0,5.194,0.0,5.1867,5.227,5.2527,5.2527,5.2527,5.2711,5.3188,5.3225,5.3225,5.3225,5.3225,5.3314,5.3444,5.3314,5.34,5.3833,5.34,5.3225,5.3225,5.3225,5.3225,5.3225,5.3225,5.3225,5.3225,5.3225,5.3225,5.3225,5.3225,5.3225,5.3225,5.3225,5.3225,5.3225,5.3225,5.3225,5.3225,5.3225,5.3225,5.3225,5.3225,5.3225,5.3225,5.3225,5.3225,5.3115,5.2637,5.2527,5.2197,5.0949,5.0618,5.0398,4.9591,4.9407,4.9554,5.0031,5.0105,4.9958,4.9481,4.9114,4.8857,4.8857,4.8526,4.8306,4.8306,4.8306,4.8306,4.8306,4.8306,4.8306,4.8306,4.8306,4.8306,4.8306,4.8306,4.8306,4.8306,4.8306,4.8306,4.8306,4.8674,4.9108,4.9504,5.0266,5.0811,5.1241,5.2087,5.2472,4.2249,4.3176,4.4028,4.4519,4.4825,4.4908,4.4418,4.4124,4.3316,4.0969,4.0015,3.9477,3.9022,3.8973,4.0094,4.3514,0.0,4.7058,5.0325,5.0875,5.1536,5.3041,5.2564,5.2417,5.3151,5.3225,5.3225,5.3225,5.3225,5.3225,5.3225,5.3225,5.3225,5.3225,5.3225,5.34,5.3833,5.3444,5.3444,5.3833,5.3444,5.323,5.3225,5.3225,5.3225,5.3225,5.3225,5.3225,5.3225,5.3225,5.3225,5.3225,5.3225,5.3225,5.3225,5.3225,5.323,5.3272,5.3272,5.3272,5.3272,5.3225,5.3225,5.3225,5.3225,5.3225,5.3225,5.3225,5.3225,5.3225,5.3225,5.3225,5.3004,5.2197,5.1977,5.1756,5.0986,5.0875,5.0949,5.0839,5.0875,5.0949,5.0839,5.0215,4.9738,4.9738,4.9114,4.8636,4.8636,4.8453,4.8306,4.8306,4.8306,4.8306,4.8306,4.8306,4.8306,4.8306,4.8306,4.8306,4.8306,4.8416,4.8489,4.8489,4.8899,4.938,4.9843,5.0897,5.1606,5.2087,5.2972,5.3356,4.3057,4.3456,4.3758,4.4438,4.465,4.4621,4.4364,4.3239,0.0,0.0,3.8608,3.6978,3.7137,3.767,3.906,4.187,4.4332,4.7058,5.0325,5.1353,5.2123,0.0,5.3078,5.3078,5.3188,5.3225,0.0,0.0,5.3225,5.3225,5.3225,5.3225,5.3225,5.3225,5.3225,5.34,5.3833,5.372,5.372,5.3795,5.372,5.3487,5.3225,5.3225,5.3225,5.3225,5.3225,5.3225,5.3225,5.3225,5.3225,5.3225,5.3225,5.3225,5.3225,5.3225,5.3404,5.3683,5.3683,5.3683,5.3643,5.3314,5.3225,5.3225,5.3225,5.3225,5.3225,5.3225,5.3225,5.3225,5.3225,5.3225,5.3004,5.2197,5.1977,5.1756,5.0986,5.1316,5.161,5.0949,5.1353,5.1573,5.0912,5.0692,5.0582,5.0582,5.0472,5.0362,5.0362,4.915,4.8306,4.8306,4.8306,4.8306,4.8306,4.8306,4.8306,4.8306,4.8306,4.8306,4.8306,4.8967,4.937,4.937,5.0073,5.0823,5.1579,5.1782,5.2258,5.301,5.3857,5.428,4.3387,4.3497,4.3631,4.4184,4.4465,4.4272,4.3043,0.0,0.0,3.8969,3.7339,3.6219,3.5929,3.6976,0.0,4.0734,4.2723,4.5296,4.8967,4.9848,5.0692,5.238,5.2968,5.3225,5.3225,5.3225,5.3225,5.3225,5.3225,5.3225,5.3225,5.3225,5.3225,5.3225,5.3225,5.3484,5.4153,5.3905,5.3905,5.4153,5.3905,5.3604,5.3225,5.3225,5.3225,5.3225,5.3225,5.3225,5.3225,5.3225,5.3225,5.3225,5.3225,5.3225,5.3225,5.3225,5.3444,5.3795,5.3795,5.3535,5.3125,5.2974,5.2773,5.2637,5.3078,5.2931,5.2674,5.3078,5.3225,5.3225,5.3225,5.3225,5.3115,5.2711,5.2637,5.2527,5.2123,5.2344,5.2527,5.2123,5.238,5.2491,5.2123,5.1683,5.1426,5.1426,5.1059,5.0802,5.0802,5.0105,4.9444,4.9003,4.9334,4.926,4.8379,4.9114,4.9407,4.9003,4.937,4.9591,4.9591,4.9994,5.0215,5.0215,5.0618,5.1195,5.1994,5.2409,5.3041,5.3895,5.4741,5.5126,4.3424,4.3497,4.3563,4.3912,4.4177,4.3769,4.1732,4.1129,0.0,3.7084,3.6094,3.5575,3.4928,3.6233,3.7973,0.0,4.1151,4.3387,4.7241,4.8086,4.915,0.0,5.2454,0.0,5.3188,5.3225,0.0,5.3225,5.3225,5.3225,5.3225,5.3225,5.3225,5.3225,5.3225,5.3563,5.4322,5.4083,5.4083,5.4355,5.4083,5.3682,5.3225,5.3225,5.3225,5.3225,5.3225,5.3225,5.3225,5.3225,5.3115,5.2931,5.2931,5.2858,5.2711,5.2711,5.3006,5.3418,5.3418,5.297,5.2482,5.2482,5.2159,5.1867,5.2711,5.2491,5.216,5.2968,5.3225,5.3225,5.3225,5.3225,5.3225,5.3225,5.3225,5.3225,5.3225,5.3225,5.3225,5.3225,5.3225,5.3225,5.3225,5.2674,5.227,5.227,5.172,5.1316,5.1316,5.1316,5.1022,5.0178,5.0508,5.0288,4.8967,5.0031,5.0545,4.9884,5.0435,5.0802,5.0802,5.0986,5.1059,5.1059,5.1242,5.1714,5.2522,5.3164,5.3916,5.478,5.5395,5.5703,4.3277,4.3497,4.3563,4.3912,4.3699,4.3026,4.1618,0.0,3.7815,3.6007,3.4787,3.4012,3.3936,3.4919,3.6485,3.884,0.0,4.2353,4.5663,4.7388,4.8967,5.0692,0.0,0.0,5.3151,5.3225,5.3225,5.3225,5.3225,5.3225,5.3225,5.3225,5.3225,5.3225,5.3225,5.3404,5.3832,5.4255,5.4255,5.3869,5.4255,5.4015,5.3225,5.3225,5.3225,5.3225,5.3225,5.3225,5.3225,5.3225,5.2784,5.2087,5.2087,5.1646,5.1022,5.1022,5.1491,5.2159,5.2159,5.2121,5.2046,5.2046,5.1558,5.1059,5.1867,5.205,5.216,5.2968,5.3225,5.3225,5.3225,5.3225,5.3225,5.3225,5.3225,5.3225,5.3225,5.3225,5.3225,5.3225,5.3225,5.3225,5.3225,5.3151,5.3115,5.3115,5.3041,5.3004,5.3004,5.3004,5.2674,5.1867,5.1206,5.0729,5.0582,5.0729,5.0765,5.0692,5.0765,5.0802,5.0802,5.1499,5.1867,5.1867,5.2601,5.3419,5.4258,5.4333,5.479,5.5588,5.5665,5.5703,4.3061,4.3497,4.3529,4.366,4.3341,4.2517,4.0646,3.8899,3.7124,3.5133,3.4339,3.3935,3.3635,3.4768,3.6269,3.7877,0.0,0.0,4.3277,4.4709,4.6214,4.8343,5.0178,0.0,0.0,0.0,5.3225,5.3225,5.3225,5.3225,5.3225,5.3225,5.3225,5.3225,5.3225,5.3524,5.4221,5.4118,5.4118,5.4221,5.4118,5.3758,5.3225,5.3225,5.3225,5.3225,5.3225,5.3225,5.3188,5.2674,5.227,5.194,5.1463,5.1096,5.0802,5.0802,5.1304,5.1994,5.1994,5.1654,5.1307,5.1307,5.0362,4.9627,5.1463,5.1646,5.1536,5.2858,5.3225,5.3225,5.3225,5.3225,5.3225,5.3225,5.3225,5.3225,5.3225,5.3225,5.3225,5.3225,5.3225,5.3225,5.3225,5.3225,5.3225,5.3225,5.3225,5.3225,5.3225,5.3225,5.3078,5.2747,5.2454,5.1867,5.0875,5.1683,5.205,5.1536,5.1977,5.2234,5.2234,5.2564,5.2711,5.2711,5.3041,5.3484,5.4083,5.4355,5.479,5.535,5.5577,5.5703,4.2514,4.3314,4.3497,4.3497,4.3039,4.2033,3.9964,3.8171,3.6326,3.4249,3.3622,3.336,3.3072,3.4182,3.5514,0.0,0.0,3.8462,4.1185,4.269,4.4305,4.6507,0.0,5.0215,5.1499,5.2601,5.3115,5.2858,5.2858,5.2747,5.2485,5.2485,5.2601,5.2858,5.2858,5.3159,5.3767,5.3337,5.3337,5.3767,5.3265,5.29,5.2491,5.2491,5.2491,5.2491,5.2491,5.2491,5.2454,5.1867,5.1499,5.1206,5.0655,5.0288,5.0068,5.0068,5.056,5.1239,5.1239,5.09,5.0438,5.0438,4.9467,4.8673,5.0655,5.0875,5.0729,5.2123,5.2674,5.2894,5.3151,5.3225,5.3225,5.3225,5.3225,5.3225,5.3225,5.3225,5.3225,5.3225,5.3225,5.3225,5.3225,5.3225,5.3225,5.3225,5.3225,5.3225,5.3225,5.3225,5.3225,5.3225,5.3225,5.2747,5.161,5.2564,5.2968,5.238,5.2894,5.3225,5.3225,5.3225,5.3225,5.3225,5.3225,5.34,5.3795,5.4255,5.4701,5.5107,5.5493,5.5703,4.1525,4.2873,4.3497,4.3497,4.2746,4.1582,3.99,3.7433,3.5032,3.3276,3.2275,3.1813,3.2071,3.2825,3.3768,3.4843,3.6442,0.0,3.968,4.1992,4.4085,0.0,0.0,4.8122,5.0582,5.227,5.2858,5.205,5.2013,0.0,5.0867,5.0835,5.1206,5.1977,5.2013,5.201,5.2032,5.1615,5.1615,5.2032,5.1615,5.1195,5.0839,5.0839,5.0839,5.0839,5.0839,5.0839,0.0,5.0839,5.0325,4.9591,4.9591,4.9077,4.8343,4.8343,4.885,4.9541,4.9541,4.9541,4.9504,4.9504,4.8982,4.8489,4.9334,4.9591,4.9774,5.0582,5.1389,5.2197,5.3004,5.3225,5.3225,5.3225,5.3225,5.3225,5.3225,5.3225,5.3225,5.3225,5.3225,5.3225,5.3225,5.3225,5.3225,5.3225,5.3225,5.3225,5.3225,5.3225,5.3225,5.3225,5.3225,5.3188,5.3188,5.3188,5.3225,5.3188,5.3225,5.3225,5.3225,5.3225,5.3225,5.3225,5.3225,5.34,5.3795,5.4255,5.4701,5.5107,5.5493,5.5703,3.8062,3.9743,4.0781,3.9643,3.9158,3.8738,3.8023,3.5869,3.3781,3.307,3.2275,3.1621,3.1334,3.1977,3.3306,3.5547,3.6316,0.0,0.0,0.0,0.0,4.4888,4.7279,4.9334,0.0,0.0,5.1422,5.1197,5.1165,5.1096,5.0798,5.0802,5.0908,5.1161,5.1165,5.1454,5.1994,5.1578,5.1578,5.1994,5.1544,5.1158,5.0802,5.0802,5.0802,5.0802,5.0802,5.0802,5.0765,5.0215,4.9811,4.9517,4.893,4.8526,4.8306,4.8306,4.864,4.9139,4.9416,4.9326,4.9139,4.9416,4.8982,4.8343,4.8636,4.9114,4.9738,5.0582,5.0986,5.1353,5.216,5.238,5.2527,5.3078,5.3225,5.3225,5.3225,5.3225,5.3225,5.3225,5.3225,5.3225,5.3225,5.3225,5.3225,5.3225,5.3225,5.3225,5.3225,5.3225,5.3225,5.3225,5.3225,5.3225,5.3225,5.3225,5.3225,5.3225,5.3225,5.3225,5.3225,5.3225,5.3225,5.3225,5.3225,5.3272,5.34,5.4156,5.4848,5.5493,5.5621,5.6011,3.5116,3.7275,3.8574,3.788,3.7434,3.7108,3.6686,3.4771,3.2914,3.2519,3.1775,3.1161,3.0918,3.1336,3.2367,3.4363,3.5184,3.6567,0.0,0.0,0.0,4.4448,0.0,0.0,0.0,5.0398,5.0692,5.035,5.0358,5.0215,4.9884,4.9848,4.9845,4.9841,5.0215,5.0528,5.0836,5.0542,5.0542,5.0836,5.0542,5.0231,4.9848,4.9848,4.9848,4.9848,4.9848,4.9848,0.0,4.9334,4.9114,4.904,4.8526,4.8306,4.8306,4.8306,4.8532,4.8945,4.9356,4.9234,4.8945,4.9356,4.8982,4.8306,4.8306,4.8673,4.926,5.0105,5.0362,5.0508,5.1353,5.1536,5.1756,5.2564,5.2747,5.2821,5.3151,5.3225,5.3225,5.3225,5.3225,5.3225,5.3225,5.3225,5.3225,5.3225,5.3225,5.3225,5.3225,5.3225,5.3225,5.3225,5.3225,5.3225,5.3225,5.3225,5.3225,5.3225,5.3225,5.3225,5.3225,5.3225,5.3225,5.3225,5.3225,5.3225,5.3225,5.4086,5.5095,5.6203,5.6203,5.6665,0.0,3.4906,3.6555,3.7205,3.6787,3.61,3.5597,3.3885,0.0,3.1802,3.0994,3.0509,3.0918,3.0941,3.1202,3.2133,3.3517,3.5331,0.0,3.9656,0.0,0.0,4.6874,0.0,4.8306,4.9703,5.0328,4.9581,4.9511,4.9148,4.8343,4.8306,4.8306,4.8306,4.9077,4.9307,4.8915,4.8878,4.8878,4.8878,4.8878,4.8674,4.8306,4.8306,4.8306,4.8306,4.8306,4.8306,4.8306,4.8306,4.8306,4.8306,4.8306,4.8306,4.8306,4.8306,4.8532,4.8911,4.9356,4.9202,4.8911,4.9295,4.8915,4.8306,4.8306,4.8306,4.8489,4.926,4.9481,4.9664,5.0508,5.0729,5.0949,5.1793,5.1977,5.2197,5.3041,5.3225,5.3225,5.3225,5.3225,5.3225,5.3225,5.3225,5.3225,5.3225,5.3225,5.3225,5.3225,5.3225,5.3225,5.3225,5.3225,5.3225,5.3225,5.3225,5.3225,5.3225,5.3225,5.3225,5.3225,5.3225,5.3225,5.3225,5.3225,5.3188,5.323,5.4086,5.5361,5.695,5.6973,5.7511,2.5449,0.0,3.1352,3.124,3.1482,3.1908,0.0,3.1576,3.0941,3.131,3.0881,3.0688,3.1618,3.1318,3.1863,3.4801,3.5726,3.7077,3.9977,4.2813,0.0,4.5553,4.7204,4.8306,4.8306,4.8636,4.882,4.8634,4.8598,4.8526,4.8306,4.8306,4.8306,4.8306,4.8489,4.8679,4.8915,4.8878,4.8878,4.8878,4.8878,4.8674,4.8306,4.8306,4.8306,4.8306,4.8306,4.8306,4.8306,4.8306,4.8306,4.8306,4.8306,4.8306,4.8306,4.8306,4.8382,4.8532,4.9265,4.9048,4.8458,4.8532,4.8458,4.8306,4.8306,4.8306,4.8343,4.8563,4.86,4.8783,4.9664,4.9884,5.0215,5.1646,5.1977,5.2197,5.3041,5.3225,5.3225,5.3225,5.3225,5.3225,5.3225,5.3225,5.3225,5.3225,5.3225,5.3225,5.3225,5.3225,5.3225,5.3225,5.3225,5.3225,5.3225,5.3225,5.3225,5.3225,5.3225,5.3225,5.3225,5.3225,5.3225,5.3225,5.3225,5.3359,5.3644,5.4221,5.5215,5.6563,5.6883,5.778,2.2263,2.5466,2.849,2.861,2.9035,2.9686,3.0359,2.9856,2.9506,0.0,0.0,3.0476,3.1391,3.1506,3.222,3.4507,3.5897,3.7721,0.0,0.0,4.592,4.592,4.7314,4.8306,0.0,4.8306,4.8306,4.8306,4.8306,4.8122,4.7794,4.7756,4.7609,4.7205,4.7205,4.7647,4.864,4.8813,4.8813,4.864,4.8813,4.8674,4.8306,4.8306,4.8306,4.8306,4.8306,4.8306,4.8306,4.8306,4.8306,4.8306,4.8306,4.8306,4.8306,4.8306,4.8306,4.8383,4.9011,4.8949,4.8532,4.8382,4.8306,4.8306,4.8306,4.8306,4.8306,4.8306,4.8306,4.8416,4.8893,4.9003,4.9407,5.1059,5.1463,5.1756,5.2968,5.3225,5.3225,5.3225,5.3225,5.3225,5.3225,5.3225,5.3225,5.3225,5.3225,5.3225,5.3225,5.3225,5.3225,5.3225,5.3225,5.3225,5.3225,5.3225,5.3225,5.3225,5.3225,5.3225,5.3225,5.3225,5.3225,5.3225,5.3225,5.34,5.3795,5.4664,5.5716,5.6965,5.7757,5.8858,2.1209,2.3937,2.6657,2.7334,2.7842,2.8334,2.8969,0.0,0.0,0.0,0.0,0.0,3.1307,3.2127,0.0,3.3882,0.0,0.0,4.1288,4.398,4.5736,4.5736,4.7021,0.0,4.7939,4.7939,4.7939,4.7939,4.7939,4.7646,4.6948,4.6948,4.6618,4.5918,4.592,4.6544,4.7939,4.827,4.827,4.7939,4.8305,4.8344,4.8122,4.8122,4.8196,4.8306,4.8306,0.0,4.8306,4.8306,4.8306,4.8306,4.8306,4.8306,4.8306,4.8306,4.8306,4.8344,4.8674,4.8915,4.8949,4.8458,4.8306,4.8306,4.8306,4.8306,4.8306,4.8306,4.8306,4.8306,4.8306,4.8306,4.871,5.0398,5.0802,5.1242,5.2858,5.3225,5.3225,5.3225,5.3225,5.3225,5.3225,5.3225,5.3225,5.3225,5.3225,5.3225,5.3225,5.3225,5.3225,5.3225,5.3225,5.3225,5.3225,5.3225,5.3225,5.3225,5.3225,5.3225,5.3225,5.3225,5.3225,5.3225,5.3225,5.3359,5.372,5.5044,5.633,5.753,5.8884,5.9973,2.1302,2.2854,2.4249,2.4664,2.5654,2.6634,2.6894,0.0,0.0,0.0,0.0,0.0,0.0,3.4639,3.5819,0.0,0.0,4.0924,0.0,0.0,4.4892,4.4892,0.0,4.6287,4.6287,4.6287,4.6287,4.6287,4.6287,4.6214,4.6067,4.6104,4.603,4.5918,4.592,4.603,4.6287,4.6323,4.6323,4.6287,4.6323,4.6691,4.7278,4.7278,4.7682,4.8306,0.0,4.8306,4.8306,4.8306,4.8306,4.8306,4.8306,4.8306,4.8306,4.8306,4.8306,4.8306,4.8345,4.8847,4.9295,4.8532,4.8306,4.8306,4.8306,4.8306,4.8306,4.8306,4.8306,4.8306,4.8306,4.8306,4.871,5.0398,5.0802,5.1242,5.2858,5.3225,5.3225,5.3225,5.3225,5.3225,5.3225,5.3225,5.3225,5.3225,5.3225,5.3225,5.3225,5.3225,5.3225,5.3225,5.3225,5.3225,5.3225,5.3225,5.3225,5.3225,5.3225,5.3225,5.3225,5.3225,5.3225,5.3225,5.3225,5.323,5.3314,5.4905,5.6172,5.71,5.8745,5.9973,2.0363,2.1655,2.2813,2.3271,2.4927,2.6641,2.7595,0.0,0.0,0.0,0.0,0.0,0.0,0.0,3.7925,4.0246,0.0,4.2046,4.2996,4.4053,4.4709,0.0,0.0,4.5883,4.5883,4.5883,4.5883,4.5883,4.5883,4.5736,4.5297,4.5223,4.5039,4.4597,4.4597,4.4599,4.4599,4.4599,4.5039,4.5883,4.5883,4.6104,4.6471,4.6471,4.6654,4.6985,0.0,4.6985,4.7058,4.7498,4.7645,4.7719,4.8122,4.8306,4.8306,4.8306,4.8421,4.8604,4.8382,4.8674,4.9075,4.8495,4.8306,4.8306,4.8306,4.8306,4.8306,4.8306,4.8306,4.8306,4.8306,4.8306,4.86,4.9848,5.0472,5.1132,5.2307,5.2894,5.3225,5.3225,5.3225,5.3225,5.3225,5.3225,5.3225,5.3225,5.3225,5.3225,5.3225,5.3225,5.3225,5.3225,5.3225,5.3225,5.3225,5.3225,5.3225,5.3225,5.3225,5.3225,5.3225,5.3225,5.3225,5.3225,5.3225,5.3408,5.3849,5.5581,5.6819,5.7683,5.9408,6.0435,2.0064,2.1127,2.2248,2.2829,2.4656,2.6785,2.8557,0.0,0.0,0.0,0.0,0.0,0.0,3.7826,0.0,4.2202,4.2585,4.2805,4.3424,4.4011,4.4415,4.4415,4.4966,4.5333,4.5333,4.5333,4.5333,4.5333,4.5333,4.5076,4.4452,4.4415,4.4158,4.3497,4.3497,4.3497,4.3497,4.3497,4.4121,4.5333,4.5333,4.5443,4.5626,4.5626,4.5736,4.5883,4.5883,4.5883,4.5957,4.6581,4.6838,4.6911,4.7719,4.8122,4.8306,4.8306,4.8604,4.8945,4.8495,4.864,4.8945,4.8458,4.8306,4.8306,4.8306,4.8306,4.8306,4.8306,4.8306,4.8306,4.8306,4.8306,4.8526,4.937,5.0215,5.1022,5.183,5.2637,5.3225,5.3225,5.3225,5.3225,5.3225,5.3225,5.3225,5.3225,5.3225,5.3225,5.3225,5.3225,5.3225,5.3225,5.3314,5.3318,5.3318,5.3272,5.3225,5.3225,5.3225,5.3225,5.3225,5.3225,5.3225,5.3225,5.3408,5.3775,5.4399,5.6331,5.7574,5.8216,5.9982,6.0781,2.1549,2.2199,2.2825,2.3564,2.4582,0.0,2.8596,3.0213,0.0,3.4554,0.0,0.0,0.0,3.9666,4.1455,4.3167,4.3424,4.3424,4.3497,0.0,4.3571,4.3571,4.3644,4.3644,4.3644,4.3644,4.3644,4.3644,4.3644,4.3644,4.3571,4.3571,4.3534,4.3497,4.3497,4.3497,4.3497,4.3497,4.3534,4.3644,4.3644,4.4048,4.4782,4.4782,4.5186,4.5883,4.5883,4.5883,4.5883,4.5957,4.5993,4.6067,4.6874,4.7645,4.8306,4.8306,4.8779,4.9356,4.8568,4.8813,4.9326,4.8532,4.8306,4.8306,4.8306,4.8306,4.8306,4.8306,4.8306,4.8306,4.8306,4.8306,4.8526,4.937,5.0215,5.1022,5.183,5.2637,5.3225,5.3225,5.3225,5.3225,5.3225,5.3225,5.3225,5.3225,5.3225,5.3225,5.3225,5.3225,5.3225,5.3225,5.3526,5.3758,5.3758,5.3404,5.3225,5.3225,5.3225,5.3225,5.3225,5.3225,5.3225,5.3225,5.3922,5.4326,5.4399,5.6892,5.814,5.8216,5.9982,6.0781,2.0872,2.1657,2.2438,2.3423,0.0,0.0,0.0,0.0,0.0,3.8164,4.0251,0.0,0.0,0.0,4.2072,4.2653,4.3167,4.3497,4.3497,4.3497,4.3497,4.3497,4.3497,4.3497,4.3497,4.3497,4.3497,4.3497,4.3497,4.3497,4.3497,4.3497,4.3497,4.3497,4.3497,4.3497,4.3497,4.3497,4.3497,4.3497,4.3497,4.3644,4.3938,4.3938,4.4121,4.4415,4.4415,4.4415,4.4452,4.4966,4.5149,4.5223,4.603,4.6874,4.7572,4.7572,4.8404,4.9386,4.8568,4.8813,4.9356,4.8568,4.8306,4.8306,4.8306,4.8306,4.8306,4.8306,4.8495,4.864,4.8345,4.8306,4.8379,4.871,4.9444,5.0251,5.1059,5.1903,5.2601,5.3115,5.3225,5.3225,5.3225,5.3225,5.3225,5.3225,5.3225,5.3225,5.3225,5.3225,5.3225,5.3225,5.3318,5.3563,5.3796,5.3404,5.3225,5.3225,5.3225,5.3225,5.3225,5.3225,5.3445,5.3959,5.4252,5.4876,5.5904,5.7417,5.848,5.8971,6.0212,6.0781,2.0587,2.1304,2.2072,0.0,0.0,0.0,0.0,0.0,0.0,4.0954,4.2248,0.0,4.2862,0.0,0.0,0.0,4.313,4.3463,4.325,4.325,4.325,4.325,4.325,4.3356,4.3627,4.3563,4.3529,4.3664,4.3563,4.3497,4.3497,4.3497,4.3497,4.3497,4.3497,4.3497,4.3497,4.3497,4.3497,4.3497,4.3497,4.3497,4.3497,4.3497,4.3428,4.325,4.325,4.3142,4.3032,4.3539,4.4052,4.4492,4.504,4.5846,4.6728,4.6728,4.7586,4.8633,4.8087,4.8441,4.898,4.8458,4.8306,4.8306,4.8306,4.8306,4.8306,4.8306,4.8604,4.8847,4.8568,4.8495,4.8495,4.8495,4.9045,4.9811,5.0618,5.1426,5.2234,5.3041,5.3225,5.3225,5.3225,5.3225,5.3225,5.3225,5.3225,5.3225,5.3225,5.3225,5.3314,5.3602,5.3484,5.3526,5.3977,5.3643,5.3318,5.3225,5.3225,5.3225,5.3225,5.3445,5.3849,5.4399,5.4913,5.5721,5.6822,5.7978,5.8861,5.9424,6.0365,6.0781,2.1029,2.1304,2.1902,0.0,0.0,0.0,3.3543,0.0,3.8457,4.2511,0.0,4.2648,4.4285,4.2701,0.0,4.3204,4.3497,4.3321,4.277,4.2693,4.2693,4.2693,4.2693,4.3032,4.3906,4.3693,4.3664,4.3967,4.3693,4.3497,4.3497,4.3497,4.3497,4.3497,4.3497,4.3497,4.3497,4.3497,4.3497,4.3497,4.3497,4.3497,4.3497,4.3497,4.3214,4.2693,4.2693,4.2342,4.181,4.181,4.2608,4.3888,4.3888,4.4705,4.5883,4.5883,4.6359,4.7015,4.7089,4.7586,4.8227,4.8273,4.8306,4.8306,4.8306,4.8306,4.8306,4.8306,4.8604,4.8915,4.8915,4.8878,4.8878,4.8878,4.927,4.9774,5.0618,5.1426,5.2234,5.3041,5.3188,5.3225,5.3225,5.3225,5.3225,5.3225,5.3225,5.3225,5.3225,5.3225,5.3524,5.4387,5.4083,5.3977,5.4452,5.4083,5.3643,5.323,5.3225,5.3225,5.3225,5.3959,5.4399,5.4399,5.5978,5.6822,5.6822,5.854,5.9389,5.9424,6.0365,6.0781,2.0665,2.1545,0.0,2.4456,0.0,0.0,0.0,3.7613,0.0,0.0,4.417,4.3832,4.3718,4.3193,0.0,4.2653,4.313,4.3321,4.277,4.2693,4.2693,4.2693,4.2693,4.3032,4.3906,4.3912,4.3912,4.3967,4.3912,4.3758,4.3532,4.3497,4.3497,4.3497,4.3497,4.3497,4.3497,4.3497,4.3497,4.3497,4.3497,4.3497,4.3497,4.3497,4.3214,4.2693,4.2693,4.2342,4.181,4.181,4.2037,4.246,4.2901,4.364,4.4558,4.4931,4.5716,4.662,4.6356,4.6567,4.7037,4.7353,4.7462,4.7572,4.8122,4.8306,4.8306,4.8306,4.8779,4.9326,4.9326,4.9532,4.9589,4.9043,4.8999,4.9268,4.9816,5.0582,5.1389,5.2197,5.2821,5.3225,5.3225,5.3225,5.3225,5.3225,5.3225,5.3225,5.3225,5.3225,5.3524,5.4387,5.4083,5.3977,5.4452,5.4083,5.3643,5.323,5.3225,5.3225,5.3225,5.3959,5.4656,5.5207,5.6271,5.7079,5.7629,5.8839,5.9389,5.9424,6.0365,6.0781,2.0655,2.1713,0.0,2.5827,2.8037,3.1112,3.7032,0.0,0.0,0.0,4.4583,4.402,4.3869,4.3379,0.0,4.28,4.3167,4.325,4.2462,4.2342,4.2342,4.2342,4.2342,4.2849,4.4117,4.4087,4.4058,4.4233,4.4087,4.3849,4.3532,4.3497,4.3497,4.3497,4.3497,4.3497,4.3497,4.3497,4.3497,4.3497,4.3497,4.3497,4.3497,4.3497,4.3069,4.2302,4.1853,4.1464,4.1105,4.1105,4.1241,4.1473,4.2139,4.2785,4.3493,4.4017,4.4761,4.5494,4.5436,4.5685,4.6057,4.6469,4.6838,4.7205,4.7682,4.8049,4.8306,4.8306,4.8881,4.9504,4.9504,4.9924,5.0135,4.9326,4.9011,4.9002,4.9487,5.0215,5.1059,5.183,5.2637,5.3225,5.3225,5.3225,5.3225,5.3225,5.3225,5.3225,5.3225,5.3225,5.3524,5.4387,5.4255,5.4255,5.4701,5.4355,5.3906,5.3484,5.3608,5.3702,5.3702,5.4436,5.5244,5.6051,5.6859,5.7519,5.7997,5.8793,5.9212,5.9424,6.0161,6.0622,2.0767,2.1757,2.3576,2.6896,2.9042,0.0,3.8099,4.2022,4.4511,4.4966,0.0,4.3681,4.4448,4.3409,4.2653,4.3387,4.3497,4.3105,4.1979,4.181,4.181,4.181,4.181,4.2551,4.4428,4.4261,4.4204,4.4624,4.4261,4.3912,4.3563,4.3532,4.3461,4.3387,4.3422,4.3422,4.3422,4.3422,4.3458,4.3497,4.3497,4.3497,4.3497,4.3497,4.2885,4.1768,4.0611,4.0087,4.0087,4.0087,4.0368,4.092,4.1473,4.2062,4.2693,4.3214,4.366,4.4023,4.4444,4.4801,4.5138,4.5622,4.6287,4.6911,4.7095,4.7609,4.8233,4.8269,4.8881,4.9504,4.9504,5.0111,5.0504,4.9765,4.9265,4.9071,4.9453,5.0144,5.0949,5.172,5.2527,5.3115,5.3188,5.3225,5.3225,5.3225,5.3225,5.3225,5.3225,5.323,5.3563,5.4387,5.4516,5.4701,5.508,5.4731,5.4288,5.3832,5.4179,5.4436,5.4509,5.528,5.6051,5.6785,5.7593,5.7997,5.7997,5.8503,5.8951,5.9389,5.9885,6.0338,1.9943,2.1734,0.0,0.0,3.2217,3.6395,3.8223,4.0742,4.3014,4.441,4.4525,4.4398,4.4587,4.3862,4.3277,4.3461,4.3497,4.3105,4.1979,4.181,4.181,4.181,4.181,4.2551,4.4428,4.4508,4.4624,4.4966,4.4663,4.429,4.3912,4.3664,4.3238,4.261,4.2537,4.257,4.257,4.257,4.2868,4.3497,4.3497,4.3497,4.3497,4.3497,4.2885,4.1768,4.0611,4.0087,4.0087,4.0087,4.0154,4.0319,4.0874,4.1429,4.2062,4.2655,4.3178,4.3634,4.3716,4.3823,4.4002,4.4744,4.5076,4.548,4.6728,4.7241,4.7498,4.8122,4.8881,4.9504,4.9504,5.0111,5.0584,5.0111,4.9645,4.9302,4.9105,4.9492,5.0105,5.0912,5.172,5.2454,5.3115,5.3225,5.3225,5.3225,5.3225,5.3225,5.3225,5.3484,5.3906,5.442,5.476,5.5026,5.5107,5.4731,5.4288,5.3832,5.4179,5.4693,5.5317,5.6124,5.6638,5.6822,5.7593,5.7997,5.7997,5.8503,5.8951,5.9389,5.9885,6.0338,1.9781,0.0,0.0,2.9426,0.0,3.7431,3.8183,3.9769,4.1515,4.2866,4.3792,4.4318,4.4318,4.3886,4.3497,4.3497,4.3497,4.3178,4.2342,4.1979,4.1895,4.2221,4.1979,4.2474,4.4138,4.4519,4.4676,4.4849,4.4285,4.3826,4.3431,4.2738,4.2139,4.1732,4.1728,4.1724,4.1724,4.1735,4.1922,4.2356,4.2729,4.3133,4.3497,4.2922,4.2346,4.1768,4.0611,4.0087,4.0087,4.0087,4.0087,4.0154,4.0685,4.1251,4.1895,4.2498,4.3069,4.3497,4.3497,4.3497,4.3571,4.3975,4.4378,4.4929,4.6177,4.6801,4.7278,4.8086,4.8881,4.9504,4.9504,5.0111,5.0644,5.044,5.0087,4.9617,4.9011,4.9377,4.9897,5.0181,5.1169,5.2123,5.2564,5.2931,5.3225,5.3225,5.3225,5.3225,5.3225,5.34,5.3796,5.4609,5.4876,5.5107,5.5375,5.5026,5.4609,5.4153,5.4501,5.4991,5.5537,5.6381,5.6969,5.7373,5.7776,5.7997,5.7997,5.8238,5.8716,5.9389,5.9625,6.0132,1.9482,0.0,2.6091,3.1188,3.4466,0.0,3.7932,3.9008,4.002,4.1082,4.2515,4.3588,4.3588,4.3319,4.3094,4.3094,4.3094,4.2883,4.2258,4.1711,4.1547,4.1988,4.167,4.1962,4.3392,4.3895,4.4197,4.4321,4.358,4.2987,4.2688,4.1693,4.1038,4.0928,4.0887,4.0882,4.0914,4.0903,4.0939,4.1098,4.1779,4.2479,4.3103,4.2092,4.1676,4.1768,4.0611,4.0087,4.0087,4.0087,4.0087,4.0154,4.0577,4.1196,4.1853,4.2342,4.2958,4.3497,4.3497,4.3497,4.3497,4.3497,4.3938,4.4635,4.5443,4.625,4.7058,4.7865,4.877,4.9504,4.9504,5.0111,5.0702,5.0702,5.0462,4.9974,4.9171,4.9471,4.9856,4.9634,5.0875,5.205,5.216,5.2747,5.3225,5.3225,5.3225,5.3225,5.3225,5.3225,5.3604,5.479,5.496,5.5212,5.5643,5.535,5.4905,5.4516,5.4797,5.5201,5.5581,5.6381,5.7189,5.796,5.7997,5.7997,5.7997,5.7997,5.8503,5.9389,5.9389,5.9916,1.8115,0.0,2.729,0.0,3.3584,3.5249,0.0,0.0,3.8902,0.0,4.1074,4.1903,4.1903,4.1656,4.1442,4.1442,4.1442,4.1065,4.0068,3.9833,3.967,3.9293,3.9588,4.0308,4.1526,4.2156,4.2686,4.3271,4.2639,4.2234,4.2184,4.1482,4.0781,4.0084,4.0047,4.0073,4.0062,4.0068,4.0394,4.1108,4.1196,4.1397,4.1643,4.1042,4.112,4.1768,4.0611,4.0087,4.0087,4.0087,4.0087,4.0138,4.0154,4.0861,4.181,4.1895,4.2619,4.3497,4.3497,4.3497,4.3497,4.3497,4.3571,4.3791,4.4635,4.5443,4.6214,4.7058,4.8323,4.9504,4.9504,5.0111,5.0702,5.0702,5.0644,5.038,4.9589,4.9214,4.915,4.9524,5.0875,5.2197,5.2931,5.3151,5.3225,5.3225,5.3225,5.3225,5.3225,5.3225,5.3604,5.479,5.5326,5.5621,5.5703,5.535,5.4905,5.4516,5.4797,5.5201,5.5581,5.6381,5.7189,5.796,5.7997,5.7997,5.7997,5.7997,5.8503,5.9389,5.9389,5.9916,2.0224,2.365,2.7297,0.0,3.2476,3.3857,3.603,3.6821,3.747,3.8935,3.9614,4.0251,4.1139,4.1204,4.1111,4.1111,4.1111,4.0943,4.0456,3.9902,3.9669,4.0016,3.9711,3.9944,4.1083,4.1761,4.2229,4.2536,4.1859,4.1415,4.1415,4.0354,3.9606,3.9239,3.9239,3.9234,3.9228,3.9228,3.9632,4.0446,4.0419,4.0547,4.078,4.0659,4.0867,4.1251,4.0466,4.0087,4.0087,4.0087,4.0087,4.0087,4.0087,4.0577,4.134,4.1682,4.2306,4.3105,4.3428,4.3497,4.3497,4.3497,4.3497,4.3644,4.4452,4.4966,4.548,4.6764,4.7782,4.8671,4.9332,4.9924,5.044,5.0644,5.0702,5.0504,4.9872,4.9475,4.9305,4.9525,5.0545,5.1536,5.2197,5.2821,5.3225,5.3225,5.3225,5.3225,5.3225,5.3225,5.3758,5.5212,5.5577,5.5703,5.5703,5.5554,5.516,5.4516,5.4627,5.4951,5.5581,5.5941,5.6712,5.796,5.7997,5.7997,5.7997,5.7997,5.8503,5.9389,5.9389,5.9916,0.0,0.0,2.5891,2.9331,3.0943,3.2388,0.0,0.0,3.6185,0.0,3.8395,3.8836,4.023,4.0487,4.0487,4.0487,4.0487,4.0423,4.0288,3.9516,3.9218,4.0015,3.9369,3.9332,4.0317,4.1054,4.1491,4.1562,4.0972,4.0547,4.0547,3.9389,3.8689,3.8689,3.8689,3.8689,3.8689,3.8689,3.9025,3.9589,3.946,3.9496,3.9808,3.9811,4.0032,4.0418,4.0186,4.0087,4.0087,4.0087,4.0087,4.0087,4.0087,4.0417,4.0978,4.1595,4.218,4.277,4.3321,4.3497,4.3497,4.3497,4.3497,4.3608,4.4195,4.4562,4.5002,4.6397,4.7235,4.797,4.9198,4.9819,5.0183,5.0483,5.0563,5.0402,4.9924,4.9475,4.9309,4.9562,5.0333,5.1072,5.154,5.2491,5.3225,5.3225,5.3225,5.3225,5.3225,5.3225,5.3833,5.5493,5.5703,5.5703,5.5703,5.5703,5.5399,5.4701,5.4547,5.4868,5.5723,5.5662,5.6345,5.796,5.7997,5.7997,5.7997,5.7997,5.8503,5.9389,5.9389,5.9916,0.0,2.1053,0.0,2.6432,2.8833,3.0848,0.0,0.0,3.5364,3.718,3.7551,3.7808,3.8689,3.8836,3.8836,3.8836,3.8836,3.8643,3.814,3.7649,3.7352,3.7427,3.7352,3.765,3.8449,3.9261,3.9845,4.0195,3.9851,3.9656,3.9656,3.9027,3.8689,3.8689,3.8689,3.8689,3.8689,3.8689,3.8726,3.8762,3.8261,3.812,3.8413,3.7912,3.8193,3.911,3.98,4.0087,4.0087,4.0087,4.0087,4.0087,4.0087,4.0417,4.0978,4.1595,4.218,4.277,4.3321,4.3497,4.3497,4.3497,4.3497,4.3497,4.3534,4.4085,4.4892,4.5736,4.6792,4.797,4.9198,4.9819,5.0111,5.0135,5.0135,4.9999,4.9589,4.8915,4.864,4.9446,5.0565,5.1417,5.1581,5.2491,5.3225,5.3225,5.3225,5.3225,5.3225,5.3225,5.3833,5.5493,5.5703,5.5703,5.5703,5.5703,5.5531,5.5107,5.4701,5.5006,5.6102,5.5797,5.6345,5.796,5.7997,5.7997,5.7997,5.7997,5.8503,5.9389,5.9389,5.9916,0.0,0.0,0.0,2.4544,2.6343,2.8174,3.0593,3.2329,3.3797,3.5266,3.6193,3.6817,3.711,3.7991,3.8689,3.8689,3.8689,3.8627,3.8433,3.7964,3.7791,3.8135,3.7861,3.7893,3.8517,3.9186,3.9557,3.9462,3.9044,3.8983,3.9252,3.8395,3.8175,3.8689,3.8689,3.8689,3.8689,3.8689,3.8501,3.8174,3.7995,3.7605,3.7101,3.7387,3.7536,3.7678,3.8839,3.9649,4.0087,4.0087,4.0087,4.0087,4.0087,4.0204,4.0466,4.1013,4.134,4.1647,4.2657,4.2995,4.3069,4.3393,4.3497,4.3497,4.3497,4.3681,4.4195,4.5516,4.6211,4.7006,4.8987,4.9416,4.9416,4.9645,4.9326,4.8982,4.9075,4.8711,4.8456,4.9047,4.9899,5.0787,5.17,5.2601,5.3225,5.3225,5.3225,5.3225,5.3225,5.3225,5.3833,5.5493,5.5703,5.5703,5.5703,5.5703,5.5785,5.5897,5.5496,5.5795,5.6999,5.6614,5.6895,5.796,5.7997,5.7997,5.7997,5.7997,5.8503,5.9389,5.9389,5.9916,1.7731,0.0,0.0,0.0,2.3978,2.5542,2.8356,3.0169,3.1746,3.3719,3.4812,3.5642,3.6193,3.7184,3.7881,3.7881,3.7881,3.7881,3.7881,3.7435,3.7268,3.7827,3.7443,3.7311,3.7827,3.8339,3.8539,3.8324,3.8003,3.7952,3.8287,3.7525,3.7331,3.7881,3.8175,3.8285,3.8285,3.8579,3.8405,3.79,3.7711,3.7214,3.6412,3.674,3.6842,3.6877,3.8085,3.9039,3.9749,3.9986,4.0087,4.0087,4.0087,4.0087,4.0154,4.0685,4.092,4.1024,4.2021,4.2537,4.2732,4.3142,4.3356,4.3497,4.3497,4.3497,4.3828,4.5443,4.5883,4.6394,4.8727,4.9108,4.8945,4.9234,4.8779,4.8345,4.864,4.8495,4.8421,4.8813,4.9668,5.048,5.1066,5.2519,5.3524,5.323,5.3225,5.3225,5.3225,5.3225,5.3833,5.5493,5.5703,5.5703,5.5703,5.5703,5.5961,5.6575,5.6159,5.6512,5.7898,5.736,5.7426,5.8238,5.8051,5.7997,5.7997,5.7997,5.8503,5.9389,5.9389,5.9916,0.0,0.0,0.0,0.0,0.0,0.0,2.669,0.0,2.9228,3.2475,3.3423,3.4211,3.5862,3.6156,3.6193,3.6193,3.6229,3.6303,3.6303,3.5836,3.5711,3.6259,3.5833,3.5738,3.623,3.6538,3.6703,3.667,3.6684,3.6684,3.6696,3.6427,3.6303,3.6303,3.7037,3.7441,3.7441,3.8248,3.8368,3.7828,3.7431,3.6911,3.6378,3.5836,3.6017,3.6808,3.7535,3.8286,3.9005,3.9783,4.0087,4.0087,4.0138,4.0138,4.0204,4.0733,4.092,4.1013,4.1595,4.218,4.2655,4.2693,4.3069,4.3497,4.3497,4.3497,4.3828,4.5443,4.5883,4.636,4.8404,4.8878,4.8878,4.8878,4.8604,4.8306,4.8306,4.8306,4.8421,4.8813,4.994,5.0514,4.9683,5.2296,5.419,5.3355,5.3225,5.3225,5.3225,5.3225,5.3833,5.5493,5.5703,5.5703,5.5703,5.5703,5.6088,5.6973,5.6652,5.7167,5.8768,5.8008,5.7933,5.8716,5.8238,5.8042,5.8042,5.7997,5.8503,5.9389,5.9424,5.9916,1.6725,0.0,0.0,0.0,0.0,0.0,0.0,0.0,2.6648,2.8998,3.0377,3.1531,3.258,3.323,3.3623,3.3623,3.5128,3.6303,3.6303,3.6179,3.615,3.6274,3.6193,3.6163,3.6311,3.6528,3.6599,0.0,3.6073,3.5987,3.6362,3.6323,3.6303,3.6303,3.6523,3.6633,3.6633,3.7404,3.7362,3.6469,3.6985,3.67,3.5836,3.5656,3.5723,3.5983,3.6774,3.7524,3.8303,3.9562,4.0087,4.0104,4.0528,4.072,4.0733,4.1375,4.1251,4.1013,4.1595,4.1603,4.1516,4.2422,4.277,4.2958,4.3356,4.3497,4.3828,4.5443,4.5883,4.636,4.8404,4.8878,4.8878,4.8878,4.8604,4.8306,4.8306,4.8306,4.8421,4.8813,4.9421,4.9976,5.0329,5.214,5.3481,5.323,5.3225,5.3225,5.3225,5.3225,5.3833,5.5493,5.5703,5.5703,5.5703,5.5703,5.6319,5.7857,5.7506,5.8006,5.9684,5.9185,5.8986,5.9212,5.8753,5.8545,5.8545,5.8186,5.8503,5.9424,6.0103,6.0533,0.0,0.0,0.0,0.0,0.0,0.0,2.1537,2.2988,2.4537,0.0,2.8268,2.9549,3.0674,3.1286,3.1689,3.2045,3.3303,3.4477,3.5165,3.5238,3.5238,3.5238,3.5238,3.5238,3.5238,3.542,3.5446,3.5266,3.4977,3.4929,3.5266,3.5238,3.5238,3.5238,3.5569,3.5752,3.5752,3.656,3.6608,3.5895,3.64,3.6291,3.5622,3.5622,3.5622,3.5656,3.6446,3.724,3.7984,3.9156,3.9833,4.0154,4.0664,4.0897,4.0978,4.1595,4.1385,4.0932,4.1296,4.1161,4.1059,4.2021,4.2462,4.277,4.3321,4.3321,4.347,4.4967,4.5883,4.6801,4.8479,4.8779,4.8674,4.8881,4.8604,4.8306,4.8306,4.8306,4.8421,4.8813,4.9075,4.9671,5.0964,5.2021,5.2787,5.3157,5.3225,5.3225,5.3225,5.3796,5.4602,5.5599,5.5703,5.5703,5.5703,5.5703,5.6434,5.8204,5.8016,5.8642,6.0315,5.9946,5.9658,5.9658,5.9065,5.8713,5.8713,5.8238,5.8503,5.9424,6.0365,6.0781,0.0,0.0,0.0,0.0,0.0,0.0,2.1412,2.2077,2.2801,0.0,2.6646,2.7948,2.9512,2.9855,3.0186,3.087,3.1151,3.181,3.333,3.3623,3.366,3.366,3.3733,3.3807,3.3807,3.3807,3.3807,3.3807,3.3807,3.3807,3.3807,3.3807,3.3807,3.3807,3.4504,3.4844,3.4844,3.5716,3.6028,3.5754,3.5871,3.5801,3.5622,3.5622,3.5622,3.5656,3.6378,3.708,3.7868,3.856,3.9374,4.0154,4.0782,4.0976,4.108,4.1732,4.1603,4.107,4.1024,4.0978,4.107,4.1639,4.2221,4.277,4.3321,4.3142,4.2951,4.4236,4.581,4.7353,4.8546,4.8601,4.8458,4.8881,4.8676,4.8345,4.8306,4.8306,4.8383,4.8779,4.8959,4.9582,5.1367,5.1882,5.233,5.3093,5.3225,5.3272,5.3444,5.4781,5.5703,5.5703,5.5703,5.5703,5.5703,5.5703,5.6395,5.805,5.8242,5.9011,6.0589,6.0353,6.0161,6.0161,5.9284,5.8796,5.8713,5.8332,5.8632,5.9492,6.0365,6.0781,0.0,0.0,0.0,0.0,0.0,0.0,1.9587,2.0678,2.1973,0.0,2.45,2.5841,2.7074,2.7809,2.8338,2.8484,2.9586,3.0772,3.1715,3.2449,3.2852,3.2852,3.3403,3.3807,3.3807,3.3807,3.3807,3.3807,3.3807,3.3807,3.3807,3.3807,3.3807,3.3807,3.3954,3.4027,3.4027,3.4871,3.5162,3.4942,3.5574,3.5769,3.5622,3.5622,3.5622,3.5622,3.5757,3.6254,3.707,3.7786,3.8887,4.0204,4.1206,4.1598,4.1747,4.2812,4.281,4.2302,4.181,4.1603,4.1603,4.1768,4.2221,4.277,4.3321,4.3142,4.2912,4.3824,4.5548,4.7279,4.822,4.8621,4.8915,4.9295,4.9075,4.8674,4.8345,4.8306,4.8344,4.8383,4.9157,4.9932,5.0303,5.178,5.2991,5.3151,5.3225,5.3682,5.5042,5.5493,5.5703,5.5703,5.5703,5.5703,5.5703,5.5703,5.6126,5.7165,5.7896,5.8742,5.9704,6.0349,6.0647,6.0647,6.0132,5.9458,5.8713,5.899,5.9424,5.9977,6.0533,6.0781,0.0,0.0,0.0,2.0571,2.0098,0.0,0.0,2.0373,2.109,2.2219,2.2705,2.3415,2.4887,2.5502,2.5968,2.6502,2.7625,2.8484,2.8724,3.065,3.2008,3.2008,3.2375,3.2596,3.2596,3.259,3.2757,3.3176,3.356,3.3807,3.3807,3.3807,3.3807,3.3807,3.3807,3.3807,3.3807,3.4211,3.451,3.473,3.5118,3.5397,3.5622,3.5622,3.5622,3.5622,3.5622,3.6073,3.6842,3.7206,3.8235,3.9731,4.1226,4.1801,4.1916,4.3068,4.3178,4.2616,4.2021,4.181,4.181,4.181,4.2221,4.277,4.3321,4.3286,4.3214,4.3746,4.5144,4.6762,4.7972,4.8596,4.8978,4.9416,4.9202,4.8779,4.8383,4.8306,4.8306,4.8306,4.9114,4.9848,4.9994,5.1353,5.2601,5.3115,5.3225,5.3643,5.4933,5.5212,5.5399,5.5682,5.5703,5.5703,5.5703,5.5703,5.6049,5.6934,5.7396,5.8204,5.9435,5.9935,6.0248,6.0456,6.0217,5.9885,5.9389,5.9625,5.9885,6.0103,6.0597,6.0781,0.0,0.0,0.0,0.0,2.1017,2.0763,0.0,0.0,0.0,2.1718,2.1611,2.1789,0.0,0.0,0.0,2.4997,0.0,0.0,0.0,2.8458,0.0,3.0576,3.0734,3.0917,3.1164,3.1148,3.1498,3.2308,3.2837,3.3256,3.355,3.3587,3.366,3.3807,3.3807,3.3807,3.3807,3.3807,3.4039,3.4482,3.4624,3.4944,3.5419,3.5554,3.5622,3.5622,3.5622,3.5949,3.6591,3.6751,3.757,3.8989,4.0752,4.1498,4.1792,4.2887,4.3069,4.2616,4.2103,4.2062,4.2103,4.2021,4.2382,4.292,4.325,4.3428,4.3503,4.3643,4.4634,4.6059,4.7634,4.8431,4.892,4.9495,4.9326,4.8915,4.8495,4.8345,4.8306,4.8306,4.8934,4.9561,4.9887,5.0912,5.2013,5.3078,5.3314,5.3643,5.4452,5.4848,5.5212,5.5643,5.5703,5.5703,5.5703,5.5703,5.6011,5.6703,5.6896,5.7588,5.8973,5.9319,5.9714,6.0065,6.0189,6.0189,6.0103,6.0189,6.0217,6.0217,6.0622,6.0781,2.3236,2.3371,2.3488,2.271,2.2895,2.2801,2.1055,0.0,2.2096,2.1346,0.0,2.2761,0.0,0.0,0.0,0.0,0.0,0.0,2.4982,2.6018,2.6946,2.7695,2.8412,2.9222,3.0247,3.0368,3.0662,3.1494,3.098,3.1237,3.2669,3.2742,3.3073,3.377,3.3807,3.3807,3.3807,3.3807,3.3778,3.3705,3.4412,3.4666,3.4641,3.5318,3.5622,3.5622,3.5622,3.5656,3.5791,3.6514,3.7284,3.8139,3.9475,4.0456,4.1148,4.2377,4.2741,4.2693,4.2616,4.2921,4.325,4.277,4.2958,4.3321,4.292,4.3142,4.3393,4.2955,4.3797,4.5213,4.6835,4.7806,4.8654,4.9759,4.97,4.9326,4.8911,4.8532,4.8306,4.8306,4.8678,4.9117,4.9559,5.0912,5.2234,5.3078,5.3604,5.4115,5.476,5.5326,5.5621,5.5703,5.5703,5.5703,5.5703,5.5703,5.5742,5.5818,5.6549,5.7088,5.728,5.8704,5.9714,6.0065,6.0508,6.0508,6.0103,6.0508,6.0734,6.0734,6.0757,6.0781,2.361,2.3957,2.424,2.3256,2.3571,2.3715,2.2153,2.1936,2.1983,0.0,0.0,0.0,0.0,0.0,0.0,0.0,2.2666,0.0,0.0,0.0,2.4302,2.6691,0.0,0.0,2.805,2.8544,2.8934,2.9278,2.9843,3.0503,3.1164,3.2082,3.2742,3.3109,3.355,3.3807,3.3807,3.3807,3.3894,3.4038,3.4055,3.4364,3.4898,3.4941,3.5216,3.5622,3.5622,3.5622,3.5656,3.5983,3.6547,3.736,3.8321,3.9595,4.1051,4.2253,4.2701,4.2693,4.2693,4.3069,4.3463,4.325,4.3321,4.3463,4.3214,4.3321,4.3463,4.3214,4.3906,4.5065,4.6685,4.771,4.8624,4.9809,4.9819,4.9386,4.8978,4.8779,4.8676,4.8676,4.8945,4.9315,4.9496,5.0302,5.1157,5.2008,5.2716,5.3556,5.4534,5.508,5.5446,5.5682,5.5703,5.5703,5.5703,5.5703,5.5703,5.5703,5.6511,5.6973,5.6973,5.8588,5.9557,5.9741,6.0441,6.071,6.0508,6.071,6.0781,6.0781,6.0781,6.0781,2.4288,2.4679,2.4892,2.3659,2.3863,2.4095,2.3072,2.2569,2.2414,2.2512,0.0,0.0,0.0,0.0,0.0,0.0,0.0,2.1323,0.0,2.1022,0.0,0.0,0.0,0.0,0.0,2.6602,2.6948,2.7317,2.8095,2.8902,2.9686,3.1013,3.2052,3.257,3.3259,3.3662,3.3807,3.3807,3.387,3.397,3.373,3.4055,3.4881,3.4627,3.4912,3.5622,3.5622,3.5622,3.5622,3.5622,3.6062,3.692,3.7746,3.9135,4.0752,4.1971,4.2582,4.2693,4.2693,4.2921,4.3286,4.3463,4.3497,4.3497,4.3497,4.3497,4.3497,4.3497,4.3901,4.4733,4.6346,4.737,4.831,4.9625,4.9797,4.9561,4.9139,4.9075,4.9011,4.8911,4.9326,4.9645,4.9645,5.0002,5.0538,5.1361,5.2319,5.3344,5.4496,5.5026,5.5375,5.5682,5.5703,5.5703,5.5703,5.5703,5.5703,5.5703,5.628,5.6742,5.6973,5.8396,5.9281,5.9511,6.0358,6.0781,6.0781,6.0781,6.0781,6.0781,6.0781,6.0781,2.5571,2.5645,2.5577,2.405,2.3981,2.4131,2.3342,2.3755,2.4074,2.3342,2.3755,0.0,0.0,0.0,0.0,0.0,0.0,0.0,0.0,0.0,0.0,0.0,0.0,0.0,0.0,2.4782,2.4837,2.6077,2.5074,2.5628,2.8395,2.9295,3.0585,3.2533,3.3001,3.3408,3.3807,3.3807,3.3615,3.3238,3.3481,3.3774,3.4155,3.4389,3.4912,3.5622,3.5622,3.5622,3.5622,3.5622,3.6062,3.6932,3.8171,3.9118,4.0016,4.1339,4.221,4.2693,4.2693,4.2693,4.2808,4.3321,4.3497,4.3497,4.3497,4.3497,4.3497,4.3497,4.3497,4.3919,4.5453,4.6474,4.7491,4.9084,4.9745,4.9974,4.9561,4.9475,4.9356,4.8978,4.9532,5.0087,5.0087,5.041,5.0983,5.185,5.3006,5.4063,5.4966,5.5423,5.5703,5.5703,5.5703,5.5703,5.5703,5.5703,5.5703,5.5703,5.5742,5.6126,5.6973,5.7857,5.8704,5.9473,6.0358,6.0781,6.0781,6.0781,6.0781,6.0781,6.0781,6.0781,2.6804,2.6874,2.6974,2.5246,2.5339,2.5425,2.3876,2.4154,2.4444,2.3413,2.4016,2.4536,0.0,0.0,0.0,0.0,0.0,0.0,0.0,0.0,0.0,0.0,0.0,0.0,0.0,0.0,2.3826,2.371,2.4536,2.5578,2.6862,2.8846,3.0556,3.1763,3.2718,3.3408,3.3807,3.3807,3.3753,3.3578,3.3424,3.3481,3.3774,3.4086,3.4472,3.4912,3.5419,3.5622,3.5622,3.5622,3.598,3.6715,3.8105,3.9287,4.0324,4.1851,4.2508,4.2732,4.3105,4.3214,4.325,4.3463,4.3497,4.3497,4.3497,4.3497,4.3497,4.3497,4.3497,4.3882,4.5416,4.6437,4.7517,4.9046,4.9767,4.9974,4.9589,4.9504,4.9445,4.9326,4.9728,5.0183,5.0462,5.0588,5.087,5.1444,5.236,5.3277,5.4154,5.5101,5.5703,5.5703,5.5703,5.5703,5.5703,5.5703,5.5703,5.5703,5.5703,5.5818,5.6126,5.755,5.8434,5.8704,6.0089,6.0781,6.0781,6.0781,6.0781,6.0781,6.0781,6.0781,2.7696,2.7662,2.7791,2.6422,2.6376,2.6203,2.4647,2.4932,2.523,2.4186,2.4585,2.5005,2.4787,0.0,0.0,0.0,0.0,0.0,0.0,1.8277,0.0,0.0,0.0,0.0,0.0,2.2648,2.2211,2.2522,2.3129,2.4052,0.0,2.769,2.9589,3.0919,3.2137,3.3117,3.3807,3.3807,3.3807,3.3807,3.3225,3.333,3.3988,3.3887,3.4226,3.4912,3.5419,3.5622,3.5622,3.581,3.6114,3.6596,3.8509,3.9711,4.0492,4.2116,4.2693,4.277,4.3321,4.3393,4.325,4.3463,4.3497,4.3497,4.3497,4.3497,4.3497,4.3497,4.3497,4.3808,4.5077,4.621,4.7403,4.8624,4.9639,5.0206,4.9819,4.9846,4.9898,4.9728,5.0024,5.038,5.0644,5.0702,5.0873,5.1446,5.2265,5.313,5.3948,5.5017,5.5703,5.5703,5.5703,5.5703,5.5703,5.5703,5.5703,5.5703,5.5703,5.5703,5.5703,5.7357,5.8319,5.8319,5.9935,6.0781,6.0781,6.0781,6.0781,6.0781,6.0781,6.0781]},{"header":{"parameterUnit":"m.s-1","parameterCategory":1,"la1":30.6,"la2":29.2853,"lo1":-89.7004,"lo2":-87.6739,"dy":0.0162,"dx":0.0183,"nx":112,"ny":82,"refTime":"2025-04-07T12:00:00:Z","depth":0,"parameterNumber":3,"parameterNumberName":"V-component_of_WINDS"},"data":[0.0,0.0,0.0,0.0,0.0,0.0,0.0,0.0,0.0,0.0,0.0,0.0,0.0,0.0,0.0,0.0,0.0,0.0,0.0,0.0,0.0,0.0,0.0,0.0,0.0,0.0,0.0,0.0,0.0,0.0,0.0,0.0,0.0,0.0,0.0,0.0,0.0,0.0,0.0,0.0,0.0,0.0,0.0,0.0,0.0,0.0,0.0,0.0,0.0,0.0,0.0,0.0,0.0,0.0,0.0,0.0,0.0,0.0,0.0,0.0,0.0,0.0,0.0,0.0,0.0,0.0,0.0,0.0,0.0,0.0,0.0,0.0,0.0,0.0,0.0,0.0,0.0,0.0,0.0,0.0,0.0,0.0,0.0,0.0,0.0,0.0,0.0,0.0,0.0,0.0,-1.9403,-2.0221,-1.9231,-1.8062,-1.6792,-1.5064,-1.3173,-1.1182,0.0,0.0,0.0,0.0,0.0,0.0,0.0,0.0,0.0,0.0,0.0,0.0,0.0,0.0,0.0,0.0,0.0,0.0,0.0,0.0,0.0,0.0,0.0,0.0,0.0,0.0,0.0,0.0,0.0,0.0,0.0,0.0,0.0,0.0,0.0,0.0,0.0,0.0,0.0,0.0,0.0,0.0,0.0,0.0,0.0,0.0,0.0,0.0,0.0,0.0,0.0,0.0,0.0,0.0,0.0,0.0,0.0,0.0,0.0,0.0,0.0,0.0,0.0,0.0,0.0,0.0,0.0,0.0,0.0,0.0,0.0,0.0,0.0,0.0,0.0,0.0,0.0,0.0,0.0,0.0,0.0,0.0,0.0,0.0,0.0,0.0,0.0,0.0,0.0,0.0,0.0,0.0,0.0,0.0,0.0,0.0,0.0,0.0,0.0,0.0,0.0,0.0,0.0,0.0,-1.9425,-2.141,-2.025,-1.9051,-1.8304,-1.5482,-1.3039,-1.1463,0.0,0.0,0.0,0.0,0.0,0.0,0.0,0.0,0.0,0.0,0.0,0.0,0.0,0.0,0.0,0.0,0.0,0.0,0.0,0.0,0.0,0.0,0.0,0.0,0.0,0.0,0.0,0.0,0.0,0.0,0.0,0.0,0.0,0.0,0.0,0.0,0.0,0.0,0.0,0.0,0.0,0.0,0.0,0.0,0.0,0.0,0.0,0.0,0.0,0.0,0.0,0.0,0.0,0.0,0.0,0.0,0.0,0.0,0.0,0.0,0.0,0.0,0.0,0.0,0.0,0.0,0.0,0.0,0.0,0.0,0.0,0.0,0.0,0.0,0.0,0.0,0.0,0.0,0.0,0.0,0.0,0.0,0.0,0.0,0.0,0.0,0.0,0.0,0.0,0.0,0.0,0.0,0.0,0.0,0.0,0.0,0.0,0.0,0.0,0.0,0.0,0.0,0.0,-1.9349,-2.0413,-2.206,-2.0625,-1.9289,-1.8646,-1.5698,-1.3186,-1.153,-1.0251,0.0,0.0,0.0,0.0,0.0,0.0,0.0,0.0,0.0,0.0,0.0,0.0,0.0,0.0,0.0,0.0,0.0,0.0,0.0,0.0,0.0,0.0,0.0,0.0,0.0,0.0,0.0,0.0,0.0,0.0,0.0,0.0,0.0,0.0,0.0,0.0,0.0,0.0,0.0,0.0,0.0,0.0,0.0,0.0,0.0,0.0,0.0,0.0,0.0,0.0,0.0,0.0,0.0,0.0,0.0,0.0,0.0,0.0,0.0,0.0,0.0,0.0,0.0,0.0,0.0,0.0,0.0,0.0,0.0,0.0,0.0,0.0,0.0,0.0,0.0,0.0,0.0,0.0,0.0,0.0,0.0,0.0,0.0,0.0,0.0,0.0,0.0,0.0,0.0,0.0,0.0,0.0,0.0,0.0,0.0,0.0,0.0,0.0,0.0,0.0,0.0,0.0,-2.0917,-2.1502,-2.2487,-2.0766,-1.9289,-1.8646,-1.5698,-1.3173,-1.153,-0.9494,0.0,0.0,0.0,0.0,0.0,0.0,0.0,0.0,0.0,0.0,0.0,0.0,0.0,0.0,0.0,0.0,0.0,0.0,0.0,0.0,0.0,0.0,0.0,0.0,0.0,0.0,0.0,0.0,0.0,0.0,0.0,0.0,0.0,0.0,0.0,0.0,0.0,0.0,0.0,0.0,0.0,0.0,0.0,0.0,0.0,0.0,0.0,0.0,0.0,0.0,0.0,0.0,0.0,0.0,0.0,0.0,0.0,0.0,0.0,0.0,0.0,0.0,0.0,0.0,0.0,0.0,0.0,0.0,0.0,0.0,0.0,0.0,0.0,0.0,0.0,0.0,0.0,0.0,0.0,0.0,0.0,0.0,0.0,0.0,0.0,0.0,0.0,0.0,0.0,0.0,0.0,0.0,0.0,0.0,0.0,0.0,0.0,0.0,0.0,0.0,0.0,0.0,-2.1364,-2.2592,-2.3036,-2.0926,-1.9289,-1.8646,-1.5286,-1.2746,-1.1503,-0.8777,0.0,0.0,0.0,0.0,0.0,0.0,0.0,0.0,0.0,0.0,0.0,0.0,0.0,0.0,0.0,0.0,0.0,0.0,0.0,0.0,0.0,0.0,0.0,0.0,0.0,0.0,0.0,0.0,0.0,0.0,0.0,0.0,0.0,0.0,0.0,0.0,0.0,0.0,0.0,0.0,0.0,0.0,0.0,0.0,0.0,0.0,0.0,0.0,0.0,0.0,0.0,0.0,0.0,0.0,0.0,0.0,0.0,0.0,0.0,0.0,0.0,0.0,0.0,0.0,0.0,0.0,0.0,0.0,0.0,0.0,0.0,0.0,0.0,0.0,0.0,0.0,0.0,0.0,0.0,0.0,0.0,0.0,0.0,0.0,0.0,0.0,0.0,0.0,0.0,0.0,0.0,0.0,0.0,0.0,0.0,0.0,0.0,0.0,0.0,0.0,0.0,0.0,-2.082,-2.1886,0.0,-2.0944,-1.9289,-1.8646,-1.5624,-1.3093,-1.153,0.0,0.0,0.0,0.0,0.0,0.0,0.0,0.0,0.0,0.0,0.0,0.0,0.0,0.0,0.0,0.0,0.0,0.0,0.0,0.0,0.0,0.0,0.0,0.0,0.0,0.0,0.0,0.0,0.0,0.0,0.0,0.0,0.0,0.0,0.0,0.0,0.0,0.0,0.0,0.0,0.0,0.0,0.0,0.0,0.0,0.0,0.0,0.0,0.0,0.0,0.0,0.0,0.0,0.0,0.0,0.0,0.0,0.0,0.0,0.0,0.0,0.0,0.0,0.0,0.0,0.0,0.0,0.0,0.0,0.0,0.0,0.0,0.0,0.0,0.0,0.0,0.0,0.0,0.0,0.0,0.0,0.0,0.0,0.0,0.0,0.0,0.0,0.0,0.0,0.0,0.0,0.0,0.0,0.0,0.0,0.0,0.0,0.0,0.0,0.0,0.0,0.0,-1.949,-2.0617,-2.169,0.0,-2.0944,-1.9289,-1.8646,-1.5654,-1.3133,-1.153,0.0,0.0,0.0,0.0,0.0,0.0,0.0,0.0,0.0,0.0,0.0,0.0,0.0,0.0,0.0,0.0,0.0,0.0,0.0,0.0,0.0,0.0,0.0,0.0,0.0,0.0,0.0,0.0,0.0,0.0,0.0,0.0,0.0,0.0,0.0,0.0,0.0,0.0,0.0,0.0,0.0,0.0,0.0,0.0,0.0,0.0,0.0,0.0,0.0,0.0,0.0,0.0,0.0,0.0,0.0,0.0,0.0,0.0,0.0,0.0,0.0,0.0,0.0,0.0,0.0,0.0,0.0,0.0,0.0,0.0,0.0,0.0,0.0,0.0,0.0,0.0,0.0,0.0,0.0,0.0,0.0,0.0,0.0,0.0,0.0,0.0,0.0,0.0,0.0,0.0,0.0,0.0,0.0,0.0,0.0,0.0,0.0,0.0,0.0,0.0,0.0,0.0,-1.9555,-2.0994,-2.2207,-2.3047,-2.0944,-1.9289,-1.8646,-1.5338,-1.2705,0.0,0.0,0.0,0.0,0.0,0.0,0.0,0.0,0.0,0.0,0.0,0.0,0.0,0.0,0.0,0.0,0.0,0.0,0.0,0.0,0.0,0.0,0.0,0.0,0.0,0.0,0.0,0.0,0.0,0.0,0.0,0.0,0.0,0.0,0.0,0.0,0.0,0.0,0.0,0.0,0.0,0.0,0.0,0.0,0.0,0.0,0.0,0.0,0.0,0.0,0.0,0.0,0.0,0.0,0.0,0.0,0.0,0.0,0.0,0.0,0.0,0.0,0.0,0.0,0.0,0.0,0.0,0.0,0.0,0.0,0.0,0.0,0.0,0.0,0.0,0.0,0.0,0.0,0.0,0.0,0.0,0.0,0.0,0.0,0.0,0.0,0.0,0.0,0.0,0.0,0.0,0.0,0.0,0.0,0.0,0.0,0.0,0.0,0.0,0.0,0.0,0.0,0.0,-1.9555,-2.0994,-2.2207,-2.3047,-2.1676,-2.0182,-1.8732,-1.6474,-1.4044,-1.1599,0.0,0.0,0.0,0.0,0.0,0.0,0.0,0.0,0.0,0.0,0.0,0.0,0.0,0.0,0.0,0.0,0.0,0.0,0.0,0.0,0.0,0.0,0.0,0.0,0.0,0.0,0.0,0.0,0.0,0.0,0.0,0.0,0.0,0.0,0.0,0.0,0.0,0.0,0.0,0.0,0.0,0.0,0.0,0.0,0.0,0.0,0.0,0.0,0.0,0.0,0.0,0.0,0.0,0.0,0.0,0.0,0.0,0.0,0.0,0.0,0.0,0.0,0.0,0.0,0.0,0.0,0.0,0.0,0.0,0.0,0.0,0.0,0.0,0.0,0.0,0.0,0.0,0.0,0.0,0.0,0.0,0.0,0.0,0.0,0.0,0.0,0.0,0.0,0.0,0.0,0.0,0.0,0.0,0.0,0.0,0.0,0.0,0.0,0.0,0.0,0.0,0.0,-1.9231,-2.0843,-2.2207,-2.3047,-2.1587,-2.0056,-1.895,-1.6707,-1.4271,-1.1787,0.0,0.0,0.0,0.0,0.0,0.0,0.0,0.0,0.0,0.0,0.0,0.0,0.0,0.0,0.0,0.0,0.0,0.0,0.0,0.0,0.0,0.0,0.0,0.0,0.0,0.0,0.0,0.0,0.0,0.0,0.0,0.0,0.0,0.0,0.0,0.0,0.0,0.0,0.0,0.0,0.0,0.0,0.0,0.0,0.0,0.0,0.0,0.0,0.0,0.0,0.0,0.0,0.0,0.0,0.0,0.0,0.0,0.0,0.0,0.0,0.0,0.0,0.0,0.0,0.0,0.0,0.0,0.0,0.0,0.0,0.0,0.0,0.0,0.0,0.0,0.0,0.0,0.0,0.0,0.0,0.0,0.0,0.0,0.0,0.0,0.0,0.0,0.0,0.0,0.0,0.0,0.0,0.0,0.0,0.0,0.0,0.0,0.0,0.0,0.0,0.0,0.0,-1.8709,-2.0635,-2.2207,-2.3047,-2.1033,-1.9529,-1.9162,-1.6403,-1.387,-1.2136,0.0,0.0,0.0,0.0,0.0,0.0,0.0,0.0,0.0,0.0,0.0,0.0,0.0,0.0,0.0,0.0,0.0,0.0,0.0,0.0,0.0,0.0,0.0,0.0,0.0,0.0,0.0,0.0,0.0,0.0,0.0,0.0,0.0,0.0,0.0,0.0,0.0,0.0,0.0,0.0,0.0,0.0,0.0,0.0,0.0,0.0,0.0,0.0,0.0,0.0,0.0,0.0,0.0,0.0,0.0,0.0,0.0,0.0,0.0,0.0,-1.3445,-1.2589,0.0,0.0,0.0,0.0,0.0,0.0,0.0,0.0,0.0,0.0,0.0,0.0,0.0,0.0,0.0,0.0,0.0,0.0,0.0,0.0,0.0,0.0,0.0,0.0,0.0,0.0,0.0,0.0,0.0,0.0,0.0,0.0,0.0,0.0,0.0,0.0,0.0,0.0,0.0,0.0,-1.875,-2.0635,-2.2207,-2.3047,-2.1765,-2.0427,-1.9162,-1.7172,-1.5,-1.2714,-1.006,0.0,0.0,0.0,0.0,0.0,0.0,0.0,0.0,0.0,0.0,0.0,0.0,0.0,0.0,0.0,0.0,0.0,0.0,0.0,0.0,0.0,0.0,0.0,0.0,0.0,0.0,0.0,0.0,0.0,0.0,0.0,0.0,0.0,0.0,0.0,0.0,0.0,0.0,0.0,0.0,0.0,0.0,0.0,0.0,0.0,0.0,0.0,0.0,0.0,0.0,0.0,0.0,0.0,0.0,0.0,0.0,0.0,0.0,0.0,-1.5119,-1.4531,0.0,0.0,0.0,0.0,0.0,0.0,0.0,0.0,0.0,0.0,0.0,0.0,0.0,0.0,0.0,0.0,0.0,0.0,0.0,0.0,0.0,0.0,0.0,0.0,0.0,0.0,0.0,0.0,0.0,0.0,0.0,0.0,0.0,0.0,0.0,0.0,0.0,0.0,0.0,0.0,-1.863,-2.0621,-2.2207,-2.3047,-2.1498,-2.0138,-1.9322,-1.7219,-1.5105,-1.3333,-1.1168,0.0,0.0,0.0,0.0,0.0,0.0,0.0,0.0,0.0,0.0,0.0,0.0,0.0,0.0,0.0,0.0,0.0,0.0,0.0,0.0,0.0,0.0,0.0,0.0,0.0,0.0,0.0,0.0,0.0,0.0,0.0,0.0,0.0,0.0,0.0,0.0,0.0,0.0,0.0,0.0,0.0,0.0,0.0,0.0,0.0,0.0,0.0,0.0,0.0,0.0,0.0,0.0,0.0,-1.5998,-1.5479,-1.482,-1.6218,-1.685,-1.6924,-1.6536,-1.6484,-1.66,-1.5644,0.0,0.0,0.0,0.0,0.0,0.0,0.0,0.0,0.0,0.0,0.0,0.0,0.0,0.0,0.0,0.0,0.0,0.0,0.0,0.0,0.0,0.0,0.0,0.0,-1.8144,-1.7986,-1.6328,0.0,0.0,0.0,0.0,0.0,0.0,0.0,0.0,0.0,0.0,0.0,-1.8605,-2.0644,-2.2285,-2.3066,-2.0944,-1.9497,-1.9497,-1.7004,-1.4937,-1.3868,-1.2323,-1.0444,0.0,0.0,0.0,0.0,0.0,0.0,0.0,0.0,0.0,0.0,0.0,0.0,0.0,0.0,0.0,0.0,0.0,0.0,0.0,0.0,0.0,0.0,0.0,0.0,0.0,0.0,0.0,0.0,0.0,0.0,0.0,0.0,-1.1447,-1.1456,0.0,0.0,0.0,0.0,0.0,0.0,0.0,0.0,0.0,0.0,0.0,0.0,0.0,-1.3434,-1.3314,-1.6081,-1.6735,-1.5296,-1.6589,-1.6944,-1.6541,-1.675,-1.7122,-1.7516,-1.74,0.0,-1.6446,-1.6919,0.0,0.0,0.0,0.0,0.0,0.0,0.0,0.0,0.0,0.0,0.0,0.0,0.0,0.0,0.0,0.0,0.0,0.0,0.0,0.0,0.0,0.0,-2.0483,-1.9752,-1.9902,-2.0115,0.0,-1.7546,-1.5781,-1.5117,-1.4233,0.0,0.0,0.0,0.0,0.0,0.0,0.0,-1.9134,-2.1094,-2.2617,-2.3086,-2.0944,-1.9497,-1.9497,-1.7004,-1.511,-1.4442,-1.2896,-1.1142,-0.9193,-0.7642,0.0,0.0,0.0,0.0,0.0,0.0,0.0,0.0,0.0,0.0,0.0,0.0,0.0,0.0,0.0,0.0,0.0,0.0,0.0,0.0,0.0,0.0,0.0,0.0,0.0,0.0,0.0,0.0,0.0,-1.1357,-1.1402,-1.171,-1.1699,-1.1735,0.0,0.0,0.0,0.0,0.0,0.0,0.0,0.0,0.0,-1.3477,-1.3568,-1.371,-1.3749,-1.5228,-1.5801,-1.5518,-1.6184,-1.6433,-1.627,-1.6979,-1.7424,-1.7652,-1.8346,-1.7953,-1.6879,-1.6774,-1.6114,-1.5113,0.0,0.0,0.0,0.0,-1.6992,-1.722,-1.746,-1.6919,-1.5998,-1.5513,0.0,0.0,0.0,0.0,0.0,0.0,0.0,-1.8582,0.0,0.0,-2.0988,-2.1271,-2.1523,-2.1438,-2.0555,-1.9251,-1.8003,0.0,-1.6816,-1.6289,-1.4824,0.0,0.0,0.0,0.0,-1.9461,-2.0234,-2.1621,-2.2676,-2.3086,-2.1587,-2.0206,-1.9588,-1.7719,-1.6183,-1.5044,-1.4064,-1.2441,-1.0121,-0.8918,-0.7211,0.0,0.0,0.0,0.0,0.0,0.0,0.0,0.0,0.0,0.0,0.0,0.0,0.0,0.0,0.0,0.0,0.0,0.0,0.0,0.0,0.0,0.0,0.0,0.0,0.0,0.0,0.0,0.0,-1.2165,-1.1936,-1.215,-1.1842,-1.1676,0.0,0.0,0.0,0.0,0.0,0.0,-1.3925,-1.4662,-1.4851,-1.4427,-1.4253,-1.4356,-1.4668,-1.463,-1.4996,-1.6048,-1.5846,-1.5845,-1.5949,-1.6989,-1.737,-1.7465,-1.8379,-1.8148,-1.7077,-1.6875,-1.6349,-1.5701,-1.5796,-1.6086,-1.6475,-1.7741,-1.8447,-1.8788,-1.8843,-1.8198,-1.7172,-1.6397,-1.5332,-1.4565,-1.538,0.0,0.0,0.0,0.0,-1.8965,-2.0234,-2.082,-2.1328,-2.2422,-2.2399,-2.1949,-2.1044,-2.0374,-1.9555,0.0,-1.8705,-1.8471,-1.6831,0.0,0.0,0.0,0.0,-2.0176,-2.1269,-2.2148,-2.2793,-2.3105,-2.2031,-2.0836,-1.9588,-1.8411,-1.6993,-1.551,-1.491,-1.3399,-1.0721,-0.9875,-0.8196,-0.5624,0.0,0.0,0.0,0.0,0.0,0.0,0.0,0.0,0.0,0.0,0.0,0.0,0.0,0.0,0.0,0.0,0.0,0.0,0.0,0.0,0.0,0.0,0.0,0.0,0.0,0.0,0.0,0.0,0.0,-1.3036,-1.2836,0.0,0.0,0.0,0.0,-1.4497,-1.4648,-1.4746,-1.4815,-1.5101,-1.5163,-1.4945,-1.5418,-1.5872,-1.6289,-1.5901,-1.6043,-1.6647,-1.6082,-1.5982,-1.6334,-1.6434,-1.6534,-1.676,-1.686,-1.6846,-1.6837,-1.7686,-1.7274,-1.5985,-1.6601,-1.7506,-1.8558,-1.8655,-1.9641,-2.0915,-1.9743,-1.8759,-1.7877,-1.7201,-1.6067,-1.5321,-1.6636,-1.692,0.0,0.0,-2.041,-2.0742,-2.2051,-2.2402,-2.2539,-2.2988,-2.2189,-2.1355,-2.1266,-2.0352,-1.9457,0.0,-1.8734,-1.8443,-1.9483,0.0,-1.9297,-1.9687,-2.0547,-2.1309,-2.1797,-2.2578,-2.3125,-2.3144,-2.2031,-2.0836,-1.9588,-1.8411,-1.6993,-1.551,-1.511,-1.3762,-1.095,-1.0181,-0.8607,-0.6017,-0.5277,0.0,0.0,0.0,0.0,0.0,0.0,0.0,0.0,0.0,0.0,0.0,0.0,0.0,0.0,0.0,0.0,0.0,0.0,0.0,0.0,0.0,0.0,0.0,0.0,0.0,0.0,0.0,0.0,-1.4236,-1.2865,0.0,-1.2935,-1.328,-1.3881,-1.4742,-1.5874,-1.6067,-1.506,-1.6066,-1.645,-1.5886,-1.6192,-1.6545,-1.6779,-1.6534,-1.67,-1.7282,-1.7055,-1.7041,-1.7155,-1.6927,-1.6714,-1.67,-1.67,-1.67,-1.6773,-1.7105,-1.6834,-1.6244,-1.7011,-1.7451,-1.7668,-1.8443,-1.9144,-1.9557,-1.8588,-1.8134,-1.7612,-1.6373,-1.6002,-1.6166,-1.6581,-1.7747,-1.9129,-2.0311,-2.1199,-2.1992,-2.2715,-2.2282,-2.1757,-2.1906,-2.1033,-1.9951,-1.9131,-1.8688,-1.8302,-1.8287,-1.9127,-1.9624,-1.9182,-2.0194,-2.0918,-2.0781,-2.1504,-2.2207,-2.2637,-2.2949,-2.3144,-2.3144,-2.2687,-2.1943,-2.0747,-1.9588,-1.8164,-1.6661,-1.5562,-1.4142,-1.2144,-1.076,-0.8895,-0.645,-0.5759,-0.5158,0.0,0.0,0.0,0.0,0.0,0.0,0.0,0.0,0.0,0.0,0.0,0.0,0.0,0.0,0.0,0.0,0.0,0.0,0.0,0.0,0.0,0.0,0.0,0.0,0.0,0.0,-1.5122,-1.5433,-1.3764,-1.2779,-1.332,-1.379,-1.4294,-1.4907,-1.6183,-1.6535,-1.5511,-1.655,-1.6966,-1.6406,-1.67,-1.6962,-1.6975,-1.6954,-1.7225,-1.7585,-1.7585,-1.7585,-1.7585,-1.734,-1.7123,-1.7007,-1.7007,-1.7007,-1.7007,-1.7007,-1.6834,-1.6639,-1.7105,-1.7312,-1.7576,-1.8395,-1.8948,-1.9239,-1.8178,-1.7566,-1.7051,-1.5912,-1.5943,-1.6397,-1.6832,-1.8065,-1.9434,-2.057,-2.1466,-2.2274,-2.3154,-2.2434,-2.1536,-2.168,-2.0415,-1.8926,-1.8108,-1.7633,-1.7332,-1.7217,-1.8577,-1.9694,-1.9626,-2.0792,-2.1767,-2.1831,-2.2363,-2.264,-2.2541,-2.2492,-2.2315,-2.1943,-2.1854,-2.1409,-2.0223,-1.9274,-1.8115,-1.6646,-1.537,-1.4125,-1.2679,-1.0942,-0.8848,-0.6513,-0.5895,-0.5346,-0.4803,0.0,0.0,0.0,0.0,0.0,0.0,0.0,0.0,0.0,0.0,0.0,0.0,0.0,0.0,0.0,0.0,0.0,0.0,0.0,0.0,0.0,0.0,0.0,-1.5475,-1.471,-1.4832,-1.6686,-1.5763,-1.4573,-1.3442,-1.4379,-1.5048,-1.5063,-1.5534,-1.6002,-1.6347,-1.66,-1.6714,-1.6714,-1.7021,-1.7168,-1.7052,-1.7462,-1.7609,-1.7609,-1.7609,-1.7609,-1.7609,-1.7609,-1.7609,-1.7609,-1.7609,-1.7609,-1.7595,-1.7595,-1.7422,-1.7141,-1.6834,-1.7399,-1.8459,-1.8459,-1.9228,-2.0039,-1.8571,-1.7327,-1.6246,-1.5952,-1.5858,-1.6048,-1.7261,-1.7714,-1.8164,-2.0512,-2.1248,-2.1607,-2.3223,-2.2684,-2.1764,-2.2232,-2.0297,-1.8459,-1.8459,-1.7484,-1.662,-1.6339,-1.7099,-1.8442,-2.0764,-2.1194,-2.1658,-2.2775,-2.295,0.0,-2.1391,-2.1194,-2.0836,-1.9588,-1.9497,-1.9039,-1.787,-1.7462,-1.6723,-1.5562,-1.4576,-1.3561,-1.2419,-1.0559,-0.8533,-0.6374,-0.553,-0.5049,-0.4938,0.0,0.0,0.0,0.0,0.0,0.0,0.0,0.0,0.0,0.0,0.0,0.0,0.0,0.0,0.0,0.0,0.0,0.0,0.0,0.0,0.0,-1.5408,-1.6134,-1.7265,-1.619,-1.5474,-1.608,-1.6216,-1.6062,-1.5577,-1.6115,-1.6299,-1.6012,-1.6249,-1.6526,-1.6587,-1.6799,-1.6905,-1.6675,-1.7528,-1.7796,-1.7436,-1.7482,-1.7624,-1.7624,-1.7624,-1.7624,-1.7624,-1.8005,-1.8127,-1.7991,-1.8237,-1.8116,-1.7916,-1.7916,-1.7742,-1.7435,-1.7141,-1.7089,-1.7186,-1.7186,-1.7385,-1.7669,-1.7189,-1.6878,-1.6567,-1.6486,-1.646,-1.6558,-1.6854,-1.7624,-1.8387,-1.9047,-1.9892,-2.0762,-2.126,-2.0342,-1.9411,-1.9602,-1.8361,-1.7186,-1.7186,-1.69,-1.6687,-1.6607,-1.681,-1.7383,-1.8489,-1.9405,-2.0133,-2.0404,-2.0494,0.0,-2.0025,-2.0025,-1.9861,-1.9588,-1.9497,-1.9405,-1.9039,-1.8134,-1.7249,-1.6491,-1.5154,-1.4124,-1.3659,-1.1131,-0.8745,-0.6589,-0.6044,-0.5782,0.0,0.0,0.0,0.0,0.0,0.0,0.0,0.0,0.0,0.0,0.0,0.0,0.0,0.0,0.0,0.0,0.0,0.0,0.0,0.0,0.0,0.0,-1.5411,-1.6046,-1.6949,-1.6354,-1.5927,-1.6101,-1.6498,-1.6758,-1.6895,-1.7073,-1.7109,-1.6887,-1.7002,-1.7056,-1.7074,-1.7237,-1.7174,-1.7055,-1.762,-1.7856,-1.7611,-1.7656,-1.7857,-1.8366,-1.8366,-1.8366,-1.8366,-1.8739,-1.8863,-1.8739,-1.8615,-1.8397,-1.8223,-1.8103,-1.7943,0.0,0.0,0.0,0.0,0.0,-1.7074,-1.7061,-1.6941,-1.6887,-1.6874,-1.674,-1.67,-1.67,-1.67,-1.7186,-1.7881,-1.8361,-1.9033,-1.9747,-2.0459,-1.974,-1.8795,-1.8929,-1.7964,-1.7074,-1.7074,-1.7074,-1.7034,-1.6914,-1.6887,0.0,-1.723,-1.8157,-1.9031,-1.9422,-1.9497,-1.9314,-1.8764,-1.878,-1.858,-1.8025,-1.8395,-1.8503,-1.8025,-1.7627,0.0,0.0,0.0,-1.3743,-1.2298,-1.0675,0.0,0.0,0.0,0.0,0.0,0.0,0.0,0.0,-0.7502,-0.8592,0.0,0.0,0.0,0.0,0.0,0.0,0.0,0.0,0.0,0.0,0.0,0.0,0.0,0.0,0.0,0.0,-1.5101,-1.5644,-1.5497,-1.5667,-1.603,-1.6621,-1.6674,-1.6922,-1.7524,-1.7594,-1.7618,-1.7688,-1.7599,-1.7617,-1.7675,0.0,0.0,0.0,0.0,-1.7785,-1.7785,-1.7824,-1.8335,-1.9361,-1.9361,-1.9361,-1.9361,-1.9361,-1.9361,-1.9348,-1.8834,-1.8571,-1.8517,-1.825,-1.8103,-1.8009,-1.7702,-1.7582,-1.7582,-1.7582,-1.7582,-1.7542,-1.7288,0.0,0.0,-1.6887,-1.6807,-1.6807,-1.6807,-1.6807,-1.6995,-1.8081,-1.8364,-1.8721,-2.019,-1.9683,-1.8979,-1.9258,-1.8499,-1.7582,-1.7582,-1.7582,-1.7502,-1.7248,-1.7194,-1.7101,-1.6807,-1.7358,-1.8168,-1.906,-1.9147,-1.8672,-1.7591,-1.7498,-1.703,-1.5927,0.0,0.0,-1.5927,-1.6664,-1.6766,-1.5483,-1.4643,-1.2971,-1.0195,-0.9956,-0.8765,-0.6512,-0.658,-0.6702,-0.6887,-0.6873,-0.6959,-0.6953,-0.7823,-0.9193,0.0,0.0,0.0,0.0,0.0,0.0,0.0,0.0,0.0,0.0,0.0,0.0,0.0,0.0,0.0,-1.4126,-1.5168,-1.5854,-1.6088,-1.6182,-1.6222,-1.6357,-1.68,-1.7123,-1.7279,-1.7495,-1.7779,-1.809,-1.7996,-1.8009,-1.8303,-1.8123,-1.8397,-1.903,-1.9067,-1.909,-1.909,-1.9078,-1.9199,-1.9456,-1.9456,0.0,-1.9456,-1.9456,-1.9456,-1.934,-1.9327,-1.9065,-1.8838,-1.8771,-1.8477,-1.8009,-1.7702,-1.7582,-1.7582,-1.7582,-1.7582,-1.7569,-1.7515,-1.7502,-1.7488,-1.7435,-1.7408,-1.7408,-1.7408,-1.7408,0.0,-1.7721,-1.7825,-1.7839,-1.8192,-1.8116,-1.7921,-1.7975,-1.7793,-1.7582,-1.7582,-1.7582,-1.7569,-1.7515,-1.7502,-1.7408,-1.7114,-1.6819,-1.6732,-1.6856,-1.6728,-1.6466,-1.6197,-1.6197,-1.6116,-1.5832,-1.6951,-1.7232,-1.5927,-1.6879,-1.6921,-1.5497,-1.5017,-1.4063,-1.2255,-1.1388,-0.9794,-0.7238,-0.7183,-0.7265,-0.7312,-0.7109,-0.7163,-0.7368,-0.8215,-0.9285,0.0,0.0,0.0,0.0,0.0,0.0,0.0,0.0,0.0,0.0,0.0,-0.902,-1.0582,0.0,-1.2866,-1.4523,-1.564,-1.6305,-1.6316,-1.6526,-1.6714,-1.6714,-1.6967,-1.7208,-1.7355,-1.7635,-1.7876,-1.805,-1.8183,-1.833,-1.8477,-1.8499,-1.8704,-1.9095,-1.9253,-1.9401,-1.9401,-1.9421,-1.9372,-1.9372,-1.9372,-1.9372,-1.9372,-1.9372,-1.9372,-1.9372,-1.9372,-1.9279,-1.9132,-1.8985,-1.8664,-1.825,-1.8103,-1.7849,-1.7582,-1.7582,-1.7582,-1.7582,-1.7582,-1.7582,-1.7582,-1.7582,-1.7582,-1.7582,-1.7582,-1.7582,-1.7582,-1.7582,-1.7582,-1.7582,-1.7582,-1.7582,-1.7582,-1.7582,-1.7582,-1.7582,-1.7582,-1.7582,-1.7582,-1.7582,-1.7582,-1.7542,-1.7395,-1.7007,-1.666,-1.6513,-1.6246,-1.6046,-1.6046,-1.5925,-1.5832,-1.5832,-1.6951,-1.7404,-1.6763,-1.7311,-1.6993,-1.551,-1.5257,-1.4579,-1.3022,-1.1951,-1.0104,-0.7604,-0.7554,-0.7588,-0.7702,-0.7489,-0.7556,-0.7706,-0.8182,-0.9334,0.0,0.0,0.0,0.0,0.0,0.0,0.0,0.0,-0.5734,-0.6493,-0.7103,-0.8328,-1.0669,-1.2482,-1.3923,-1.5272,-1.617,-1.6647,-1.6531,-1.6847,-1.7168,-1.7221,-1.7235,-1.7341,-1.7649,-1.7903,-1.809,-1.821,-1.8437,-1.8597,-1.8664,-1.8878,-1.8884,-1.8884,-1.9239,-1.9372,-1.9372,-1.9372,-1.9372,-1.9372,-1.9372,-1.9372,-1.9372,-1.9372,-1.9372,-1.9372,-1.9372,-1.9372,-1.9345,-1.9105,-1.8838,-1.8571,-1.8571,-1.8237,-1.7756,-1.7756,-1.7729,-1.7675,-1.7675,-1.7635,-1.7582,-1.7582,-1.7582,-1.7582,-1.7582,-1.7582,-1.7582,-1.7582,-1.7582,-1.7582,-1.7582,-1.7582,-1.7582,-1.7582,-1.7582,-1.7582,-1.7582,-1.7582,-1.7582,-1.7582,-1.7582,-1.7582,-1.7582,-1.7382,-1.7128,-1.6834,-1.654,-1.6353,-1.6353,-1.6152,-1.6005,-1.6005,-1.7312,-1.8224,-1.8148,-1.7961,-1.7174,-1.5591,-1.5484,-1.4903,-1.3744,-1.2248,-1.0464,-0.8566,-0.7949,-0.7753,-0.7986,-0.7868,-0.7916,-0.8038,-0.8038,-0.9233,-1.01,-0.88,-0.7705,-0.7811,-0.6689,-0.5691,0.0,0.0,-0.6138,-0.6898,-0.7257,-0.8019,-0.9849,-1.2665,-1.511,-1.6099,-1.6551,-1.6783,-1.7082,-1.7114,-1.7248,-1.7502,-1.7542,-1.7662,-1.7969,-1.8023,-1.8263,-1.8784,-1.8851,-1.8998,-1.9252,-1.9305,-1.9319,-1.9319,-1.9345,-1.9372,-1.9372,-1.9372,-1.9372,-1.9372,-1.9372,-1.9372,-1.9372,-1.9372,-1.9372,-1.9372,-1.9372,-1.9372,-1.9359,-1.9332,-1.9145,-1.8878,-1.8878,-1.8677,-1.8384,-1.8384,-1.8223,-1.7996,-1.7996,-1.7809,-1.7582,-1.7582,-1.7582,-1.7582,-1.7582,-1.7582,-1.7582,-1.7582,-1.7582,-1.7582,-1.7582,-1.7582,-1.7582,-1.7582,-1.7582,-1.7582,-1.7582,-1.7582,-1.7582,-1.7582,-1.7582,-1.7582,-1.7582,-1.7555,-1.7435,-1.7141,-1.6847,-1.666,-1.666,-1.6633,-1.6607,-1.6607,-1.8829,-2.0132,-1.9898,-1.8863,-1.7508,-1.5886,-1.5778,-1.567,-1.5536,-1.3121,-1.1676,-1.1482,-0.9158,-0.7997,-0.8018,-0.8018,-0.8024,-0.8038,-0.8038,-0.8817,-1.1249,-0.9694,-0.8196,0.0,-0.7443,-0.6342,-0.6569,-0.6675,-0.6701,-0.7054,-0.7409,-0.8385,-1.064,-1.2844,-1.4801,0.0,-1.6891,-1.7204,-1.7217,-1.7288,-1.7382,-1.7341,-1.7475,-1.7702,-1.8023,-1.8196,-1.8477,-1.8891,-1.9078,-1.9239,-1.9359,-1.9372,-1.9372,-1.9372,-1.9372,-1.9372,-1.9372,-1.9372,-1.9372,-1.9372,-1.9372,-1.9372,-1.9372,-1.9372,-1.9372,-1.9372,-1.9372,-1.9372,-1.9372,-1.9372,-1.9292,-1.9185,-1.9185,-1.9105,-1.8958,-1.8624,-1.841,-1.8277,-1.8103,-1.7956,-1.7822,-1.7635,-1.7582,-1.7582,-1.7582,-1.7582,-1.7582,-1.7582,-1.7582,-1.7582,-1.7582,-1.7582,-1.7582,-1.7582,-1.7582,-1.7582,-1.7582,-1.7582,-1.7582,-1.7582,-1.7582,-1.7582,-1.7582,-1.7582,-1.7542,-1.7422,-1.7154,-1.6967,-1.6967,-1.6807,-1.67,-1.67,-1.8361,-1.9069,-1.8155,-1.8349,-1.7732,-1.6195,-1.6086,-1.6005,-1.5832,-1.4076,-1.2716,-1.195,-1.0092,-0.8825,-0.8038,-0.8038,-0.8038,-0.8038,-0.8133,-0.847,-1.1824,-1.0309,0.0,-0.9182,-0.8081,-0.6926,-0.69,-0.7039,-0.7302,-0.7374,-0.7601,-0.8481,-1.0431,-1.2407,-1.4097,-1.5566,-1.6767,-1.7422,-1.7351,-1.7448,-1.7502,-1.7288,-1.7462,-1.7702,-1.8023,-1.8317,-1.8611,-1.8905,-1.9199,-1.9372,-1.9372,-1.9372,-1.9372,-1.9372,-1.9372,-1.9372,-1.9372,-1.9372,-1.9372,-1.9372,-1.9372,-1.9372,-1.9372,-1.9372,-1.9372,-1.9372,-1.9372,-1.9372,-1.9372,-1.9372,-1.9372,-1.9372,-1.9372,-1.9372,-1.9319,-1.8891,-1.8677,-1.8584,-1.8357,-1.8183,-1.8009,-1.7782,-1.7716,-1.7716,-1.7716,-1.7769,-1.7809,-1.7729,-1.7716,-1.7689,-1.7609,-1.7582,-1.7582,-1.7582,-1.7582,-1.7582,-1.7582,-1.7582,-1.7582,-1.7582,-1.7582,-1.7582,-1.7582,-1.7582,-1.7582,-1.7582,-1.7395,-1.7275,-1.7275,-1.7074,-1.7042,-1.7434,-1.8225,-1.8396,-1.7424,-1.8209,-1.8065,-1.6505,-1.6393,-1.6299,-1.6086,-1.4874,-1.3464,-1.2041,-1.0762,-0.9458,-0.8038,-0.8079,-0.8106,-0.8106,-0.8255,-0.833,-1.1516,-1.0363,-0.934,-0.9636,-0.8553,-0.7394,-0.7543,-0.759,-0.7634,-0.7892,-0.8031,-0.8018,-0.8062,-1.0867,-1.3445,-1.4329,-1.5884,-1.7144,-1.7488,-1.7569,-1.7582,-1.7569,-1.7582,-1.7702,-1.8023,-1.8317,-1.8611,-1.8905,-1.9199,-1.9372,-1.9372,-1.9372,-1.9372,-1.9372,-1.9372,-1.9372,-1.9372,-1.9372,-1.9372,-1.9372,-1.9372,-1.9372,-1.9372,-1.9372,-1.9372,-1.9372,-1.9372,-1.9372,-1.9372,-1.9372,-1.9372,-1.9372,-1.9372,-1.9372,-1.9359,-1.9345,-1.9158,-1.8905,-1.8905,-1.8531,-1.805,-1.8036,-1.8036,-1.8036,-1.8036,-1.8237,-1.8397,-1.8116,-1.8036,-1.7969,-1.7662,-1.7582,-1.7582,-1.7582,-1.7582,-1.7582,-1.7582,-1.7582,-1.7582,-1.7582,-1.7582,-1.7582,-1.7582,-1.7582,-1.7582,-1.7582,-1.7569,-1.7569,-1.7569,-1.7555,-1.8067,-1.9391,-1.9494,-1.9478,-1.9164,-1.9134,-1.8498,-1.6814,-1.6687,-1.6687,-1.6673,-1.5444,-1.4004,-1.2374,-1.1061,-0.9578,-0.8038,-0.8187,-0.8262,-0.8269,-0.8411,-0.8472,-1.2532,-1.134,-1.0119,-1.0562,-0.9117,-0.7706,-0.7855,-0.7831,-0.7878,-0.8031,-0.8038,-0.852,-1.0253,-1.1766,-1.338,-1.5607,-1.6714,-1.7472,-1.7555,-1.7929,-1.7969,-1.7368,-1.7649,-1.7769,-1.7475,-1.7903,-1.8397,-1.8891,-1.9011,-1.9158,-1.9359,-1.9372,-1.9372,-1.9372,-1.9372,-1.9372,-1.9372,-1.9372,-1.9372,-1.9372,-1.9372,-1.9372,-1.9372,-1.9372,-1.9372,-1.9372,-1.9372,-1.9372,-1.9372,-1.9372,-1.9372,-1.9372,-1.9372,-1.9372,-1.9372,-1.9372,-1.9305,-1.9185,-1.8998,-1.8798,-1.8597,-1.841,-1.8343,-1.8343,-1.8343,-1.841,-1.8464,-1.837,-1.8343,-1.8277,-1.7969,-1.7889,-1.7836,-1.7635,-1.7582,-1.7582,-1.7582,-1.7582,-1.7582,-1.7582,-1.7582,-1.7582,-1.7582,-1.7582,-1.7582,-1.7582,-1.7582,-1.7582,-1.7582,-1.7582,-1.7793,-1.8199,-1.8304,-1.8262,-1.8164,-1.8151,-1.7819,-1.7123,-1.7007,-1.6914,-1.6714,-1.6299,-1.5431,-1.4015,-1.2588,-1.1132,-0.9753,-0.8895,-0.8411,-0.8418,-0.8567,-0.8635,-1.3227,-1.1989,-1.0761,-1.1109,-0.9577,-0.7916,-0.8018,-0.8038,-0.8024,-0.797,-0.7957,-0.8441,-1.0184,-1.1298,-1.2758,-1.498,-1.6394,-1.7382,-1.7702,-1.809,-1.8156,-1.7689,-1.7876,-1.7943,-1.7662,-1.7983,-1.8357,-1.8744,-1.8958,-1.9158,-1.9359,-1.9372,-1.9372,-1.9372,-1.9372,-1.9372,-1.9372,-1.9372,-1.9372,-1.9372,-1.9372,-1.9372,-1.9372,-1.9372,-1.9372,-1.9372,-1.9372,-1.9372,-1.9372,-1.9372,-1.9372,-1.9372,-1.9372,-1.9372,-1.9372,-1.9372,-1.9372,-1.9345,-1.9145,-1.9011,-1.8891,-1.8704,-1.8651,-1.8651,-1.8651,-1.8718,-1.8784,-1.8677,-1.8651,-1.8571,-1.8277,-1.821,-1.813,-1.7822,-1.7742,-1.7716,-1.7609,-1.7582,-1.7582,-1.7582,-1.7582,-1.7582,-1.7582,-1.7582,-1.7582,-1.7582,-1.7582,-1.7582,-1.7582,-1.7582,-1.7582,-1.7582,-1.7582,-1.7582,-1.7582,-1.7582,-1.7502,-1.7315,-1.7301,-1.7221,-1.7021,-1.7021,-1.6343,-1.4993,-1.3442,-1.2048,-1.0742,-0.9264,-0.856,-0.8567,-0.8723,-0.8791,-1.3627,-1.2482,-1.1261,-1.1462,-0.9761,-0.8038,-0.8038,-0.8031,-0.7991,-0.8042,-0.7801,-0.7787,0.0,0.0,-1.166,-1.2739,-1.5065,-1.7048,-1.7929,-1.809,-1.821,0.0,0.0,0.0,0.0,0.0,0.0,-1.8517,-1.9025,-1.9359,-1.9372,-1.9372,-1.9372,-1.9372,-1.9372,-1.9372,-1.9372,-1.9372,-1.9372,-1.9243,-1.9372,-1.9372,-1.9372,-1.9372,-1.9372,-1.9372,-1.9372,-1.9372,-1.9372,-1.9372,-1.9372,-1.9372,-1.9372,-1.9372,-1.9372,-1.9372,-1.9372,-1.9372,-1.9372,-1.9185,-1.8945,-1.8945,-1.8945,-1.8945,-1.8945,-1.9145,-1.9305,-1.9025,-1.8945,-1.8878,-1.8584,-1.8517,-1.8437,-1.8116,-1.805,-1.7956,-1.7649,-1.7582,-1.7582,-1.7609,-1.7609,-1.7595,-1.7582,-1.7582,-1.7582,-1.7582,-1.7582,-1.7582,-1.7582,-1.7582,-1.7582,-1.7582,-1.7582,-1.7582,-1.7582,-1.7582,-1.7582,-1.7582,-1.7582,-1.7582,-1.7582,-1.7582,-1.6911,-1.5395,-1.3898,-1.2421,-1.088,-0.9496,-0.8831,-0.8723,-0.8879,-0.8947,-1.4482,-1.389,-1.2925,-1.2032,-1.0635,-0.9213,-0.8237,-0.795,-0.7862,-0.8021,-0.7732,-0.7468,0.0,0.0,0.0,-1.3676,-1.5859,0.0,-1.7983,-1.8611,0.0,-1.8531,0.0,-1.8651,-1.8504,-1.8691,0.0,0.0,-1.8945,-1.9132,-1.9359,-1.9372,-1.9372,-1.9372,-1.9372,-1.9372,-1.9372,-1.9372,-1.8765,-1.7677,-1.8881,-1.9372,-1.9372,-1.9372,-1.9372,-1.9372,-1.9372,-1.9372,-1.9372,-1.9372,-1.9372,-1.9372,-1.9372,-1.9372,-1.9372,-1.9372,-1.9372,-1.9372,-1.9372,-1.9319,-1.9252,-1.9252,-1.9252,-1.9252,-1.9252,-1.9305,-1.9359,-1.9279,-1.9252,-1.9185,-1.8891,-1.8811,-1.8677,-1.817,-1.805,-1.7956,-1.7649,-1.7582,-1.7649,-1.7876,-1.7929,-1.7849,-1.7622,-1.7582,-1.7582,-1.7582,-1.7582,-1.7582,-1.7582,-1.7582,-1.7582,-1.7582,-1.7582,-1.7582,-1.7582,-1.7582,-1.7582,-1.7582,-1.7582,-1.7582,-1.7582,-1.7582,-1.7437,-1.7042,-1.5541,-1.4104,-1.2666,-1.1225,-0.996,-0.8886,-0.9028,-0.9096,-1.503,-1.4528,-1.3584,-1.2231,-1.0974,-0.9583,-0.8245,-0.7875,-0.7753,-0.765,-0.7464,-0.7307,-0.7048,-0.8996,-1.1302,0.0,0.0,0.0,-1.8143,-1.8664,-1.8958,0.0,-1.8905,0.0,-1.8878,-1.9025,-1.9118,-1.9118,-1.9118,-1.9185,-1.9359,-1.9372,-1.9372,-1.9372,-1.9372,-1.901,-1.8402,-1.901,-1.8648,-1.6973,-1.8648,-1.9372,-1.9372,-1.9372,-1.9372,-1.9372,-1.9372,-1.9372,-1.9372,-1.9372,-1.9372,-1.9372,-1.9372,-1.9372,-1.9372,-1.9372,-1.9372,-1.9372,-1.9372,-1.9372,-1.9372,-1.9372,-1.9372,-1.9372,-1.9372,-1.9372,-1.9372,-1.9372,-1.9372,-1.9332,-1.9158,-1.9118,-1.8998,-1.8544,-1.8424,-1.8343,-1.805,-1.7983,-1.8036,-1.821,-1.8237,-1.8183,-1.8009,-1.7876,-1.7782,-1.7782,-1.7662,-1.7582,-1.7582,-1.7582,-1.7582,-1.7582,-1.7582,-1.7582,-1.7582,-1.7582,-1.7582,-1.7582,-1.7582,-1.7582,-1.7582,-1.7582,-1.7582,-1.7582,-1.6168,-1.4663,-1.3264,-1.1836,-1.0453,-0.9035,-0.9184,-0.9252,-1.5378,-1.4867,-1.3776,-1.2242,-1.1072,-0.9853,-0.8132,-0.778,-0.7638,-0.7224,-0.7236,-0.7139,-0.6793,-0.8284,-1.0183,-1.2067,0.0,-1.7128,-1.8317,-1.8517,-1.8758,-1.9305,-1.9132,-1.9078,-1.9345,-1.9372,-1.9372,-1.9372,-1.9372,-1.9372,-1.9372,-1.9372,-1.9372,-1.9372,-1.9372,-1.8648,-1.6973,-1.8402,-1.8402,-1.6973,-1.8402,-1.9243,-1.9372,-1.9372,-1.9372,-1.9372,-1.9372,-1.9372,-1.9372,-1.9372,-1.9372,-1.9372,-1.9372,-1.9372,-1.9372,-1.9372,-1.9243,-1.9127,-1.9127,-1.9127,-1.9127,-1.9372,-1.9372,-1.9372,-1.9372,-1.9372,-1.9372,-1.9372,-1.9372,-1.9372,-1.9372,-1.9372,-1.9292,-1.8998,-1.8918,-1.8838,-1.8557,-1.8517,-1.8544,-1.8504,-1.8517,-1.8544,-1.8504,-1.8277,-1.8103,-1.8103,-1.7876,-1.7702,-1.7702,-1.7635,-1.7582,-1.7582,-1.7582,-1.7582,-1.7582,-1.7582,-1.7582,-1.7582,-1.7582,-1.7582,-1.7582,-1.7622,-1.7649,-1.7649,-1.648,-1.4979,-1.3355,-1.2219,-1.0852,-0.9184,-0.934,-0.9408,-1.5671,-1.5602,-1.4854,-1.2533,-1.1755,-1.0919,-0.8423,-0.7624,0.0,0.0,-0.6894,-0.6687,-0.6465,-0.7835,-0.9648,-1.171,-1.4618,-1.7128,-1.8317,-1.8691,-1.8971,0.0,-1.9319,-1.9319,-1.9359,-1.9372,0.0,0.0,-1.9372,-1.9372,-1.9372,-1.9372,-1.9372,-1.9372,-1.9372,-1.8648,-1.6973,-1.7325,-1.7325,-1.6962,-1.7325,-1.8156,-1.9372,-1.9372,-1.9372,-1.9372,-1.9372,-1.9372,-1.9372,-1.9372,-1.9372,-1.9372,-1.9372,-1.9372,-1.9372,-1.9372,-1.8519,-1.7443,-1.7443,-1.7443,-1.7689,-1.901,-1.9372,-1.9372,-1.9372,-1.9372,-1.9372,-1.9372,-1.9372,-1.9372,-1.9372,-1.9372,-1.9292,-1.8998,-1.8918,-1.8838,-1.8557,-1.8677,-1.8784,-1.8544,-1.8691,-1.8771,-1.8531,-1.845,-1.841,-1.841,-1.837,-1.833,-1.833,-1.7889,-1.7582,-1.7582,-1.7582,-1.7582,-1.7582,-1.7582,-1.7582,-1.7582,-1.7582,-1.7582,-1.7582,-1.7822,-1.7969,-1.7969,-1.7978,-1.6636,-1.382,-1.3512,-1.2065,-0.9347,-0.9496,-0.9571,-1.5792,-1.5832,-1.5343,-1.3403,-1.2436,-1.1347,-0.9051,0.0,0.0,-0.6871,-0.6668,-0.6713,-0.6984,-0.8963,0.0,-1.226,-1.4502,-1.6486,-1.7822,-1.8143,-1.845,-1.9065,-1.9279,-1.9372,-1.9372,-1.9372,-1.9372,-1.9372,-1.9372,-1.9372,-1.9372,-1.9372,-1.9372,-1.9372,-1.9372,-1.8286,-1.5784,-1.6609,-1.6609,-1.5784,-1.6609,-1.7806,-1.9372,-1.9372,-1.9372,-1.9372,-1.9372,-1.9372,-1.9372,-1.9372,-1.9372,-1.9372,-1.9372,-1.9372,-1.9372,-1.9372,-1.8402,-1.6962,-1.6962,-1.6879,-1.6878,-1.7596,-1.8429,-1.9158,-1.9319,-1.9265,-1.9172,-1.9319,-1.9372,-1.9372,-1.9372,-1.9372,-1.9332,-1.9185,-1.9158,-1.9118,-1.8971,-1.9052,-1.9118,-1.8971,-1.9065,-1.9105,-1.8971,-1.8811,-1.8718,-1.8718,-1.8584,-1.849,-1.849,-1.8237,-1.7996,-1.7836,-1.7956,-1.7929,-1.7609,-1.7876,-1.7983,-1.7836,-1.7969,-1.805,-1.805,-1.8196,-1.8277,-1.8277,-1.8424,-1.7005,-1.3932,-1.4043,-1.249,-0.9503,-0.9652,-0.972,-1.5805,-1.5832,-1.5534,-1.4268,-1.2876,-1.1421,-0.9731,-0.8274,0.0,-0.6539,-0.6527,-0.6754,-0.7584,-0.9963,-1.2064,0.0,-1.427,-1.5792,-1.7194,-1.7502,-1.7889,0.0,-1.9092,0.0,-1.9359,-1.9372,0.0,-1.9372,-1.9372,-1.9372,-1.9372,-1.9372,-1.9372,-1.9372,-1.9372,-1.8052,-1.5192,-1.602,-1.602,-1.5074,-1.602,-1.7572,-1.9372,-1.9372,-1.9372,-1.9372,-1.9372,-1.9372,-1.9372,-1.9372,-1.9332,-1.9265,-1.9265,-1.9239,-1.9185,-1.9185,-1.7993,-1.6332,-1.6332,-1.6195,-1.592,-1.592,-1.72,-1.8878,-1.9185,-1.9105,-1.8985,-1.9279,-1.9372,-1.9372,-1.9372,-1.9372,-1.9372,-1.9372,-1.9372,-1.9372,-1.9372,-1.9372,-1.9372,-1.9372,-1.9372,-1.9372,-1.9372,-1.9172,-1.9025,-1.9025,-1.8824,-1.8677,-1.8677,-1.8677,-1.8571,-1.8263,-1.8384,-1.8303,-1.7822,-1.821,-1.8397,-1.8156,-1.8357,-1.849,-1.849,-1.8557,-1.8584,-1.8584,-1.8651,-1.7178,-1.4073,-1.4245,-1.2696,-0.9659,-0.9768,-0.9822,-1.5752,-1.5832,-1.5534,-1.4268,-1.2841,-1.1328,-0.9704,0.0,-0.6668,-0.6349,-0.6291,-0.6611,-0.7368,-0.9438,-1.1329,-1.2433,0.0,-1.5206,-1.662,-1.7248,-1.7822,-1.845,0.0,0.0,-1.9345,-1.9372,-1.9372,-1.9372,-1.9372,-1.9372,-1.9372,-1.9372,-1.9372,-1.9372,-1.9372,-1.8519,-1.6844,-1.5429,-1.5429,-1.6727,-1.5429,-1.6385,-1.9372,-1.9372,-1.9372,-1.9372,-1.9372,-1.9372,-1.9372,-1.9372,-1.9212,-1.8958,-1.8958,-1.8798,-1.8571,-1.8571,-1.673,-1.422,-1.422,-1.421,-1.4189,-1.4189,-1.6133,-1.8584,-1.8878,-1.8945,-1.8985,-1.9279,-1.9372,-1.9372,-1.9372,-1.9372,-1.9372,-1.9372,-1.9372,-1.9372,-1.9372,-1.9372,-1.9372,-1.9372,-1.9372,-1.9372,-1.9372,-1.9345,-1.9332,-1.9332,-1.9305,-1.9292,-1.9292,-1.9292,-1.9172,-1.8878,-1.8637,-1.8464,-1.841,-1.8464,-1.8477,-1.845,-1.8477,-1.849,-1.849,-1.8744,-1.8878,-1.8878,-1.9145,-1.7744,-1.4538,-1.4559,-1.2901,-0.9802,-0.9815,-0.9822,-1.5886,-1.5832,-1.5629,-1.514,-1.3874,-1.2292,-1.0701,-0.898,-0.7384,-0.6353,-0.6132,-0.6596,-0.8153,-0.9397,-1.083,-1.2858,0.0,0.0,-1.5752,-1.6273,-1.682,-1.7595,-1.8263,0.0,0.0,0.0,-1.9372,-1.9372,-1.9372,-1.9372,-1.9372,-1.9372,-1.9372,-1.9372,-1.9372,-1.8169,-1.5548,-1.5902,-1.5902,-1.5548,-1.5902,-1.7208,-1.9372,-1.9372,-1.9372,-1.9372,-1.9372,-1.9372,-1.9359,-1.9172,-1.9025,-1.8905,-1.8731,-1.8597,-1.849,-1.849,-1.6546,-1.3932,-1.3932,-1.3841,-1.3628,-1.3628,-1.5638,-1.8063,-1.8731,-1.8798,-1.8758,-1.9239,-1.9372,-1.9372,-1.9372,-1.9372,-1.9372,-1.9372,-1.9372,-1.9372,-1.9372,-1.9372,-1.9372,-1.9372,-1.9372,-1.9372,-1.9372,-1.9372,-1.9372,-1.9372,-1.9372,-1.9372,-1.9372,-1.9372,-1.9319,-1.9199,-1.9092,-1.8878,-1.8517,-1.8811,-1.8945,-1.8758,-1.8918,-1.9011,-1.9011,-1.9132,-1.9185,-1.9185,-1.9305,-1.8286,-1.602,-1.5074,-1.3407,-1.1261,-1.0301,-0.9822,-1.579,-1.5765,-1.5832,-1.5832,-1.4296,-1.2551,-1.1271,-0.934,-0.7391,-0.6193,-0.5928,-0.6485,-0.863,-0.9319,-1.0351,0.0,0.0,-1.3904,-1.499,-1.5538,-1.6126,-1.6927,0.0,-1.8277,-1.8744,-1.9145,-1.9332,-1.9239,-1.9239,-1.9199,-1.9233,-1.9233,-1.9145,-1.9239,-1.9239,-1.7658,-1.4407,-1.5926,-1.5926,-1.4407,-1.6031,-1.7572,-1.9105,-1.9105,-1.9105,-1.9105,-1.9105,-1.9105,-1.9092,-1.8878,-1.8744,-1.8637,-1.8437,-1.8303,-1.8223,-1.8223,-1.6306,-1.373,-1.373,-1.3639,-1.3397,-1.3397,-1.536,-1.7716,-1.8437,-1.8517,-1.8464,-1.8971,-1.9172,-1.9252,-1.9345,-1.9372,-1.9372,-1.9372,-1.9372,-1.9372,-1.9372,-1.9372,-1.9372,-1.9372,-1.9372,-1.9372,-1.9372,-1.9372,-1.9372,-1.9372,-1.9372,-1.9372,-1.9372,-1.9372,-1.9372,-1.9372,-1.9372,-1.9199,-1.8784,-1.9132,-1.9279,-1.9065,-1.9252,-1.9372,-1.9372,-1.9372,-1.9372,-1.9372,-1.9372,-1.8648,-1.6962,-1.5429,-1.3765,-1.2217,-1.0536,-0.9822,-1.5422,-1.5605,-1.5832,-1.5832,-1.3683,-1.1434,-1.1065,-0.8556,-0.6256,-0.5867,-0.5691,-0.6256,-0.8444,-0.8949,-0.9922,-1.2424,-1.3174,0.0,-1.4442,-1.5284,-1.6046,0.0,0.0,-1.7515,-1.841,-1.9025,-1.9239,-1.8945,-1.8931,0.0,-1.8766,-1.8628,-1.8637,-1.8918,-1.8931,-1.7276,-1.3942,-1.5412,-1.5412,-1.3942,-1.5412,-1.7005,-1.8504,-1.8504,-1.8504,-1.8504,-1.8504,-1.8504,0.0,-1.8504,-1.8317,-1.805,-1.805,-1.7862,-1.7595,-1.7595,-1.5755,-1.3275,-1.3275,-1.3275,-1.3264,-1.3264,-1.5209,-1.7649,-1.7956,-1.805,-1.8116,-1.841,-1.8704,-1.8998,-1.9292,-1.9372,-1.9372,-1.9372,-1.9372,-1.9372,-1.9372,-1.9372,-1.9372,-1.9372,-1.9372,-1.9372,-1.9372,-1.9372,-1.9372,-1.9372,-1.9372,-1.9372,-1.9372,-1.9372,-1.9372,-1.9372,-1.9372,-1.9359,-1.9359,-1.9359,-1.9372,-1.9359,-1.9372,-1.9372,-1.9372,-1.9372,-1.9372,-1.9372,-1.9372,-1.8648,-1.6962,-1.5429,-1.3765,-1.2217,-1.0536,-0.9822,-1.5282,-1.5057,-1.4843,-1.4429,-1.3579,-1.2493,-1.0813,-0.936,-0.7877,-0.6129,-0.5691,-0.6218,-0.8176,-0.8643,-0.955,-1.2067,-1.2593,0.0,0.0,0.0,0.0,-1.6006,-1.7091,-1.7956,0.0,0.0,-1.8843,-1.8888,-1.8749,-1.8597,-1.8615,-1.849,-1.8655,-1.8874,-1.8749,-1.7092,-1.3932,-1.5401,-1.5401,-1.3932,-1.5513,-1.6993,-1.849,-1.849,-1.849,-1.849,-1.849,-1.849,-1.8477,-1.8277,-1.813,-1.8023,-1.7809,-1.7662,-1.7582,-1.7582,-1.6393,-1.4556,-1.3588,-1.3911,-1.4556,-1.3588,-1.5209,-1.7595,-1.7702,-1.7876,-1.8103,-1.841,-1.8557,-1.8691,-1.8985,-1.9065,-1.9118,-1.9319,-1.9372,-1.9372,-1.9372,-1.9372,-1.9372,-1.9372,-1.9372,-1.9372,-1.9372,-1.9372,-1.9372,-1.9372,-1.9372,-1.9372,-1.9372,-1.9372,-1.9372,-1.9372,-1.9372,-1.9372,-1.9372,-1.9372,-1.9372,-1.9372,-1.9372,-1.9372,-1.9372,-1.9372,-1.9372,-1.9372,-1.9372,-1.9127,-1.8648,-1.5913,-1.3168,-1.0536,-1.0058,-0.9876,-1.5726,-1.5249,-1.4614,-1.4352,-1.3532,-1.2326,-1.0519,-0.9236,-0.7978,-0.61,-0.5603,-0.6128,-0.8068,-0.847,-0.9281,-1.1665,-1.2632,-1.34,0.0,0.0,0.0,-1.5959,0.0,0.0,0.0,-1.8343,-1.845,-1.87,-1.8453,-1.8277,-1.8156,-1.8143,-1.8265,-1.8387,-1.8277,-1.7029,-1.4457,-1.5452,-1.5452,-1.4457,-1.5452,-1.6685,-1.8143,-1.8143,-1.8143,-1.8143,-1.8143,-1.8143,0.0,-1.7956,-1.7876,-1.7849,-1.7662,-1.7582,-1.7582,-1.7582,-1.6711,-1.5198,-1.3804,-1.4234,-1.5198,-1.3804,-1.5209,-1.7582,-1.7582,-1.7716,-1.7929,-1.8237,-1.833,-1.8384,-1.8691,-1.8758,-1.8838,-1.9132,-1.9199,-1.9225,-1.9345,-1.9372,-1.9372,-1.9372,-1.9372,-1.9372,-1.9372,-1.9372,-1.9372,-1.9372,-1.9372,-1.9372,-1.9372,-1.9372,-1.9372,-1.9372,-1.9372,-1.9372,-1.9372,-1.9372,-1.9372,-1.9372,-1.9372,-1.9372,-1.9372,-1.9372,-1.9372,-1.9372,-1.9372,-1.9372,-1.9372,-1.6149,-1.2973,-0.991,-0.991,-0.9992,0.0,-1.6,-1.5048,-1.5316,-1.3481,-1.1382,-1.0207,-0.8606,0.0,-0.5894,-0.5535,-0.6,-0.8068,-0.8435,-0.9094,-1.13,-1.3287,-1.4635,0.0,-1.5821,0.0,0.0,-1.7061,0.0,-1.7582,-1.7968,-1.8194,-1.8415,-1.8266,-1.801,-1.7595,-1.7582,-1.7582,-1.7582,-1.7862,-1.7098,-1.5423,-1.5411,-1.5411,-1.5411,-1.5411,-1.6168,-1.7582,-1.7582,-1.7582,-1.7582,-1.7582,-1.7582,-1.7582,-1.7582,-1.7582,-1.7582,-1.7582,-1.7582,-1.7582,-1.7582,-1.6711,-1.5304,-1.3804,-1.4341,-1.5304,-1.4019,-1.5423,-1.7582,-1.7582,-1.7582,-1.7649,-1.7929,-1.8009,-1.8076,-1.8384,-1.8464,-1.8544,-1.8851,-1.8918,-1.8998,-1.9305,-1.9372,-1.9372,-1.9372,-1.9372,-1.9372,-1.9372,-1.9372,-1.9372,-1.9372,-1.9372,-1.9372,-1.9372,-1.9372,-1.9372,-1.9372,-1.9372,-1.9372,-1.9372,-1.9372,-1.9372,-1.9372,-1.9372,-1.9372,-1.9372,-1.9372,-1.9372,-1.9372,-1.9372,-1.9359,-1.9243,-1.6149,-1.3036,-1.017,-1.0046,-1.0141,-1.7246,0.0,-1.5292,-1.4155,-1.3607,-1.2892,0.0,-0.988,-0.8581,-0.6941,-0.5933,-0.6104,-0.8324,-0.8538,-0.8911,-1.0557,-1.4073,-1.6314,-1.5647,-1.6327,0.0,-1.6806,-1.7298,-1.7582,-1.7582,-1.7702,-1.7769,-1.7822,-1.7808,-1.7662,-1.7582,-1.7582,-1.7582,-1.7582,-1.7649,-1.7,-1.5423,-1.5411,-1.5411,-1.5411,-1.5411,-1.6168,-1.7582,-1.7582,-1.7582,-1.7582,-1.7582,-1.7582,-1.7582,-1.7582,-1.7582,-1.7582,-1.7582,-1.7582,-1.7582,-1.7582,-1.7371,-1.6711,-1.4126,-1.4995,-1.7041,-1.6711,-1.7041,-1.7582,-1.7582,-1.7582,-1.7595,-1.7675,-1.7689,-1.7756,-1.8076,-1.8156,-1.8277,-1.8798,-1.8918,-1.8998,-1.9305,-1.9372,-1.9372,-1.9372,-1.9372,-1.9372,-1.9372,-1.9372,-1.9372,-1.9372,-1.9372,-1.9372,-1.9372,-1.9372,-1.9372,-1.9372,-1.9372,-1.9372,-1.9372,-1.9372,-1.9372,-1.9372,-1.9372,-1.9372,-1.9372,-1.9372,-1.9372,-1.9372,-1.9372,-1.8765,-1.756,-1.5548,-1.3639,-1.1765,-1.0543,-1.0188,-1.6929,-1.6224,-1.5228,-1.4577,-1.4161,-1.3607,-1.2653,-1.1163,-0.9303,0.0,0.0,-0.6547,-0.8265,-0.859,-0.9087,-1.0715,-1.3959,-1.6304,0.0,0.0,-1.6827,-1.6827,-1.7338,-1.7582,0.0,-1.7582,-1.7582,-1.7582,-1.7582,-1.7515,-1.716,-1.7264,-1.7211,-1.7065,-1.7181,-1.699,-1.6393,-1.5743,-1.5743,-1.6393,-1.5743,-1.6168,-1.7582,-1.7582,-1.7582,-1.7582,-1.7582,-1.7582,-1.7582,-1.7582,-1.7582,-1.7582,-1.7582,-1.7582,-1.7582,-1.7582,-1.7582,-1.7252,-1.4984,-1.5316,-1.6711,-1.7371,-1.7582,-1.7582,-1.7582,-1.7582,-1.7582,-1.7582,-1.7582,-1.7622,-1.7796,-1.7836,-1.7983,-1.8584,-1.8731,-1.8838,-1.9279,-1.9372,-1.9372,-1.9372,-1.9372,-1.9372,-1.9372,-1.9372,-1.9372,-1.9372,-1.9372,-1.9372,-1.9372,-1.9372,-1.9372,-1.9372,-1.9372,-1.9372,-1.9372,-1.9372,-1.9372,-1.9372,-1.9372,-1.9372,-1.9372,-1.9372,-1.9372,-1.9372,-1.9372,-1.8648,-1.6962,-1.5417,-1.3892,-1.2499,-1.0966,-1.0378,-1.657,-1.5994,-1.5468,-1.5702,-1.5196,-1.4515,-1.4208,0.0,0.0,0.0,0.0,0.0,-0.7806,-0.8383,0.0,-1.1501,0.0,0.0,-1.6891,-1.6882,-1.6647,-1.6647,-1.7114,0.0,-1.7448,-1.7448,-1.7448,-1.7448,-1.7448,-1.7224,-1.6741,-1.6856,-1.6737,-1.6373,-1.66,-1.6941,-1.7448,-1.6268,-1.6268,-1.7448,-1.6163,-1.6293,-1.7515,-1.7515,-1.7542,-1.7582,-1.7582,0.0,-1.7582,-1.7582,-1.7582,-1.7582,-1.7582,-1.7582,-1.7582,-1.7582,-1.7582,-1.7477,-1.6168,-1.5423,-1.5316,-1.7041,-1.7582,-1.7582,-1.7582,-1.7582,-1.7582,-1.7582,-1.7582,-1.7582,-1.7582,-1.7582,-1.7729,-1.8343,-1.849,-1.8651,-1.9239,-1.9372,-1.9372,-1.9372,-1.9372,-1.9372,-1.9372,-1.9372,-1.9372,-1.9372,-1.9372,-1.9372,-1.9372,-1.9372,-1.9372,-1.9372,-1.9372,-1.9372,-1.9372,-1.9372,-1.9372,-1.9372,-1.9372,-1.9372,-1.9372,-1.9372,-1.9372,-1.9372,-1.9372,-1.8765,-1.7325,-1.5654,-1.4175,-1.3018,-1.1313,-1.0575,-1.7638,-1.8017,-1.7861,-1.6872,-1.7222,-1.7297,-1.5527,0.0,0.0,0.0,0.0,0.0,0.0,-0.7442,-0.9849,0.0,0.0,-1.612,0.0,0.0,-1.6339,-1.6339,0.0,-1.6847,-1.6847,-1.6847,-1.6847,-1.6847,-1.6847,-1.682,-1.6995,-1.678,-1.664,-1.6373,-1.66,-1.6754,-1.6847,-1.6632,-1.6632,-1.6847,-1.6632,-1.6764,-1.7208,-1.7208,-1.7355,-1.7582,0.0,-1.7582,-1.7582,-1.7582,-1.7582,-1.7582,-1.7582,-1.7582,-1.7582,-1.7582,-1.7582,-1.7582,-1.7358,-1.5636,-1.4019,-1.6711,-1.7582,-1.7582,-1.7582,-1.7582,-1.7582,-1.7582,-1.7582,-1.7582,-1.7582,-1.7582,-1.7729,-1.8343,-1.849,-1.8651,-1.9239,-1.9372,-1.9372,-1.9372,-1.9372,-1.9372,-1.9372,-1.9372,-1.9372,-1.9372,-1.9372,-1.9372,-1.9372,-1.9372,-1.9372,-1.9372,-1.9372,-1.9372,-1.9372,-1.9372,-1.9372,-1.9372,-1.9372,-1.9372,-1.9372,-1.9372,-1.9372,-1.9372,-1.9372,-1.9243,-1.901,-1.6133,-1.4789,-1.4634,-1.1818,-1.0575,-1.7238,-1.8251,-1.9058,-1.8181,-1.9041,-1.9356,-1.6417,0.0,0.0,0.0,0.0,0.0,0.0,0.0,-1.0875,-1.4252,0.0,-1.6035,-1.6612,-1.6471,-1.6273,0.0,0.0,-1.67,-1.67,-1.67,-1.67,-1.67,-1.67,-1.6647,-1.6599,-1.6572,-1.6393,-1.6122,-1.6122,-1.6233,-1.6233,-1.6233,-1.6393,-1.67,-1.67,-1.678,-1.6914,-1.6914,-1.6981,-1.7101,0.0,-1.7101,-1.7128,-1.7288,-1.7341,-1.7368,-1.7515,-1.7582,-1.7582,-1.7582,-1.7147,-1.6499,-1.7371,-1.6168,-1.477,-1.6935,-1.7582,-1.7582,-1.7582,-1.7582,-1.7582,-1.7582,-1.7582,-1.7582,-1.7582,-1.7582,-1.7689,-1.8143,-1.837,-1.8611,-1.9038,-1.9252,-1.9372,-1.9372,-1.9372,-1.9372,-1.9372,-1.9372,-1.9372,-1.9372,-1.9372,-1.9372,-1.9372,-1.9372,-1.9372,-1.9372,-1.9372,-1.9372,-1.9372,-1.9372,-1.9372,-1.9372,-1.9372,-1.9372,-1.9372,-1.9372,-1.9372,-1.9372,-1.9372,-1.9439,-1.9599,-1.6464,-1.5092,-1.5187,-1.2087,-1.0656,-1.7288,-1.8446,-1.9597,-1.9584,-2.0325,-2.0276,-1.7244,0.0,0.0,0.0,0.0,0.0,0.0,-1.0936,0.0,-1.5048,-1.571,-1.5792,-1.5805,-1.6019,-1.6166,-1.6166,-1.6366,-1.65,-1.65,-1.65,-1.65,-1.65,-1.65,-1.6406,-1.6179,-1.6166,-1.6072,-1.5832,-1.5832,-1.5832,-1.5832,-1.5832,-1.6059,-1.65,-1.65,-1.654,-1.6607,-1.6607,-1.6647,-1.67,-1.67,-1.67,-1.6727,-1.6954,-1.7048,-1.7074,-1.7368,-1.7515,-1.7582,-1.7582,-1.6499,-1.5198,-1.6935,-1.6393,-1.5198,-1.7041,-1.7582,-1.7582,-1.7582,-1.7582,-1.7582,-1.7582,-1.7582,-1.7582,-1.7582,-1.7582,-1.7662,-1.7969,-1.8277,-1.8571,-1.8865,-1.9158,-1.9372,-1.9372,-1.9372,-1.9372,-1.9372,-1.9372,-1.9372,-1.9372,-1.9372,-1.9372,-1.9372,-1.9372,-1.9372,-1.9372,-1.901,-1.8881,-1.8881,-1.9127,-1.9372,-1.9372,-1.9372,-1.9372,-1.9372,-1.9372,-1.9372,-1.9372,-1.9439,-1.9573,-1.98,-1.6686,-1.5292,-1.5463,-1.2203,-1.0717,-1.9149,-1.9297,-1.9408,-2.0939,-2.0536,0.0,-1.8218,-1.5644,0.0,-1.0564,0.0,0.0,0.0,-1.3176,-1.5499,-1.5712,-1.5805,-1.5805,-1.5832,0.0,-1.5858,-1.5858,-1.5885,-1.5885,-1.5885,-1.5885,-1.5885,-1.5885,-1.5885,-1.5885,-1.5858,-1.5858,-1.5845,-1.5832,-1.5832,-1.5832,-1.5832,-1.5832,-1.5845,-1.5885,-1.5885,-1.6032,-1.6299,-1.6299,-1.6446,-1.67,-1.67,-1.67,-1.67,-1.6727,-1.674,-1.6767,-1.7061,-1.7341,-1.7582,-1.7582,-1.5849,-1.3804,-1.6605,-1.5743,-1.3911,-1.6711,-1.7582,-1.7582,-1.7582,-1.7582,-1.7582,-1.7582,-1.7582,-1.7582,-1.7582,-1.7582,-1.7662,-1.7969,-1.8277,-1.8571,-1.8865,-1.9158,-1.9372,-1.9372,-1.9372,-1.9372,-1.9372,-1.9372,-1.9372,-1.9372,-1.9372,-1.9372,-1.9372,-1.9372,-1.9372,-1.9372,-1.804,-1.7208,-1.7208,-1.8519,-1.9372,-1.9372,-1.9372,-1.9372,-1.9372,-1.9372,-1.9372,-1.9372,-1.9626,-1.9773,-1.98,-1.6852,-1.5443,-1.5463,-1.2203,-1.0717,-1.8144,-1.8909,-1.9677,-2.0271,0.0,0.0,0.0,0.0,0.0,-1.1033,-0.92,0.0,0.0,0.0,-1.5521,-1.5524,-1.5712,-1.5832,-1.5832,-1.5832,-1.5832,-1.5832,-1.5832,-1.5832,-1.5832,-1.5832,-1.5832,-1.5832,-1.5832,-1.5832,-1.5832,-1.5832,-1.5832,-1.5832,-1.5832,-1.5832,-1.5832,-1.5832,-1.5832,-1.5832,-1.5832,-1.5885,-1.5992,-1.5992,-1.6059,-1.6166,-1.6166,-1.6166,-1.6179,-1.6366,-1.6433,-1.646,-1.6754,-1.7061,-1.7315,-1.7315,-1.5611,-1.3696,-1.6605,-1.5743,-1.3804,-1.6605,-1.7582,-1.7582,-1.7582,-1.7582,-1.7582,-1.7582,-1.6935,-1.6393,-1.7358,-1.7582,-1.7609,-1.7729,-1.7996,-1.829,-1.8584,-1.8891,-1.9145,-1.9332,-1.9372,-1.9372,-1.9372,-1.9372,-1.9372,-1.9372,-1.9372,-1.9372,-1.9372,-1.9372,-1.9372,-1.9372,-1.8881,-1.8052,-1.7091,-1.8519,-1.9372,-1.9372,-1.9372,-1.9372,-1.9372,-1.9372,-1.9452,-1.9639,-1.9746,-1.9973,-2.0347,-1.7144,-1.5533,-1.5663,-1.225,-1.0717,-1.7817,-1.8601,-1.9442,0.0,0.0,0.0,0.0,0.0,0.0,-1.1358,-0.9754,0.0,-1.1185,0.0,0.0,0.0,-1.5698,-1.5927,-1.6386,-1.6386,-1.6386,-1.6386,-1.6386,-1.6103,-1.5235,-1.5534,-1.5629,-1.5248,-1.5534,-1.5832,-1.5832,-1.5832,-1.5832,-1.5832,-1.5832,-1.5832,-1.5832,-1.5832,-1.5832,-1.5832,-1.5832,-1.5832,-1.5832,-1.5832,-1.6021,-1.6386,-1.6386,-1.6669,-1.6951,-1.726,-1.7131,-1.6856,-1.7064,-1.7141,-1.7007,-1.7007,-1.5347,-1.3487,-1.6441,-1.5623,-1.3698,-1.6685,-1.7582,-1.7582,-1.7582,-1.7582,-1.7582,-1.7582,-1.6499,-1.5636,-1.6605,-1.6935,-1.6935,-1.6935,-1.7488,-1.813,-1.8424,-1.8718,-1.9011,-1.9305,-1.9372,-1.9372,-1.9372,-1.9372,-1.9372,-1.9372,-1.9372,-1.9372,-1.9372,-1.9372,-1.901,-1.7935,-1.8286,-1.804,-1.6374,-1.7689,-1.8881,-1.9372,-1.9372,-1.9372,-1.9372,-1.9452,-1.9599,-1.98,-1.9987,-2.0281,-2.0681,-1.7312,-1.5772,-1.5784,-1.2281,-1.0717,-1.8852,-1.8601,-1.8624,0.0,0.0,0.0,-1.8689,0.0,-1.2218,-1.159,0.0,-1.1228,-1.1763,-1.3566,0.0,-1.5725,-1.5832,-1.6197,-1.7498,-1.7684,-1.7684,-1.7684,-1.7684,-1.6734,-1.416,-1.5045,-1.5248,-1.3968,-1.5045,-1.5832,-1.5832,-1.5832,-1.5832,-1.5832,-1.5832,-1.5832,-1.5832,-1.5832,-1.5832,-1.5832,-1.5832,-1.5832,-1.5832,-1.5832,-1.648,-1.7684,-1.7684,-1.8411,-1.9497,-1.9497,-1.897,-1.8067,-1.8067,-1.7497,-1.67,-1.67,-1.4951,-1.3038,-1.6099,-1.5347,-1.3488,-1.6622,-1.7582,-1.7582,-1.7582,-1.7582,-1.7582,-1.7582,-1.6499,-1.5423,-1.5423,-1.5411,-1.5411,-1.5411,-1.6725,-1.8116,-1.8424,-1.8718,-1.9011,-1.9305,-1.9359,-1.9372,-1.9372,-1.9372,-1.9372,-1.9372,-1.9372,-1.9372,-1.9372,-1.9372,-1.8169,-1.4955,-1.602,-1.6374,-1.4718,-1.602,-1.7689,-1.9243,-1.9372,-1.9372,-1.9372,-1.9639,-1.98,-1.98,-2.0374,-2.0681,-2.0681,-1.7479,-1.5913,-1.5784,-1.2281,-1.0717,-1.7727,-1.832,0.0,-1.9454,0.0,0.0,0.0,-1.6648,0.0,0.0,-1.1115,-1.1642,-1.1612,-1.3826,0.0,-1.5524,-1.5698,-1.6197,-1.7498,-1.7684,-1.7684,-1.7684,-1.7684,-1.6734,-1.416,-1.4268,-1.4268,-1.3968,-1.4268,-1.4854,-1.5737,-1.5832,-1.5832,-1.5832,-1.5832,-1.5832,-1.5832,-1.5832,-1.5832,-1.5832,-1.5832,-1.5832,-1.5832,-1.5832,-1.648,-1.7684,-1.7684,-1.8411,-1.9497,-1.9497,-1.9379,-1.9015,-1.81,-1.7743,-1.7552,-1.6687,-1.5407,-1.4253,-1.6188,-1.5694,-1.4493,-1.6652,-1.7275,-1.7315,-1.7515,-1.7582,-1.7582,-1.7582,-1.5849,-1.3911,-1.3911,-1.3156,-1.294,-1.4877,-1.5803,-1.6485,-1.7886,-1.841,-1.8704,-1.8998,-1.9225,-1.9372,-1.9372,-1.9372,-1.9372,-1.9372,-1.9372,-1.9372,-1.9372,-1.9372,-1.8169,-1.4955,-1.602,-1.6374,-1.4718,-1.602,-1.7689,-1.9243,-1.9372,-1.9372,-1.9372,-1.9639,-1.9893,-2.0094,-2.0481,-2.0775,-2.0975,-1.7569,-1.5913,-1.5784,-1.2281,-1.0717,-1.7798,-1.8545,0.0,-1.9728,-2.0091,-2.0012,-1.8869,0.0,0.0,0.0,-1.0909,-1.1692,-1.1652,-1.3886,0.0,-1.5578,-1.5712,-1.6386,-1.8133,-1.8411,-1.8411,-1.8411,-1.8411,-1.6987,-1.3488,-1.3584,-1.368,-1.3102,-1.3584,-1.4459,-1.5737,-1.5832,-1.5832,-1.5832,-1.5832,-1.5832,-1.5832,-1.5832,-1.5832,-1.5832,-1.5832,-1.5832,-1.5832,-1.5832,-1.6749,-1.8503,-1.9405,-2.0223,-2.0944,-2.0944,-2.0674,-2.0116,-1.8872,-1.8272,-1.7793,-1.6567,-1.5303,-1.4453,-1.5978,-1.5619,-1.4743,-1.6456,-1.7048,-1.7181,-1.7355,-1.7488,-1.7582,-1.7582,-1.553,-1.3264,-1.3264,-1.1755,-1.1,-1.3911,-1.4984,-1.5922,-1.7646,-1.8277,-1.8584,-1.8865,-1.9158,-1.9372,-1.9372,-1.9372,-1.9372,-1.9372,-1.9372,-1.9372,-1.9372,-1.9372,-1.8169,-1.4955,-1.5429,-1.5429,-1.3765,-1.5074,-1.6738,-1.8286,-1.9115,-1.9546,-1.9546,-1.9813,-2.0107,-2.0401,-2.0695,-2.0935,-2.1109,-1.8256,-1.656,-1.5784,-1.3062,-1.1372,-1.8617,-1.8913,-1.9177,-2.0452,-2.043,0.0,-1.8479,-1.5087,-1.1823,-1.0485,0.0,-1.1602,-1.191,-1.3791,-1.5524,-1.5792,-1.5832,-1.6655,-1.9131,-1.9497,-1.9497,-1.9497,-1.9497,-1.7517,-1.2425,-1.3006,-1.3199,-1.1853,-1.3006,-1.4268,-1.5534,-1.5737,-1.5818,-1.5792,-1.5697,-1.5697,-1.5697,-1.5697,-1.571,-1.5832,-1.5832,-1.5832,-1.5832,-1.5832,-1.7109,-1.9588,-2.205,-2.3144,-2.3144,-2.3144,-2.2492,-2.1302,-2.0116,-1.8948,-1.7684,-1.648,-1.514,-1.4304,-1.5738,-1.5426,-1.4666,-1.6156,-1.6847,-1.7074,-1.7141,-1.7328,-1.7555,-1.7569,-1.553,-1.3264,-1.3264,-1.1109,-0.9588,-1.2408,-1.4126,-1.5708,-1.7391,-1.8127,-1.8544,-1.8824,-1.9118,-1.9332,-1.9359,-1.9372,-1.9372,-1.9372,-1.9372,-1.9372,-1.9372,-1.9243,-1.8052,-1.4955,-1.448,-1.3765,-1.2337,-1.3646,-1.5311,-1.6844,-1.8788,-1.9813,-1.984,-2.012,-2.0401,-2.0668,-2.0962,-2.1109,-2.1109,-1.9291,-1.7602,-1.5913,-1.4101,-1.2413,-1.7957,-1.8157,0.0,0.0,-1.9646,-1.925,-1.8129,-1.6049,-1.3872,-1.19,-1.1619,-1.1793,-1.1843,-1.404,-1.5752,-1.5818,-1.5832,-1.6655,-1.9131,-1.9497,-1.9497,-1.9497,-1.9497,-1.7517,-1.2425,-1.2134,-1.1853,-1.0485,-1.1551,-1.2909,-1.4268,-1.5248,-1.5631,-1.5299,-1.5272,-1.5179,-1.5179,-1.5179,-1.5391,-1.5832,-1.5832,-1.5832,-1.5832,-1.5832,-1.7109,-1.9588,-2.205,-2.3144,-2.3144,-2.3144,-2.295,-2.258,-2.1391,-2.0206,-1.8948,-1.7777,-1.6466,-1.5452,-1.5803,-1.5734,-1.5582,-1.6175,-1.6406,-1.6553,-1.7007,-1.7194,-1.7288,-1.7515,-1.553,-1.3264,-1.3264,-1.1109,-0.9375,-1.1109,-1.2724,-1.4137,-1.5601,-1.7041,-1.8237,-1.8531,-1.8824,-1.9092,-1.9332,-1.9372,-1.9372,-1.9372,-1.9372,-1.9372,-1.9372,-1.8286,-1.6738,-1.4837,-1.3526,-1.2577,-1.2217,-1.3646,-1.5311,-1.6844,-1.8788,-1.9907,-2.0134,-2.0428,-2.0615,-2.0681,-2.0962,-2.1109,-2.1109,-1.9291,-1.7602,-1.5913,-1.4101,-1.2413,-1.8365,0.0,0.0,-1.9662,0.0,-1.9798,-1.8213,-1.6779,-1.511,-1.2901,-1.2661,-1.2813,-1.2813,-1.4472,-1.5832,-1.5832,-1.5832,-1.6466,-1.8411,-1.9131,-1.9314,-1.8688,-1.9131,-1.7702,-1.3284,-1.2242,-1.1658,-1.0974,-1.1453,-1.2257,-1.359,-1.482,-1.5337,-1.5086,-1.4982,-1.4878,-1.4878,-1.519,-1.5362,-1.5312,-1.5658,-1.5806,-1.5832,-1.7016,-1.8303,-1.9588,-2.205,-2.3144,-2.3144,-2.3144,-2.3144,-2.295,-2.1747,-2.0567,-1.9314,-1.8149,-1.6857,-1.5832,-1.5832,-1.5832,-1.5858,-1.6005,-1.6152,-1.6353,-1.6807,-1.7034,-1.7208,-1.7502,-1.553,-1.3264,-1.3264,-1.1109,-0.9044,-0.9919,-1.1219,-1.2832,-1.4984,-1.6282,-1.7303,-1.8141,-1.8624,-1.8971,-1.9132,-1.9265,-1.9372,-1.9372,-1.9372,-1.9372,-1.9372,-1.8648,-1.7091,-1.4123,-1.3048,-1.2217,-1.114,-1.2577,-1.4123,-1.5784,-1.7577,-1.9069,-2.0214,-2.0521,-2.0735,-2.0882,-2.1029,-2.1109,-2.1109,-2.0195,-1.8372,-1.5913,-1.5005,-1.3193,-1.8569,0.0,-1.8783,-1.9965,-2.0607,0.0,-1.8194,-1.7164,-1.6068,-1.3746,-1.3507,-1.3743,-1.3743,-1.481,-1.5685,-1.5685,-1.5685,-1.614,-1.7612,-1.868,-1.9043,-1.8148,-1.8771,-1.7812,-1.4099,-1.2587,-1.1636,-1.1153,-1.1372,-1.1921,-1.2949,-1.4254,-1.4937,-1.4897,-1.4781,-1.4678,-1.4589,-1.5191,-1.5205,-1.4655,-1.5413,-1.5882,-1.6223,-1.8302,-1.9323,-1.9588,-2.205,-2.3144,-2.3144,-2.3144,-2.3144,-2.295,-2.2031,-2.0764,-1.9405,-1.8411,-1.703,-1.5832,-1.5832,-1.5832,-1.5832,-1.5832,-1.5992,-1.6246,-1.654,-1.6834,-1.7128,-1.7422,-1.5494,-1.3264,-1.3264,-1.1109,-0.894,-0.894,-0.9809,-1.1538,-1.4449,-1.5479,-1.6199,-1.7698,-1.8517,-1.8945,-1.8985,-1.9199,-1.9372,-1.9372,-1.9372,-1.9372,-1.9372,-1.9372,-1.7806,-1.3407,-1.2689,-1.1736,-0.9937,-1.1261,-1.2928,-1.448,-1.6362,-1.8203,-2.0093,-2.0521,-2.0815,-2.1096,-2.1109,-2.1109,-2.1109,-2.1109,-1.9291,-1.5913,-1.5913,-1.397,-1.6599,0.0,-1.8148,0.0,-1.9487,-1.964,0.0,0.0,-1.7016,0.0,-1.3644,-1.3111,-1.3111,-1.4242,-1.5084,-1.5084,-1.5084,-1.5866,-1.8049,-1.8469,-1.8816,-1.9591,-1.8988,-1.711,-1.3393,-1.1989,-1.0445,-0.8313,-1.0138,-1.1415,-1.16,-1.3779,-1.4843,-1.4589,-1.4576,-1.4388,-1.4187,-1.4287,-1.4304,-1.4155,-1.53,-1.6411,-1.7462,-1.8166,-1.8848,-1.9588,-2.205,-2.3144,-2.3144,-2.3144,-2.3144,-2.3057,-2.295,-2.1498,-1.9497,-1.9314,-1.7762,-1.5832,-1.5832,-1.5832,-1.5832,-1.5832,-1.5858,-1.5939,-1.6246,-1.654,-1.682,-1.7128,-1.5352,-1.3264,-1.3264,-1.1109,-0.894,-0.894,-0.9044,-1.0021,-1.294,-1.4578,-1.597,-1.7659,-1.8517,-1.8998,-1.9265,-1.9345,-1.9372,-1.9372,-1.9372,-1.9372,-1.9372,-1.9372,-1.7806,-1.3407,-1.1382,-1.0058,-0.9822,-1.1261,-1.2928,-1.448,-1.6362,-1.8203,-2.0093,-2.0521,-2.0815,-2.1096,-2.1109,-2.1109,-2.1109,-2.1109,-1.9291,-1.5913,-1.5913,-1.397,-1.58,-1.7025,-1.8067,0.0,-1.875,-1.8767,-1.7282,-1.7072,-1.6585,-1.4654,-1.3931,-1.3762,-1.4065,-1.4591,-1.4963,-1.4963,-1.4963,-1.5308,-1.6345,-1.7557,-1.8078,-1.7296,-1.7889,-1.7265,-1.4347,-1.237,-1.0823,-0.9722,-1.0534,-1.1,-1.1,-1.3209,-1.4416,-1.4282,-1.4282,-1.4183,-1.4084,-1.4084,-1.4229,-1.4621,-1.4811,-1.5362,-1.627,-1.8637,-1.9932,-2.0567,-2.2315,-2.3144,-2.3144,-2.3144,-2.3144,-2.3144,-2.3144,-2.2031,-2.0387,-1.977,-1.8395,-1.6763,-1.6021,-1.5832,-1.5832,-1.5832,-1.5832,-1.5885,-1.6179,-1.6366,-1.6553,-1.7021,-1.5756,-1.4071,-1.3449,-1.1755,-0.9919,-0.9044,-0.894,-0.9588,-1.1973,-1.3372,-1.4956,-1.7538,-1.8397,-1.8758,-1.8998,-1.9225,-1.9372,-1.9372,-1.9372,-1.9372,-1.9372,-1.9372,-1.7337,-1.1736,-1.0301,-0.9822,-0.9822,-1.0422,-1.1976,-1.448,-1.5406,-1.7194,-2.0093,-2.0361,-2.0641,-2.1096,-2.1109,-2.1109,-2.1109,-2.1109,-1.9291,-1.5913,-1.5913,-1.397,0.0,0.0,-1.7218,-1.7624,-1.8045,-1.7953,0.0,0.0,-1.6111,0.0,-1.3975,-1.4135,-1.4643,-1.4736,-1.4736,-1.4736,-1.4736,-1.4913,-1.5163,-1.6875,-1.7461,-1.5762,-1.7118,-1.7204,-1.4974,-1.2551,-1.1021,-1.0749,-1.0691,-1.077,-1.077,-1.2893,-1.4082,-1.4082,-1.4082,-1.4082,-1.4082,-1.4082,-1.43,-1.4802,-1.4362,-1.4376,-1.4884,-1.8883,-2.1062,-2.1831,-2.2736,-2.3144,-2.3144,-2.3144,-2.3144,-2.3144,-2.3144,-2.2403,-2.1105,-1.9951,-1.878,-1.7498,-1.6197,-1.5832,-1.5832,-1.5832,-1.5832,-1.5872,-1.6086,-1.6219,-1.638,-1.6887,-1.6034,-1.478,-1.3644,-1.2191,-1.0781,-0.9699,-0.9485,-0.9911,-1.1755,-1.3372,-1.5075,-1.7551,-1.7948,-1.8086,-1.8632,-1.9105,-1.9372,-1.9372,-1.9372,-1.9372,-1.9372,-1.9372,-1.6973,-1.0536,-0.9822,-0.9822,-0.9822,-0.9822,-1.102,-1.3765,-1.4361,-1.6122,-1.9459,-1.9985,-2.0508,-2.1096,-2.1109,-2.1109,-2.1109,-2.1109,-1.9291,-1.5913,-1.5913,-1.397,0.0,-1.4948,0.0,-1.6597,-1.7239,-1.7187,0.0,0.0,-1.5745,-1.3994,-1.3667,-1.3761,-1.4082,-1.4135,-1.4135,-1.4135,-1.4135,-1.4544,-1.5506,-1.6664,-1.7318,-1.7155,-1.7318,-1.6468,-1.428,-1.2003,-1.0212,-0.9095,-1.0028,-1.0626,-1.0626,-1.2869,-1.4082,-1.4082,-1.4082,-1.4082,-1.4082,-1.4082,-1.4095,-1.4108,-1.4115,-1.4158,-1.4266,-1.8594,-2.1499,-2.3037,-2.3095,-2.3144,-2.3144,-2.3144,-2.3144,-2.3144,-2.3144,-2.2403,-2.1105,-1.9951,-1.878,-1.7498,-1.6197,-1.5832,-1.5832,-1.5832,-1.5832,-1.5832,-1.5845,-1.6046,-1.6339,-1.6647,-1.5884,-1.478,-1.3644,-1.2191,-1.1109,-1.1,-1.1,-1.1428,-1.294,-1.5423,-1.7463,-1.7875,-1.7041,-1.683,-1.8519,-1.9105,-1.9372,-1.9372,-1.9372,-1.9372,-1.9372,-1.9372,-1.6973,-1.0536,-0.9822,-0.9822,-0.9822,-0.9822,-1.0543,-1.2217,-1.3765,-1.5643,-1.7958,-1.9485,-2.0508,-2.1096,-2.1109,-2.1109,-2.1109,-2.1109,-1.9291,-1.5913,-1.5913,-1.397,0.0,0.0,0.0,-1.5636,-1.6222,-1.6513,-1.5504,-1.5334,-1.5136,-1.407,-1.3622,-1.34,-1.3507,-1.3828,-1.4082,-1.4082,-1.4082,-1.425,-1.4657,-1.5628,-1.6041,-1.5311,-1.5876,-1.5696,-1.421,-1.198,-1.0692,-1.1037,-1.0645,-1.0719,-1.1627,-1.3033,-1.3895,-1.4082,-1.4082,-1.4082,-1.4082,-1.4082,-1.4587,-1.5423,-1.449,-1.5576,-1.8296,-1.9879,-2.0914,-2.1535,-2.265,-2.3122,-2.3144,-2.3144,-2.3144,-2.3144,-2.3144,-2.2862,-2.2315,-2.1123,-2.0387,-1.9753,-1.7669,-1.7044,-1.6857,-1.6116,-1.5832,-1.5832,-1.5832,-1.5899,-1.6086,-1.6567,-1.6364,-1.5614,-1.3816,-1.3588,-1.3588,-1.2724,-1.3911,-1.5209,-1.477,-1.618,-1.7397,-1.653,-1.6938,-1.6993,-1.5806,-1.7728,-1.9372,-1.9372,-1.9372,-1.9372,-1.9372,-1.9372,-1.6973,-1.0536,-0.9822,-0.9822,-0.9822,-0.9822,-1.0465,-1.2264,-1.3965,-1.5867,-1.7972,-1.9632,-2.0708,-2.1096,-2.1109,-2.1109,-2.1109,-2.1109,-1.9291,-1.5913,-1.5913,-1.397,-1.3978,0.0,0.0,0.0,-1.5721,-1.5883,-1.5476,-1.5042,-1.4551,-1.3623,-1.3189,-1.2973,-1.3173,-1.3534,-1.3788,-1.3788,-1.3788,-1.3788,-1.3788,-1.4746,-1.5057,-1.4049,-1.4938,-1.5264,-1.4049,-1.2457,-1.1691,-1.1992,-1.1167,-1.1062,-1.198,-1.2921,-1.3587,-1.3788,-1.3895,-1.3935,-1.3935,-1.4041,-1.4838,-1.6185,-1.5524,-1.7058,-2.0601,-2.0575,-2.0633,-2.0652,-2.1768,-2.2539,-2.2949,-2.3086,-2.3144,-2.3144,-2.3144,-2.3144,-2.295,-2.1747,-2.1302,-2.1016,-1.9039,-1.8056,-1.7591,-1.6669,-1.6103,-1.5832,-1.5832,-1.5832,-1.5952,-1.654,-1.67,-1.6315,-1.4434,-1.4663,-1.5198,-1.4234,-1.5849,-1.7358,-1.6393,-1.6935,-1.7147,-1.5743,-1.6018,-1.5916,-1.3922,-1.5932,-1.8169,-1.9243,-1.9372,-1.9372,-1.9372,-1.9372,-1.6973,-1.0536,-0.9822,-0.9822,-0.9822,-0.9822,-1.0372,-1.151,-1.3224,-1.4878,-1.6329,-1.8638,-1.9914,-2.0195,-2.0843,-2.1109,-2.1109,-2.1109,-1.9291,-1.5913,-1.5913,-1.397,0.0,0.0,0.0,0.0,0.0,0.0,-1.5722,0.0,-1.3941,-1.2629,-1.233,-1.2452,-1.3053,-1.316,-1.3173,-1.3173,-1.3186,-1.3213,-1.3213,-1.4116,-1.4428,-1.3557,-1.4751,-1.5078,-1.3636,-1.348,-1.2907,-1.165,-1.1478,-1.1478,-1.157,-1.2632,-1.3213,-1.3213,-1.348,-1.3627,-1.3627,-1.3921,-1.4824,-1.6252,-1.696,-1.8504,-2.0582,-2.0586,-2.0585,-2.0614,-2.0592,-2.1332,-2.2519,-2.2969,-2.3144,-2.3144,-2.3057,-2.3057,-2.2862,-2.1658,-2.1302,-2.1123,-1.9951,-1.878,-1.7777,-1.7684,-1.6857,-1.5832,-1.5832,-1.5832,-1.5952,-1.654,-1.67,-1.6531,-1.5611,-1.5411,-1.5411,-1.5411,-1.6499,-1.7582,-1.7582,-1.7582,-1.7147,-1.5743,-1.432,-1.3417,-1.3197,-1.4013,-1.5795,-1.8894,-1.9372,-1.9372,-1.9372,-1.9372,-1.6973,-1.0536,-0.9822,-0.9822,-0.9822,-0.9822,-0.989,-1.0046,-1.1526,-1.2674,-1.3029,-1.6223,-1.8127,-1.8372,-2.0195,-2.0982,-2.0982,-2.1109,-1.9291,-1.5913,-1.5784,-1.397,-1.4159,0.0,0.0,0.0,0.0,0.0,0.0,0.0,-1.2997,-1.3139,-1.2196,-1.1476,-1.2019,-1.2177,-1.2238,-1.2238,-1.2786,-1.3213,-1.3213,-1.3437,-1.3516,-1.3292,-1.3622,-1.3701,-1.3306,-1.2578,-1.2246,0.0,-1.1721,-1.1606,-1.2698,-1.3041,-1.3213,-1.3213,-1.3293,-1.3333,-1.3333,-1.3614,-1.4717,-1.6716,-1.7641,-1.9003,-2.0586,-2.0586,-2.0625,-2.0566,-2.0595,-2.1014,-2.1781,-2.2726,-2.3144,-2.3038,-2.212,-2.1765,-2.1658,-2.0404,-2.0567,-2.1123,-1.9951,-1.9844,-2.0025,-1.8226,-1.7498,-1.703,-1.6103,-1.5832,-1.5952,-1.654,-1.67,-1.6531,-1.5611,-1.5411,-1.5411,-1.5411,-1.6499,-1.7582,-1.7582,-1.7582,-1.7147,-1.5743,-1.4288,-1.2692,-1.0468,-1.4582,-1.8415,-1.9243,-1.9372,-1.9372,-1.9372,-1.9372,-1.6973,-1.0536,-0.9822,-0.9822,-0.9822,-0.9822,-0.993,-1.0202,-1.1831,-1.286,-1.3232,-1.5306,-1.6497,-1.656,-1.8384,-1.9164,-1.9164,-2.0462,-1.9291,-1.5784,-1.3325,-1.163,0.0,0.0,0.0,0.0,0.0,0.0,-1.4802,-1.3541,-1.2502,0.0,-1.1781,-1.0755,-1.1316,-1.1464,-1.1612,-1.1663,-1.2204,-1.2634,-1.2799,-1.2826,-1.2826,-1.2826,-1.2826,-1.2826,-1.2826,-1.2196,-1.2119,-1.2749,-1.2043,-1.1942,-1.2749,-1.2826,-1.2826,-1.2826,-1.2946,-1.3013,-1.3013,-1.3307,-1.4605,-1.6929,-1.7951,-1.9195,-2.0566,-2.0566,-2.0566,-2.0586,-2.062,-2.0962,-2.1709,-2.2493,-2.2882,-2.295,-2.1621,-2.1176,-2.1105,-1.9951,-2.0296,-2.1194,-2.0477,-2.0747,-2.1033,-1.9039,-1.8133,-1.7498,-1.6197,-1.6197,-1.6578,-1.6589,-1.67,-1.6688,-1.5635,-1.5849,-1.6168,-1.553,-1.6499,-1.7582,-1.7582,-1.7582,-1.7147,-1.5743,-1.477,-1.3542,-1.1415,-1.4427,-1.7662,-1.9216,-1.9372,-1.9372,-1.9372,-1.7091,-1.3994,-1.0179,-0.9822,-0.9822,-0.9822,-0.9822,-0.9951,-1.0263,-1.1277,-1.1931,-1.2134,-1.384,-1.4874,-1.4874,-1.7216,-1.8512,-1.8512,-2.0195,-1.9291,-1.5784,-1.2281,-1.0717,0.0,0.0,0.0,0.0,0.0,0.0,-1.5916,-1.4201,-1.2445,0.0,-1.1105,-1.0241,-1.0742,-1.094,-1.1061,-1.1236,-1.1492,-1.1736,-1.2131,-1.2238,-1.2251,-1.2251,-1.2278,-1.2305,-1.2305,-1.2305,-1.2305,-1.2305,-1.2305,-1.2305,-1.2305,-1.2305,-1.2305,-1.2305,-1.2559,-1.2768,-1.2768,-1.2999,-1.4374,-1.6863,-1.7787,-1.9036,-2.0566,-2.0566,-2.0566,-2.0586,-2.0582,-2.1086,-2.1753,-2.2039,-2.2504,-2.295,-2.123,-2.0766,-2.0819,-1.9571,-1.9844,-2.0926,-2.1016,-2.1105,-2.0926,-1.9861,-1.8688,-1.7498,-1.6197,-1.6669,-1.7572,-1.676,-1.6787,-1.6885,-1.5423,-1.6262,-1.7041,-1.553,-1.6287,-1.7358,-1.7582,-1.7582,-1.7252,-1.5849,-1.5672,-1.5514,-1.4729,-1.4632,-1.5749,-1.8932,-1.9372,-1.9127,-1.8402,-1.3278,-0.9822,-0.9822,-0.9822,-0.9822,-0.9822,-0.9822,-0.9944,-1.0236,-1.027,-1.0405,-1.0683,-1.2142,-1.3062,-1.3062,-1.6302,-1.8116,-1.8512,-1.9801,-1.8768,-1.5524,-1.2281,-1.0717,0.0,0.0,0.0,0.0,0.0,0.0,-1.3842,-1.3557,-1.2878,0.0,-1.0463,-1.0179,-0.9787,-1.0053,-1.0314,-1.0367,-1.0768,-1.1276,-1.1543,-1.181,-1.1957,-1.1957,-1.2158,-1.2305,-1.2305,-1.2305,-1.2305,-1.2305,-1.2305,-1.2305,-1.2305,-1.2305,-1.2305,-1.2305,-1.2358,-1.2385,-1.2385,-1.2692,-1.4117,-1.648,-1.6968,-1.8422,-2.0566,-2.0566,-2.0566,-2.0566,-2.0644,-2.0721,-2.0866,-2.0945,-2.1778,-2.2862,-2.0657,-1.9397,-1.8696,-1.708,-1.7296,-1.8503,-1.9497,-1.9844,-1.9844,-1.9588,-1.8688,-1.7498,-1.6197,-1.6669,-1.7665,-1.7706,-1.7484,-1.6626,-1.3941,-1.4518,-1.5423,-1.4019,-1.477,-1.6168,-1.7358,-1.7582,-1.7477,-1.7252,-1.7407,-1.7559,-1.7444,-1.7956,-1.8635,-1.9345,-1.9372,-1.7572,-1.2329,-1.0536,-0.9822,-0.9822,-0.9822,-0.9822,-0.9822,-0.9822,-0.9897,-1.008,-1.0209,-1.0358,-1.0527,-1.0913,-1.124,-1.124,-1.3193,-1.5654,-1.8512,-1.7474,-1.5784,-1.3709,-1.163,-1.0717,0.0,0.0,0.0,-1.4138,-1.4336,0.0,0.0,-1.3167,-1.2299,-1.1628,-1.0648,-0.9819,-0.9615,-0.9535,-0.9516,-0.9646,-0.9987,-1.0367,-1.0954,-1.1383,-1.165,-1.165,-1.1784,-1.1864,-1.1864,-1.2104,-1.2329,-1.2322,-1.2298,-1.2305,-1.2305,-1.2305,-1.2305,-1.2305,-1.2305,-1.2305,-1.2305,-1.2452,-1.3855,-1.638,-1.6563,-1.8035,-2.0566,-2.0566,-2.0566,-2.0566,-2.0566,-2.0722,-2.0951,-2.0943,-2.1742,-2.2823,-2.0442,-1.905,-1.8117,-1.6425,-1.6574,-1.787,-1.9039,-1.9497,-1.9497,-1.9497,-1.8688,-1.7498,-1.6197,-1.6292,-1.6914,-1.7897,-1.7556,-1.633,-1.353,-1.4049,-1.5091,-1.3588,-1.4341,-1.5849,-1.7252,-1.7582,-1.7582,-1.7582,-1.7876,-1.8143,-1.8196,-1.8691,-1.9145,-1.9332,-1.9372,-1.7689,-1.2808,-1.1736,-1.102,-0.9943,-0.9822,-0.9822,-0.9822,-0.9822,-0.9883,-1.0039,-1.012,-1.0263,-1.048,-1.0568,-1.103,-1.2025,-1.28,-1.4101,-1.5913,-1.5005,-1.4101,-1.3325,-1.1505,-1.0717,0.0,0.0,0.0,0.0,-1.4176,-1.4203,0.0,0.0,0.0,-1.2539,-1.119,-0.993,0.0,0.0,0.0,-0.9098,0.0,0.0,0.0,-1.0995,0.0,-1.1356,-1.1491,-1.156,-1.1343,-1.1723,-1.2012,-1.2079,-1.2114,-1.2104,-1.2211,-1.2225,-1.2251,-1.2305,-1.2305,-1.2305,-1.2305,-1.2305,-1.3666,-1.6263,-1.633,-1.7805,-2.0449,-2.0527,-2.0566,-2.0566,-2.0566,-2.086,-2.1232,-2.1111,-2.1801,-2.2624,-2.0429,-1.9241,-1.8498,-1.657,-1.664,-1.787,-1.8856,-1.8948,-1.8856,-1.9039,-1.8319,-1.7232,-1.6386,-1.6021,-1.6157,-1.7633,-1.7357,-1.5972,-1.3434,-1.3773,-1.4607,-1.3146,-1.3911,-1.5423,-1.6817,-1.7358,-1.7582,-1.7582,-1.7569,-1.7672,-1.8034,-1.8531,-1.8931,-1.9319,-1.901,-1.7689,-1.4718,-1.3168,-1.1736,-0.9937,-0.9822,-0.9822,-0.9822,-0.9822,-0.9876,-0.9998,-1.0032,-1.0154,-1.0399,-1.046,-1.1337,-1.3316,-1.2931,-1.2931,-1.3325,-1.2931,-1.28,-1.28,-1.1372,-1.0717,-1.0897,-1.178,-1.2489,-1.2203,-1.3621,-1.4736,-1.3478,0.0,-1.3807,-1.2324,0.0,-1.1163,0.0,0.0,0.0,0.0,0.0,0.0,-1.0221,-1.0578,-1.0887,-1.1119,-1.1841,-1.203,-1.1234,-1.0903,-1.1009,-1.1463,-1.1276,-1.1369,-1.1891,-1.1917,-1.2037,-1.2291,-1.2305,-1.2305,-1.2305,-1.2305,-1.3476,-1.5896,-1.623,-1.7663,-2.0,-2.0391,-2.0566,-2.0566,-2.0566,-2.0586,-2.0664,-2.0659,-2.1202,-2.1909,-2.044,-2.006,-2.0069,-1.6907,-1.6621,-1.7684,-1.787,-1.7124,-1.6386,-1.7498,-1.703,-1.6197,-1.7232,-1.6669,-1.6116,-1.7355,-1.7032,-1.5789,-1.3099,-1.2809,-1.281,-1.1602,-1.2507,-1.3911,-1.5304,-1.6711,-1.7582,-1.7582,-1.6524,-1.6196,-1.7793,-1.8531,-1.9011,-1.9319,-1.7806,-1.5773,-1.3526,-1.1382,-1.0058,-0.9822,-0.9822,-0.9822,-0.9822,-0.9822,-0.9829,-0.9842,-0.9971,-1.0066,-1.01,-1.0351,-1.1337,-1.3316,-1.1762,-1.1762,-1.3325,-1.1762,-1.0982,-1.0982,-1.085,-1.0717,-0.9961,-1.0729,-1.1239,-1.1217,-1.2075,-1.2809,-1.2406,-1.2474,-1.2628,0.0,0.0,0.0,0.0,0.0,0.0,0.0,-0.8531,0.0,0.0,0.0,-1.082,-1.1399,0.0,0.0,-1.0418,-1.0319,-1.0388,-1.0584,-1.0862,-1.1102,-1.1343,-1.1677,-1.1917,-1.2051,-1.2211,-1.2305,-1.2305,-1.2305,-1.3181,-1.4977,-1.57,-1.7133,-1.9146,-1.9869,-2.0332,-2.0566,-2.0566,-2.0566,-2.0586,-2.0566,-2.0994,-2.1461,-2.1351,-2.1053,-2.0355,-1.7827,-1.7252,-1.7684,-1.7684,-1.6857,-1.5927,-1.6386,-1.6197,-1.5927,-1.648,-1.6197,-1.5927,-1.648,-1.6416,-1.5738,-1.3057,-1.2561,-1.2462,-1.1385,-1.2191,-1.3696,-1.5091,-1.5849,-1.6287,-1.6287,-1.5198,-1.4374,-1.5132,-1.6344,-1.7241,-1.7528,-1.6875,-1.5737,-1.4103,-1.2337,-1.0778,-0.9943,-0.9822,-0.9822,-0.9822,-0.9822,-0.9822,-0.9822,-0.9964,-1.0046,-1.0046,-1.0331,-1.0904,-1.1612,-1.1066,-1.1115,-1.1762,-1.1115,-1.0717,-1.0717,-1.0717,-1.0717,-0.9323,-1.0034,-1.0438,-1.0534,-1.0938,-1.1364,-1.1504,-1.1376,-1.1421,-1.2159,0.0,0.0,0.0,0.0,0.0,0.0,0.0,-0.9051,0.0,-1.0538,0.0,0.0,0.0,0.0,0.0,-0.9485,-0.9675,-1.0146,-1.0295,-1.0591,-1.1173,-1.175,-1.1984,-1.1935,-1.2435,-1.2586,-1.2305,-1.2305,-1.2917,-1.4245,-1.5283,-1.6702,-1.8352,-1.9392,-2.0156,-2.0566,-2.0566,-2.0566,-2.0566,-2.0566,-2.082,-2.1209,-2.1574,-2.1248,-2.0429,-1.8577,-1.7747,-1.7684,-1.7684,-1.7124,-1.6292,-1.5927,-1.5832,-1.5832,-1.5832,-1.5832,-1.5832,-1.5832,-1.5979,-1.5622,-1.2962,-1.2471,-1.2269,-1.0775,-1.1611,-1.3048,-1.4556,-1.477,-1.4984,-1.5304,-1.3911,-1.2724,-1.2724,-1.4102,-1.5331,-1.558,-1.5374,-1.4919,-1.4094,-1.2577,-1.114,-0.9943,-0.9822,-0.9822,-0.9822,-0.9822,-0.9822,-0.9822,-0.9924,-1.0005,-1.0046,-1.0297,-1.0453,-1.0493,-1.0643,-1.0717,-1.0717,-1.0717,-1.0717,-1.0717,-1.0717,-1.0717,-0.9118,-1.0037,-1.0725,-1.0023,-1.0677,-1.1381,-1.0947,-1.1077,-1.1226,-1.0947,-1.1077,0.0,0.0,0.0,0.0,0.0,0.0,0.0,0.0,0.0,0.0,0.0,0.0,0.0,0.0,-0.8292,-0.8734,-1.0536,-0.9562,-0.9646,-1.1472,-1.2059,-1.2202,-1.1921,-1.2999,-1.3244,-1.2305,-1.2305,-1.282,-1.3768,-1.517,-1.6564,-1.797,-1.9259,-2.0156,-2.0566,-2.0566,-2.0566,-2.0566,-2.0566,-2.082,-2.1109,-2.0403,-2.0364,-2.0499,-1.8839,-1.8026,-1.7684,-1.7684,-1.7684,-1.7404,-1.6197,-1.5832,-1.5832,-1.5832,-1.5832,-1.5832,-1.5832,-1.5832,-1.523,-1.2819,-1.2344,-1.1841,-0.9319,-1.0008,-1.1538,-1.3048,-1.3372,-1.3804,-1.5091,-1.3156,-1.1219,-1.1219,-1.2569,-1.378,-1.4015,-1.2971,-1.2233,-1.2312,-1.0899,-0.9822,-0.9822,-0.9822,-0.9822,-0.9822,-0.9822,-0.9822,-0.9822,-0.9829,-0.9897,-1.0046,-1.0202,-1.0351,-1.0487,-1.0643,-1.0717,-1.0717,-1.0717,-1.0717,-1.0717,-1.0717,-1.0717,-0.8387,-0.9057,-0.9486,-0.9439,-0.9854,-1.0272,-1.0135,-1.0377,-1.0692,-1.0794,-1.0693,-1.0478,0.0,0.0,0.0,0.0,0.0,0.0,0.0,0.0,0.0,0.0,0.0,0.0,0.0,0.0,-0.9325,-0.9821,-1.0478,-1.0923,-1.099,-1.2617,-1.2892,-1.1639,-1.2971,-1.3244,-1.2305,-1.2305,-1.2452,-1.2806,-1.393,-1.517,-1.6564,-1.7933,-1.9108,-2.0156,-2.0449,-2.0566,-2.0566,-2.0566,-2.0253,-1.9728,-1.9942,-1.9162,-1.7954,-1.7873,-1.7825,-1.7591,-1.6763,-1.648,-1.6386,-1.5927,-1.5832,-1.5832,-1.5832,-1.5832,-1.5832,-1.5832,-1.5832,-1.5217,-1.2809,-1.2334,-1.1737,-0.9312,-0.9899,-1.1538,-1.294,-1.3264,-1.348,-1.3911,-1.2398,-1.0781,-0.9809,-1.0177,-1.0929,-1.2114,-1.1968,-1.1811,-1.2006,-1.0711,-0.9822,-0.9822,-0.9822,-0.9822,-0.9822,-0.9822,-0.9822,-0.9822,-0.9822,-0.9842,-0.9897,-1.0148,-1.0304,-1.0351,-1.0595,-1.0717,-1.0717,-1.0717,-1.0717,-1.0717,-1.0717,-1.0717,-0.8138,-0.8655,-0.8896,-0.9292,-0.9535,-0.9667,-0.9585,-0.9821,-1.013,-1.0204,-1.0058,-0.985,-0.9764,0.0,0.0,0.0,0.0,0.0,0.0,-1.1588,0.0,0.0,0.0,0.0,0.0,-0.8355,-0.9257,-1.0205,-1.0663,-1.0898,0.0,-1.2619,-1.2866,-1.133,-1.274,-1.3129,-1.2305,-1.2305,-1.2305,-1.2305,-1.3593,-1.4839,-1.603,-1.764,-1.9069,-2.0156,-2.0449,-2.0566,-2.0566,-2.0157,-1.9608,-1.8949,-1.8886,-1.7889,-1.6669,-1.7445,-1.7684,-1.7498,-1.6197,-1.6116,-1.6386,-1.5927,-1.5832,-1.5832,-1.5832,-1.5832,-1.5832,-1.5832,-1.5832,-1.5191,-1.2713,-1.2274,-1.1709,-0.9231,-0.9537,-1.0672,-1.2191,-1.2082,-1.1864,-1.2398,-1.1319,-1.0021,-0.9044,-0.894,-0.9314,-1.0467,-1.0752,-1.0809,-1.1099,-1.0321,-0.9822,-0.9822,-0.9822,-0.9822,-0.9822,-0.9822,-0.9822,-0.9822,-0.9822,-0.9822,-0.9822,-1.0114,-1.0283,-1.0283,-1.0568,-1.0717,-1.0717,-1.0717,-1.0717,-1.0717,-1.0717,-1.0717]}]]